     2.11           OBSERVATION DATA    G (GPS)             RINEX VERSION / TYPE
teqc 2010Oct21 OPUS Account 20111028 15:08:27UTC            PGM / RUN BY / DATE
Z 1526                                                      MARKER NAME
3060                                                        MARKER NUMBER
CSMIDDLETON NGS                                             OBSERVER / AGENCY
0220390627 TRIMBLE R7 2.32                                  REC # / TYPE / VERS
60124849 TRM41249.00 NONE                                   ANT # / TYPE
  -741620.4980 -5580165.7774  2988676.2698                  APPROX POSITION XYZ
        2.0010        0.0000        0.0000                  ANTENNA: DELTA H/E/N
     1     1                                                WAVELENGTH FACT L1/2
     5    L1    L2    C1    P1    P2                        # / TYPES OF OBSERV
    15                                                      LEAP SECONDS
  2011     8    22    15    54   30.0000000     GPS         TIME OF FIRST OBS
                                                            END OF HEADER
 11  8 22 15 54 30.0000000  0  6G03G13G06G19G07G23
     12757.39858      2162.45355  21032744.5474                   21032742.1564
   -238218.27058    -34540.24256  20102019.2734                   20102016.3164
     26828.09457     15134.39155  22713907.9694                   22713906.8134
    -69345.60258    -37826.60956  21210672.2664                   21210669.1174
    -88434.77357    -36974.87555  22380226.6254                   22380224.6994
     10913.45358      6013.70756  20315220.1024                   20315215.8754
 11  8 22 15 55  0.0000000  0 10G03G08G10G16G20G13G06G19G07G23
     16594.15648      5152.10945  21033474.3444                   21033472.7934
   -159823.89856   -104307.75053  24314217.5164                   24314218.2194
    -47260.23056    -27704.33653  23929337.0554                   23929336.9774
     93624.72357     69594.00454  23078676.4534                   23078673.8524
     82577.19556     53845.94953  24790490.3834                   24790491.3984
   -283624.08248    -69921.40646  20093378.7734                   20093376.1054
     55130.66047     37188.28945  22719293.5704                   22719292.2384
   -139628.33648    -92592.39546  21197298.3054                   21197294.9654
   -176321.68047   -105458.15645  22363502.1024                   22363500.4694
     22435.68448     14992.04346  20317412.5784                   20317408.5004
 11  8 22 15 55 30.0000000  0 10G03G08G10G16G20G13G06G19G07G23
     20940.34048      8538.71945  21034301.6414                   21034299.9804
   -257485.93746   -180408.00843  24295632.8834                   24295633.8134
    -69969.44146    -45399.84043  23925015.7194                   23925015.9654
    151056.62547    114346.06344  23089605.4924                   23089602.9774
    132591.77346     92818.19943  24800008.3674                   24800009.2584
   -328559.80948   -104936.27346  20084827.8674                   20084825.0664
     83799.42647     59527.55945  22724748.7814                   22724748.3594
   -209451.69948   -147000.20346  21184011.4614                   21184007.8754
   -264279.27347   -173996.52745  22346764.7504                   22346762.6484
     34418.67248     24329.40246  20319693.1174                   20319689.2114
 11  8 22 15 56  0.0000000  0 10G03G08G10G16G20G13G06G19G07G23
     25775.81348     12306.58245  21035221.4064                   21035220.4344
   -355324.77047   -256646.00444  24277014.8914                   24277015.6294
    -92326.41846    -62820.89143  23920761.0704                   23920761.2974
    208415.50447    159041.22744  23100521.1804                   23100518.5204
    182331.50446    131576.31343  24809473.7734                   24809474.5594
   -373042.59848   -139598.19546  20076362.6174                   20076360.4924
    112813.75047     82136.07845  22730270.1094                   22730269.3714
   -278832.84848   -201063.44146  21170808.7274                   21170805.0084
   -352325.80147   -242604.19945  22330009.7344                   22330007.4344
     46842.71148     34010.42646  20322057.3134                   20322053.3674
 11  8 22 15 56 30.0000000  0  9G03G08G10G16G13G06G19G07G23
     31192.43448     16527.30145  21036252.7974                   21036250.9654
   -453247.57846   -332949.45343  24258380.7664                   24258381.1724
   -114239.55146    -79896.08643  23916591.2584                   23916591.1254
    265792.83647    203750.77344  23111439.0944                   23111437.0554
   -416977.81648   -173833.44146  20068002.3984                   20067999.8714
    142264.76647    105084.88344  22735874.6564                   22735873.6524
   -347676.36748   -254707.74246  21157707.8134                   21157704.2154
   -440367.26247   -311207.92245  22313256.3204                   22313253.9304
     59800.06648     44107.03146  20324523.1804                   20324519.0124
 11  8 22 15 57  0.0000000  0  9G03G08G10G16G13G06G19G07G23
     37161.52748     21178.52046  21037388.5394                   21037386.7814
   -551282.07847   -409339.91443  24239725.4454                   24239725.6254
   -135737.73446    -96647.95343  23912500.3524                   23912499.9384
    323158.87547    248451.53544  23122355.8054                   23122353.1804
   -460392.41048   -207663.01646  20059741.0394                   20059738.3324
    172122.78947    128350.82045  22741556.2344                   22741555.7114
   -416008.41448   -307953.49246  21144704.9774                   21144701.1604
   -528431.78147   -379829.61745  22296498.1254                   22296496.0434
     73262.05548     54596.85946  20327084.8524                   20327080.8594
 11  8 22 15 57 30.0000000  0  9G03G08G10G16G13G06G19G07G23
     43673.25848     26252.56345  21038627.6254                   21038626.3954
   -649435.86747   -485823.37143  24221047.1094                   24221047.9104
   -156830.05147   -113083.62544  23908486.5634                   23908486.3834
    380504.03547    293136.00044  23133268.2424                   23133265.8244
   -503292.76248   -241091.89546  20051577.1254                   20051574.2734
    202378.01647    151926.26644  22747314.0474                   22747312.8204
   -483835.00848   -360805.40246  21131797.8834                   21131794.2274
   -616526.03147   -448474.48445  22279734.3364                   22279731.8914
     87219.69148     65472.89546  20329741.0314                   20329736.9414
 11  8 22 15 58  0.0000000  0  9G03G08G10G16G13G06G19G07G23
     50736.50848     31756.37545  21039971.5704                   21039970.4964
   -747699.24647   -562392.16844  24202348.5474                   24202348.4264
   -177508.12146   -129196.41443  23904552.0394                   23904551.2774
    437836.28547    337810.41844  23144178.2034                   23144175.8444
   -545667.64148   -274111.29746  20043513.4614                   20043510.8054
    233038.52347    175817.53545  22753148.6024                   22753147.6724
   -551144.16848   -413254.09846  21118989.5554                   21118985.9844
   -704639.56647   -517134.35245  22262966.8134                   22262964.4924
    101682.14548     76742.30146  20332493.0554                   20332488.8054
 11  8 22 15 58 30.0000000  0  9G03G08G10G16G13G06G19G07G23
     58341.18048     37682.06345  21041418.6564                   21041417.5434
   -846081.44546   -639053.55944  24183627.2344                   24183627.1764
   -197782.39846   -144994.57443  23900693.7034                   23900693.1454
    495145.13747    382466.61344  23155083.8914                   23155081.5904
   -587524.88748   -306727.33246  20035548.2734                   20035545.5204
    264093.51647    200016.18445  22759057.9924                   22759056.7464
   -617942.82848   -465305.01246  21106277.8834                   21106274.2344
   -792780.65247   -585815.69145  22246193.8524                   22246192.1604
    116639.66448     88397.47746  20335339.4534                   20335335.2934
 11  8 22 15 59  0.0000000  0  9G03G08G10G16G13G06G19G07G23
     66490.67648     44032.30546  21042969.3444                   21042968.4264
   -944577.48046   -715803.68044  24164883.7664                   24164883.7504
   -217649.24646   -160475.27343  23896912.9614                   23896913.2934
    552433.53547    427106.87144  23165985.1884                   23165982.9454
   -628858.80948   -338935.60246  20027682.9694                   20027679.8444
    295545.80547    224524.40645  22765042.8674                   22765042.4344
   -684224.77048   -516953.28546  21093665.0634                   21093661.1174
   -880943.75847   -654514.20345  22229416.5554                   22229414.8594
    132096.07448    100441.39146  20338280.5084                   20338276.9064
 11  8 22 15 59 30.0000000  0  9G03G08G10G16G13G06G19G07G23
     75178.19948     50801.77745  21044622.7734                   21044621.5234
  -1043192.82046   -792646.73043  24146117.8754                   24146117.5944
   -237115.25446   -175643.62143  23893208.7814                   23893208.8794
    609694.17247    471725.49644  23176881.6174                   23176879.5394
   -669673.19948   -370739.03546  20019916.2504                   20019913.4344
    327388.32047    249336.72345  22771102.6414                   22771101.9694
   -749993.22348   -568201.43446  21081149.8364                   21081146.2274
   -969133.62147   -723233.55945  22212635.1174                   22212633.2034
    148044.72748    112868.87946  20341315.6884                   20341312.0084
 11  8 22 16  0  0.0000000  0  9G03G08G10G16G13G06G19G07G23
     84416.26648     58000.24645  21046380.8834                   21046379.3094
  -1141913.30546   -869571.72743  24127331.6884                   24127331.3984
   -256168.36746   -190490.25043  23889583.7504                   23889583.2384
    666939.27747    516332.02344  23187774.6484                   23187772.8054
   -709953.12548   -402126.00846  20012251.1254                   20012248.2974
    359632.59447    274462.09045  22777239.2814                   22777237.8094
   -815232.55948   -619037.27746  21068734.9694                   21068731.3094
  -1057335.92647   -791962.60945  22195850.3984                   22195848.5044
    164498.88748    125690.27046  20344447.0004                   20344442.7624
 11  8 22 16  0 30.0000000  0  9G03G08G10G16G13G06G19G07G23
     94195.77748     65620.62145  21048242.1094                   21048240.2154
  -1240746.82046   -946584.82043  24108524.0944                   24108524.4804
   -274817.39146   -205022.01643  23886034.9384                   23886034.3984
    724159.40647    560919.09844  23198663.3914                   23198661.4574
   -749705.18048   -433101.64846  20004686.5944                   20004683.7854
    392269.30547    299893.25044  22783449.4774                   22783448.4224
   -879948.85948   -669465.56646  21056420.2114                   21056416.4964
  -1145557.31647   -860706.52345  22179062.7584                   22179060.5824
    181449.66048    138898.63746  20347672.5084                   20347668.3914
 11  8 22 16  1  0.0000000  0  9G03G08G10G16G13G06G19G07G23
    104523.08648     73667.85945  21050207.2194                   21050205.3914
  -1339685.03946  -1023679.46143  24089697.7194                   24089696.8714
   -293055.28946   -219233.36743  23882564.3204                   23882564.1884
    781361.14147    605491.82044  23209548.1094                   23209546.5704
   -788919.97748   -463658.65246  19997224.2814                   19997221.5204
    425304.39147    325634.84445  22789736.0554                   22789734.3404
   -944132.16448   -719478.52746  21044206.2894                   21044202.6524
  -1233789.11747   -929458.55945  22162272.8054                   22162270.8444
    198904.42248    152499.71546  20350994.0394                   20350989.9614
 11  8 22 16  1 30.0000000  0 10G03G08G10G16G11G13G06G19G07G23
    115394.71148     82139.21945  21052275.7664                   21052274.5984
  -1438730.32046  -1100857.57443  24070849.1884                   24070848.9774
   -310886.24246   -233127.67643  23879170.7274                   23879170.9804
    838540.36747    650047.00044  23220429.6804                   23220427.1684
   -172279.01255   -112406.37552  24728860.1644                   24728862.1804
   -827598.71548   -493797.93746  19989864.0944                   19989861.1374
    458733.69947    351683.60245  22796096.9534                   22796095.6524
  -1007783.09848   -769076.66046  21032094.0634                   21032090.2194
  -1322032.68447   -998219.77045  22145480.5864                   22145478.4144
    216859.45348    166490.62546  20354411.2344                   20354407.0394
 11  8 22 16  2  0.0000000  0 10G03G08G10G16G11G13G06G19G07G23
    126808.02348     91032.68445  21054448.0004                   21054445.7854
  -1537883.88746  -1178120.01243  24051981.5314                   24051980.7734
   -328313.17646   -246707.12543  23875854.3674                   23875855.0394
    895693.99247    694582.24644  23231305.5864                   23231303.5314
   -277793.82845   -194625.55542  24708780.3754                   24708784.2384
   -865742.00048   -523520.00046  19982605.7734                   19982602.7114
    492553.68847    378036.79744  22802532.6724                   22802531.2664
  -1070901.30948   -818259.67646  21020083.1644                   21020079.2544
  -1410288.93747  -1066990.87145  22128686.3834                   22128683.7194
    235312.17248    180869.32846  20357922.3284                   20357918.2544
 11  8 22 16  2 30.0000000  0 11G03G08G10G16G11G13G06G19G07G23G28
    138757.92648    100344.26645  21056721.5394                   21056719.6134
  -1637149.05946  -1255469.44943  24033091.3594                   24033091.7194
   -345340.43446   -259975.14843  23872614.2664                   23872615.0784
    952817.04347    739093.65644  23242175.9454                   23242174.0554
   -383509.879 5                  24688664.422
   -903351.57048   -552826.18046  19975448.7734                   19975446.0084
    526759.23047    404690.42244  22809042.0084                   22809041.0204
  -1133488.11748   -867028.61746  21008173.0084                   21008169.6994
  -1498560.17247  -1135773.64545  22111888.3444                   22111886.1134
    254258.53148    195632.69546  20361527.4694                   20361523.6454
   -173673.89856   -113310.64553  24598833.1804                   24598833.9024
 11  8 22 16  3  0.0000000  0 11G03G08G10G16G11G13G06G19G07G23G28
    151248.91848    110077.47345  21059098.6564                   21059097.5084
  -1736519.99246  -1332901.28143  24014181.3754                   24014181.6804
   -361963.93047   -272928.57444  23869451.1644                   23869451.8484
   1009913.69547    783584.49644  23253040.8984                   23253039.1724
   -489419.102 6                  24668511.438
   -940420.86748   -581711.35546  19968394.8444                   19968391.6994
    561354.11747    431647.42645  22815625.1564                   22815624.0634
  -1195536.27348   -915377.82446  20996365.3594                   20996361.6604
  -1586839.97747  -1204563.09445  22095089.5234                   22095087.2774
    273703.22748    210784.37546  20365227.8754                   20365223.6804
   -279350.92646   -195656.30143  24578723.7814                   24578724.5784
 11  8 22 16  3 30.0000000  0 11G03G08G10G16G11G13G06G19G07G23G28
    164274.54348    120227.28545  21061577.5554                   21061575.5704
  -1836001.26246  -1410419.09443  23995251.3754                   23995251.1024
   -378189.95746   -285572.26243  23866364.2424                   23866364.1724
   1066977.64846    828049.86744  23263899.7344                   23263897.9574
   -595524.156 6                  24648319.953
   -976953.41848   -610178.29746  19961442.9694                   19961440.2934
    596331.66847    458902.61744  22822281.0944                   22822279.8914
  -1257049.24648   -963310.00846  20984660.1484                   20984656.4844
  -1675132.41447  -1273362.38745  22078287.8054                   22078285.8324
    293640.12548    226319.58646  20369021.8524                   20369017.7974
   -384855.05946   -277867.23443  24558647.0394                   24558647.7034
 11  8 22 16  4  0.0000000  0 11G03G08G10G16G11G13G06G19G07G23G28
    177840.27048    130797.95745  21064158.8594                   21064157.4494
  -1935585.94546  -1488017.49243  23976300.3674                   23976300.6954
   -394013.17647   -297902.07443  23863352.7194                   23863352.2704
   1124014.19546    872493.89144  23274753.6334                   23274751.7154
   -701815.645 6                  24628093.961
  -1012941.50848   -638220.96146  19954594.5394                   19954591.7114
    631696.87947    486459.90245  22829011.1334                   22829010.0204
  -1318018.03948  -1010818.12946  20973058.2274                   20973054.3754
  -1763429.29347  -1342165.12145  22061485.4924                   22061482.9494
    314075.26648    242243.06346  20372910.2034                   20372906.5904
   -490178.88747   -359937.66843  24538604.7734                   24538604.4144
 11  8 22 16  4 30.0000000  0 11G03G08G10G16G11G13G06G19G07G23G28
    191943.75448    141787.62945  21066842.8204                   21066840.8054
  -2035274.02346  -1565696.50443  23957330.3134                   23957330.4964
   -409435.07447   -309919.18044  23860418.0784                   23860417.7814
   1181021.30546    916914.94144  23285601.8284                   23285599.6334
   -808291.41046   -314805.06653  24607832.2274                   24607830.3554
  -1048384.81648   -665839.16446  19947850.0474                   19947847.1844
    667447.04347    514317.10544  22835814.0784                   22835813.0004
  -1378441.46148  -1057901.31646  20961559.8364                   20961555.9574
  -1851730.76248  -1410971.46145  22044682.4064                   22044680.1524
    335007.08648    258553.51646  20376893.5314                   20376889.8324
   -595322.13746   -441867.47343  24518596.2734                   24518596.4774
 11  8 22 16  5  0.0000000  0 11G03G08G10G16G11G13G06G19G07G23G28
    206585.11348    153196.44545  21069629.1484                   21069627.5354
  -2135064.54746  -1643455.28143  23938341.5864                   23938340.8244
   -424456.74647   -321624.42643  23857559.0004                   23857559.5904
   1237998.48846    961312.68844  23296444.6414                   23296442.6214
   -914947.99646   -397914.03543  24587535.7194                   24587535.5824
  -1083280.69148   -693030.76646  19941209.4694                   19941206.4104
    703581.21947    542473.57044  22842690.0474                   22842689.3874
  -1438316.98848  -1104557.55946  20950166.1724                   20950161.8874
  -1940034.55548  -1479779.59445  22027879.1644                   22027876.3364
    356435.35548    275250.84046  20380971.4064                   20380967.3914
   -700283.29346   -523655.31243  24498623.2734                   24498622.8914
 11  8 22 16  5 30.0000000  0 11G03G08G10G16G11G13G06G19G07G23G28
    221759.40248    165020.52745  21072516.8284                   21072514.9184
  -2234959.75846  -1721295.64143  23919331.6414                   23919331.2154
   -439082.51247   -333021.14544  23854776.9694                   23854776.3404
   1294941.31647   1005683.65644  23307280.0944                   23307278.3714
  -1021786.05146   -481164.34043  24567204.4844                   24567204.1254
  -1117631.18448   -719797.39546  19934672.9694                   19934669.9924
    740094.53147    570925.45744  22849638.5234                   22849637.1414
  -1497645.59448  -1150787.62946  20938876.2114                   20938872.0704
  -2028342.56648  -1548591.02045  22011074.3204                   22011071.6644
    378356.10548    292331.91046  20385143.0004                   20385138.9384
   -805064.56746   -605303.02743  24478682.9614                   24478683.7504
 11  8 22 16  6  0.0000000  0 11G03G08G10G16G11G13G06G19G07G23G28
    237469.54348    177262.14545  21075506.2734                   21075504.5044
  -2334955.42246  -1799214.30543  23900303.4144                   23900302.6214
   -453309.44946   -344107.12943  23852069.0234                   23852069.3634
   1351852.43847   1050029.90644  23318110.1484                   23318108.0864
  -1128798.83246   -564550.82043  24546840.7584                   24546840.5784
  -1151431.18748   -746135.08646  19928240.9774                   19928237.8054
    776989.49647    599674.75844  22856659.7504                   22856658.0084
  -1556421.75048  -1196587.22346  20927691.4774                   20927687.2194
  -2116649.88748  -1617401.90645  21994269.8524                   21994267.7384
    400772.60248    309799.28146  20389408.6174                   20389404.1024
   -909661.20347   -686806.86343  24458779.1644                   24458779.7854
 11  8 22 16  6 30.0000000  0 11G03G08G10G16G11G13G06G19G07G23G28
    253713.51648    189919.74645  21078597.3284                   21078595.6054
  -2435051.87947  -1877211.47343  23881255.0314                   23881254.5314
   -467139.15247   -354883.55143  23849437.8984                   23849437.7154
   1408730.01647   1094350.03944  23328934.0234                   23328931.4924
  -1235984.46947   -648071.98443  24526444.3754                   24526443.8404
  -1184680.16848   -772043.39546  19921913.8984                   19921910.8524
    814263.70347    628719.55944  22863752.2424                   22863751.3284
  -1614644.35548  -1241955.48046  20916611.9384                   20916608.0984
  -2204956.14548  -1686211.97745  21977465.8284                   21977463.3714
    423683.27048    327651.72746  20393768.3834                   20393764.0744
  -1014072.98847   -768166.64543  24438910.3444                   24438910.2814
 11  8 22 16  7  0.0000000  0 11G03G08G10G16G11G13G06G19G07G23G28
    270487.03548    202989.98045  21081789.2424                   21081787.2854
  -2535251.07046  -1955288.70343  23862187.7584                   23862187.0204
   -480576.05947   -365353.91444  23846880.4694                   23846880.3954
   1465570.23847   1138641.05544  23339750.1094                   23339747.8754
  -1343342.92247   -731727.80943  24506013.8594                   24506015.0204
  -1217379.62948   -797523.51646  19915691.5704                   19915688.4144
    851912.39147    658056.16044  22870916.5784                   22870915.8914
  -1672314.44548  -1286893.21546  20905637.8134                   20905633.6844
  -2293262.66447  -1755022.24645  21960661.6484                   21960659.1644
    447083.83648    345885.91046  20398221.3134                   20398217.4844
  -1118301.97346   -849384.03543  24419076.1414                   24419076.0744
 11  8 22 16  7 30.0000000  0 11G03G08G10G16G11G13G06G19G07G23G28
    287798.78148    216479.61745  21085083.8594                   21085082.2704
  -2635542.85247  -2033438.08243  23843102.8364                   23843102.2774
   -493610.74647   -375510.85244  23844400.5004                   23844400.2584
   1522381.98847   1182909.88744  23350560.7344                   23350558.8834
  -1450860.78547   -815507.87543  24485554.0394                   24485554.4454
  -1249518.28548   -822566.64146  19909575.3524                   19909572.6884
    889944.33247    687691.41044  22878154.0394                   22878153.0594
  -1729419.71148  -1331390.82046  20894771.1174                   20894767.2344
  -2381557.80947  -1823823.64545  21943859.7814                   21943857.1484
    470983.90648    364509.31346  20402769.3284                   20402765.1214
  -1222336.76246   -930450.07843  24399279.3834                   24399279.4104
 11  8 22 16  8  0.0000000  0 11G03G08G10G16G11G13G06G19G07G23G28
    305640.75048    230382.43045  21088478.8204                   21088477.4264
  -2735933.82047  -2111664.76644  23823999.2664                   23823998.9414
   -506252.30547   -385361.48044  23841994.3674                   23841994.7504
   1579157.08647   1227150.16844  23361364.9694                   23361363.1414
  -1558542.85946   -899415.89143  24465062.9144                   24465063.2814
  -1281102.13748   -847177.44946  19903565.3204                   19903562.3444
    928350.38347    717618.16044  22885462.6884                   22885461.2154
  -1785965.66048  -1375452.60246  20884010.4614                   20884006.6414
  -2469847.68047  -1892620.93445  21927058.9224                   21927056.3364
    495375.24248    383515.52346  20407410.7664                   20407406.7424
  -1326183.97346  -1011369.93743  24379517.6884                   24379517.7114
 11  8 22 16  8 30.0000000  0 11G03G08G10G16G11G13G06G19G07G23G28
    324002.34848    244690.13345  21091972.8284                   21091971.3834
  -2836431.94547  -2189974.93444  23804875.2504                   23804874.4494
   -518510.83247   -394913.60544  23839661.7894                   23839662.2424
   1635885.32446   1271353.92244  23372159.8364                   23372157.7424
  -1666395.12946   -983456.54743  24444539.3914                   24444539.8204
  -1312138.75848   -871361.83647  19897659.2344                   19897656.5984
    967119.88347    747828.14844  22892840.3284                   22892838.6214
  -1841959.37948  -1419084.07446  20873355.4774                   20873351.7344
  -2558140.04347  -1961420.16046  21910257.1174                   21910255.2464
    520248.19948    402897.02746  20412143.7814                   20412140.0514
  -1429851.71946  -1092149.97743  24359790.1564                   24359790.3094
 11  8 22 16  9  0.0000000  0 11G03G08G10G16G11G13G06G19G07G23G28
    342900.34048    259415.81345  21095569.0704                   21095567.2194
  -2937018.25847  -2268353.81644  23785734.2114                   23785733.5084
   -530369.23447   -404153.96944  23837405.4774                   23837405.2734
   1692583.77346   1315534.47743  23382949.1174                   23382947.3244
  -1774396.57446  -1067613.43043  24423987.7424                   24423987.8444
  -1342608.95747   -895104.86346  19891861.0004                   19891858.1094
   1006269.30547    778334.16044  22900289.5084                   22900289.0314
  -1897381.05948  -1462269.80146  20862808.9454                   20862804.9844
  -2646415.39147  -2030206.12946  21893458.6334                   21893456.7274
    545619.63748    422666.94946  20416972.2584                   20416967.9534
  -1533320.84446  -1172775.22743  24340100.7584                   24340100.4924
 11  8 22 16  9 30.0000000  0 11G03G08G10G16G11G13G06G19G07G23G28
    362326.68448    274553.19145  21099265.7424                   21099264.3794
  -3037699.27747  -2346806.50844  23766575.6804                   23766574.8834
   -541835.30547   -413088.60944  23835223.7814                   23835223.7704
   1749244.61746   1359685.71544  23393731.6484                   23393728.9964
  -1882550.92246  -1151889.46143  24403406.2274                   24403406.7504
  -1372518.28948   -918410.84446  19886169.3444                   19886166.3794
   1045790.33647    809129.73444  22907810.8204                   22907809.5864
  -1952235.44148  -1505013.47346  20852370.2734                   20852366.5704
  -2734678.99247  -2098982.94145  21876662.7974                   21876660.5704
    571482.23448    442819.59446  20421893.8754                   20421889.9344
  -1636597.08246  -1253250.17243  24320448.1564                   24320448.4304
 11  8 22 16 10  0.0000000  0 11G03G08G10G16G11G13G06G19G07G23G28
    382291.33648    290110.03945  21103065.1414                   21103063.8554
  -3138462.73447  -2425323.42644  23747400.2114                   23747399.9414
   -552899.46947   -421710.09044  23833118.2584                   23833118.5394
   1805878.13346   1403815.67643  23404508.7584                   23404506.1994
  -1990844.32046  -1236273.84843  24382798.7344                   24382798.6214
  -1401854.35548   -941270.13346  19880587.1334                   19880583.9104
   1085692.48847    840222.28544  22915403.4224                   22915403.0394
  -2006509.54348  -1547304.98446  20842042.4224                   20842038.7664
  -2822918.41447  -2167740.92245  21859871.2344                   21859869.2894
    597846.23848    463362.94146  20426910.4224                   20426906.4534
  -1739668.19946  -1333565.30543  24300834.1644                   24300834.0824
 11  8 22 16 10 30.0000000  0 11G03G08G10G16G11G13G06G19G07G23G28
   1978198.00848   1533673.63745  21406755.9224                   21406754.3444
  -1663898.94547  -1276312.65244  24028000.6644                   24028000.2664
   1011843.27347    797569.92643  24130879.1254                   24130879.1254
   3437887.30147   2675511.07443  23715070.1884                   23715067.5124
   -523864.08646    -93172.30143  24661955.5394                   24661955.8874
    144790.86748    263907.95346  20174903.8204                   20174901.1524
   2701378.33247   2099198.23444  23222858.3364                   23222857.3164
   -484794.43448   -361552.95346  21131615.2734                   21131611.3984
  -1335723.28948  -1008887.57446  22142875.2734                   22142873.0864
   2200115.59448   1711884.49246  20731812.4064                   20731807.9734
   -267124.14846   -186128.31643  24581049.5314                   24581049.8674
 11  8 22 16 11  0.0000000  0 11G03G08G10G16G11G13G06G19G07G23G28
   1999203.45748   1550041.48845  21410753.3134                   21410751.4774
  -1764857.36747  -1354981.48844  24008788.7424                   24008787.9104
   1001547.62147    789547.28944  24128919.4384                   24128920.4694
   3494431.41446   2719571.37543  23725829.7894                   23725827.5124
   -632458.07846   -177790.89843  24641290.6804                   24641291.4844
    116573.12148    241920.08646  20169534.2664                   20169531.5314
   2742005.65647   2130855.84844  23230589.7584                   23230588.4654
   -537935.19948   -402961.34046  21121502.7584                   21121499.2974
  -1423941.53548  -1077629.04346  22126087.9064                   22126085.7194
   2227447.57448   1733182.10946  20737013.4694                   20737009.6174
   -369814.52346   -266146.75043  24561508.3984                   24561508.5124
 11  8 22 16 11 30.0000000  0 11G03G08G10G16G11G13G06G19G07G23G28
   2020730.62148   1566815.87145  21414849.7424                   21414848.1134
  -1865908.57847  -1433722.64544  23989559.5944                   23989558.8754
    991637.91447    781825.38344  24127033.8674                   24127033.9924
   3550932.72346   2763598.29344  23736581.6174                   23736579.6684
   -741194.60946   -262520.59043  24620598.1804                   24620599.1174
     88919.62948    220371.89846  20164271.8914                   20164269.3674
   2782996.44547   2162796.68444  23238390.0944                   23238389.4574
   -590503.05948   -443923.30546  21111499.3054                   21111495.8324
  -1512143.98447  -1146358.21945  22109303.4844                   22109301.6134
   2255265.49648   1754858.38746  20742307.0784                   20742303.1914
   -472309.72346   -346013.10243  24542004.0004                   24542003.8204
 11  8 22 16 12  0.0000000  0 11G03G08G10G16G11G13G06G19G07G23G28
   2042779.36348   1583996.68845  21419045.3134                   21419044.0744
  -1967050.52747  -1512534.49644  23970312.6334                   23970312.2384
    982114.13347    774404.23044  24125221.8284                   24125221.5044
   3607391.62946   2807592.19943  23747325.9694                   23747323.3244
   -850069.19146   -347357.83643  24599879.7664                   24599880.0984
     61832.87548    199265.32446  20159117.6644                   20159114.5634
   2824350.65247   2195020.69544  23246259.4614                   23246258.6294
   -642494.95348   -484436.46946  21101605.7274                   21101602.3404
  -1600327.15647  -1215072.36746  22092522.8524                   22092520.5124
   2283569.82448   1776913.67646  20747693.0634                   20747689.2894
   -574607.32446   -425725.45343  24522537.2034                   24522537.2854
 11  8 22 16 12 30.0000000  0 11G03G08G10G16G11G13G06G19G07G23G28
   2065343.23048   1601578.90245  21423339.4454                   21423337.6804
  -2068287.71547  -1591420.56244  23951048.1484                   23951047.4064
    972969.59846    767278.54744  24123481.4304                   24123481.4924
   3663802.31646   2851548.51243  23758059.8834                   23758058.3524
   -959083.98446   -432304.34843  24579135.7194                   24579135.5864
     35308.86748    178597.26246  20154070.1094                   20154067.5044
   2866061.10947   2227522.30144  23254196.9384                   23254196.1724
   -693914.20348   -524503.41046  21091821.1954                   21091817.5434
  -1688495.05947  -1283774.62146  22075745.1414                   22075742.7304
   2312354.45748   1799343.23446  20753170.4844                   20753166.9454
   -676711.62546   -505287.23043  24503107.8984                   24503107.9304
 11  8 22 16 13  0.0000000  0 11G03G08G10G16G11G13G06G19G07G23G28
   2088429.39847   1619568.10945  21427732.7274                   21427731.2704
  -2169610.84047  -1670373.58244  23931766.6724                   23931765.9144
    964211.78546    760454.25443  24121814.6954                   24121814.6994
   3720172.37146   2895473.18444  23768787.0944                   23768785.1604
  -1068227.26646   -517350.97343  24558366.4534                   24558366.6454
      9357.30948    158375.24246  20149131.6484                   20149128.5124
   2908134.99647   2260307.10244  23262203.2504                   23262202.6604
   -744750.93048   -564116.45346  21082147.3594                   21082143.2624
  -1776637.72347  -1352457.19946  22058971.8364                   22058969.8714
   2341626.74248   1822152.77346  20758741.2274                   20758737.0234
   -778613.08646   -584690.93743  24483716.4304                   24483716.7384
 11  8 22 16 13 30.0000000  0 11G03G08G10G16G11G13G06G19G07G23G28
   2112035.82047   1637962.70345  21432224.5944                   21432223.3554
  -2271019.50447  -1749393.25044  23912468.9224                   23912468.8984
    955838.54346    753929.59044  24120221.7894                   24120221.7034
   3776500.25846   2939364.98044  23779505.8364                   23779503.7504
  -1177496.49646   -602495.77643  24537573.1254                   24537573.1604
    -16021.52748    138599.51246  20144302.0554                   20144299.3054
   2950569.78147   2293373.11744  23270278.0164                   23270277.1374
   -795003.92248   -603274.63346  21072584.2894                   21072580.5514
  -1864754.01247  -1421119.22346  22042204.1414                   22042201.9414
   2371385.14548   1845341.10946  20764403.9454                   20764399.9924
   -880311.63346   -663936.50443  24464363.6884                   24464363.6524
 11  8 22 16 14  0.0000000  0 11G03G08G10G16G11G13G06G19G07G23G28
   2136142.79347   1656747.32845  21436811.8594                   21436810.7464
  -2372530.77747  -1828492.90244  23893151.9454                   23893152.0744
    947830.92246    747689.82843  24118697.6414                   24118697.9924
   3832767.25447   2983209.33244  23790213.3594                   23790211.4964
  -1286906.98046   -687750.66443  24516752.7974                   24516752.4264
    -40844.11348    119257.21946  20139578.6334                   20139575.7114
   2993346.09447   2326705.25844  23278418.8284                   23278417.6294
   -844689.46148   -641990.63746  21063129.6174                   21063125.6094
  -1952860.37948  -1489773.52346  22025438.0234                   22025435.8324
   2401610.59448   1868893.37546  20770155.5314                   20770151.4884
   -981824.32846   -743037.24643  24445046.1174                   24445046.9414
 11  8 22 16 14 30.0000000  0 11G03G08G10G16G11G13G06G19G07G23G28
   2160760.56347   1675929.97745  21441496.4064                   21441496.2194
  -2474132.82447  -1907663.25843  23873817.8914                   23873817.3284
    940198.87146    741742.76644  24117245.7734                   24117245.8834
   3888983.50047   3027014.15244  23800911.1094                   23800909.2114
  -1396443.90646   -773104.10243  24495908.4384                   24495909.0084
    -65098.92248    100357.34846  20134962.8674                   20134960.0634
   3036473.22747   2360310.76244  23286625.3204                   23286623.9454
   -893794.75448   -680254.51646  21053785.1254                   21053781.5234
  -2040943.97747  -1558410.07846  22008676.4694                   22008673.6054
   2432313.47748   1892817.67246  20775998.1254                   20775994.0664
  -1083138.67246   -821983.46543  24425766.8444                   24425767.4494
 11  8 22 16 15  0.0000000  0 11G03G08G10G16G11G13G06G19G07G23G28
   2185892.44947   1695513.24245  21446278.8284                   21446277.4024
  -2575819.70347  -1986899.74244  23854467.2894                   23854466.9534
    932945.55546    736090.76244  24115865.5634                   24115865.0704
   3945153.21147   3070782.69544  23811599.7664                   23811597.6254
  -1506099.44146   -858549.94943  24475041.8054                   24475041.8524
    -88779.90248     81904.63346  20130456.1334                   20130453.9694
   3079954.71947   2394192.38344  23294899.3984                   23294898.4184
   -942313.34048   -718061.20746  21044552.0314                   21044548.2774
  -2128998.53148  -1627024.00846  21991919.8284                   21991917.8244
   2463497.60948   1917116.96146  20781932.2034                   20781928.2114
  -1184249.19946   -900770.85943  24406526.6094                   24406526.7154
 11  8 22 16 15 30.0000000  0 11G03G08G10G16G11G13G06G19G07G23G28
   2211537.79747   1715496.61345  21451159.0004                   21451157.7664
  -2677589.93747  -2066201.18744  23835101.6724                   23835100.5664
    926070.47346    730733.50044  24114556.9224                   24114557.2584
   4001276.18447   3114514.81644  23822279.6024                   23822277.5704
  -1615870.14846   -944085.51643  24454153.0634                   24454153.1524
   -111885.23048     63900.45746  20126059.9534                   20126057.4654
   3123789.14147   2428349.00844  23303241.0474                   23303240.3404
   -990243.11348   -755409.07846  21035431.3524                   21035427.6134
  -2217021.76248  -1695613.52046  21975169.7344                   21975167.2274
   2495162.21148   1941790.64146  20787957.9144                   20787954.2734
  -1285154.55147   -979398.39843  24387324.6644                   24387325.0084
 11  8 22 16 16  0.0000000  0 11G03G08G10G16G11G13G06G19G07G23G28
   2237685.82447   1735871.68845  21456134.9924                   21456133.1954
  -2779451.19947  -2145573.54344  23815717.8524                   23815716.9304
    919563.41446    725663.03943  24113318.7034                   24113319.0594
   4057342.99647   3158203.17644  23832948.6884                   23832946.5474
  -1725761.54746  -1029715.11343  24433241.2344                   24433241.7384
   -134422.95348     46338.57447  20121771.3754                   20121768.7894
   3167966.05147   2462772.52344  23311647.2814                   23311646.9804
  -1037591.34448   -792303.80546  21026421.2584                   21026417.3204
  -2305021.01648  -1764184.35946  21958423.8754                   21958421.4384
   2527297.57848   1966831.14546  20794073.0704                   20794069.1134
  -1385862.46546  -1057872.05543  24368160.3984                   24368160.5634
 11  8 22 16 16 30.0000000  0 11G03G08G10G16G11G13G06G19G07G23G28
   2264345.30147   1756645.28945  21461208.0634                   21461206.9384
  -2881392.91447  -2225008.60943  23796318.7664                   23796317.8404
    913433.13346    720886.13744  24112152.4694                   24112152.3094
   4113362.70346   3201854.83644  23843608.9454                   23843606.6604
  -1835760.40246  -1115428.47743  24412309.5394                   24412309.3834
   -156381.91448     29227.68846  20117592.6724                   20117589.8794
   3212493.72747   2497469.35944  23320121.1954                   23320119.7114
  -1084346.53148   -828736.41846  21017524.3364                   21017520.3554
  -2392984.69948  -1832727.48046  21941685.1174                   21941682.7814
   2559912.60248   1992245.42246  20800279.5314                   20800275.8014
  -1486362.24247  -1136183.55143  24349036.3674                   24349036.7304
 11  8 22 16 17  0.0000000  0 11G03G08G10G16G11G13G06G19G07G23G28
   2291511.48447   1777813.71945  21466377.5944                   21466376.7424
  -2983417.40247  -2304508.16043  23776903.4774                   23776903.0204
    907674.80146    716399.07844  24111056.5634                   24111056.7114
   4169331.37946   3245466.72344  23854259.6174                   23854257.4264
  -1945866.77346  -1201225.63343  24391356.3984                   24391356.7854
   -177764.28548     12566.08646  20113523.6334                   20113521.1454
   3257367.28147   2532435.69144  23328660.3594                   23328659.1994
  -1130510.48848   -864708.33646  21008739.8524                   21008736.0864
  -2480914.12948  -1901243.90646  21924952.6644                   21924950.4064
   2593002.89848   2018030.03546  20806576.8284                   20806572.5124
  -1586656.07847  -1214334.55543  24329950.7664                   24329950.4694
 11  8 22 16 17 30.0000000  0 11G03G08G10G16G11G13G06G19G07G23G28
   2319185.61347   1799377.96545  21471643.9924                   21471642.3834
  -3085520.77346  -2384069.17243  23757474.8134                   23757473.4694
    902290.23046    712203.25044  24110031.9844                   24110032.0394
   4225251.32446   3289040.64543  23864900.5704                   23864898.6914
  -2056074.31646  -1287101.57043  24370384.2344                   24370384.6804
   -198566.53548     -3643.47746  20109565.1174                   20109562.2854
   3302588.18047   2567672.71144  23337266.0864                   23337264.4454
  -1176078.64148   -900215.98846  21000068.2894                   21000064.3204
  -2568804.77748  -1969730.11746  21908227.3914                   21908224.8874
   2626570.36748   2044186.46946  20812964.1884                   20812960.1524
  -1686739.92247  -1292321.93743  24310906.0474                   24310905.1524
 11  8 22 16 18  0.0000000  0 11G03G08G10G16G11G13G06G19G07G23G28
   2347354.38347   1821327.63345  21477004.3834                   21477002.9774
  -3187714.43046  -2463700.56243  23738027.1414                   23738026.8554
    897266.09446    708288.28144  24109075.8284                   24109075.8984
   4281109.76646   3332566.63743  23875530.3754                   23875528.2544
  -2166392.30946  -1373063.57843  24349392.3444                   24349391.7504
   -218799.93748    -19409.78146  20105714.7194                   20105712.1684
   3348142.40247   2603169.46144  23345934.0234                   23345933.4534
  -1221061.66448   -935267.69146  20991508.2504                   20991504.4844
  -2656667.21148  -2038194.34045  21891507.5554                   21891505.3484
   2660601.73448   2070704.37946  20819440.4224                   20819436.2194
  -1786625.12946  -1370154.49643  24291898.1024                   24291897.4694
 11  8 22 16 18 30.0000000  0 11G03G08G10G16G11G13G06G19G07G23G28
   2376028.58247   1843671.13745  21482460.6644                   21482459.5434
  -3289984.63747  -2543391.60243  23718565.5394                   23718565.5664
    892613.00047    704662.44144  24108191.0944                   24108191.4224
   4336918.30146   3376053.74243  23886150.6484                   23886148.1764
  -2276804.89846  -1459099.29343  24328381.8674                   24328381.0514
   -238451.21148    -34722.47346  20101974.9694                   20101972.8794
   3394040.76247   2638934.35244  23354668.2424                   23354667.7344
  -1265445.81248   -969852.75046  20983062.3054                   20983058.7854
  -2744487.42647  -2106625.68046  21874795.9774                   21874793.7624
   2695108.50048   2097592.73446  20826006.5634                   20826002.6764
  -1886298.48447  -1447821.98843  24272930.8754                   24272930.2974
 11  8 22 16 19  0.0000000  0 11G03G08G10G16G11G13G06G19G07G23G28
   2405197.03547   1866399.78145  21488011.6954                   21488010.2894
  -3392339.70347  -2623148.75044  23699088.9064                   23699087.8554
    888320.25447    701317.39144  24107373.6414                   24107373.8524
   4392666.52346   3419493.85544  23896758.6414                   23896757.2894
  -2387318.48447  -1545213.72743  24307351.3834                   24307351.0314
   -257528.96148    -49588.26646  20098344.8594                   20098342.2974
   3440271.88747   2674958.56644  23363466.1174                   23363464.8134
  -1309239.19148  -1003977.46146  20974728.9694                   20974724.8874
  -2832273.09447  -2175030.09046  21858091.0234                   21858088.5824
   2730079.75048   2124843.02046  20832661.4614                   20832657.5164
  -1985768.93047  -1525331.37543  24254002.1484                   24254002.0314
 11  8 22 16 19 30.0000000  0 11G03G08G10G16G11G13G06G19G07G23G28
   2434864.94147   1889517.60945  21493656.8054                   21493655.0984
  -3494772.02047  -2702966.09044  23679596.6484                   23679595.0004
    884393.27047    698257.34844  24106626.7504                   24106627.1644
   4448360.71946   3462891.84843  23907357.2664                   23907355.7814
  -2497923.08646  -1631399.09443  24286303.8204                   24286303.0474
   -276025.52048    -64001.18446  20094825.5164                   20094822.4964
   3486840.86347   2711246.03944  23372327.5474                   23372326.8914
  -1352433.78948  -1037635.59446  20966509.0474                   20966505.3794
  -2920015.60247  -2243400.86746  21841394.3284                   21841392.1644
   2765520.59048   2152459.21546  20839406.0084                   20839401.9344
  -2085028.67247  -1602676.57443  24235113.8364                   24235113.0594
 11  8 22 16 20  0.0000000  0 11G03G08G10G16G11G13G06G19G07G23G28
   2465041.75847   1913031.99645  21499399.6414                   21499397.5744
  -3597269.53147  -2782834.25044  23660091.5554                   23660090.5514
    880841.81346    695489.91044  24105950.7344                   24105951.5234
   4504011.46546   3506256.01244  23917947.2504                   23917945.5514
  -2608604.41446  -1717644.20343  24265241.7814                   24265241.3364
   -293929.24248    -77952.15646  20091418.0634                   20091415.6484
   3533757.30947   2747804.26644  23381255.5164                   23381254.9224
  -1395017.04348  -1070817.34046  20958405.4224                   20958401.5944
  -3007702.11747  -2311728.00846  21824708.2194                   21824706.0664
   2801441.59448   2180449.57446  20846241.3754                   20846237.2344
  -2184065.63746  -1679848.19543  24216267.6954                   24216267.3554
 11  8 22 16 20 30.0000000  0 11G03G08G10G16G11G13G06G19G07G23G28
   2495723.03147   1936939.46145  21505238.0234                   21505236.1054
  -3699834.27747  -2862754.80544  23640573.9534                   23640572.9494
    877661.32047    693011.54344  24105345.2344                   24105345.9264
   4559614.96946   3549583.36343  23928528.4304                   23928526.7034
  -2719361.68446  -1803948.48843  24244165.2734                   24244164.6374
   -311241.82048    -91442.50046  20088123.8054                   20088121.3324
   3581016.41847   2784629.50444  23390249.1564                   23390247.5594
  -1436990.50048  -1103523.93046  20950418.3594                   20950414.3754
  -3095334.10248  -2380012.65646  21808032.0784                   21808029.9654
   2837838.36348   2208810.65646  20853167.3834                   20853163.4224
  -2282882.03146  -1756847.93743  24197463.2424                   24197462.4144
 11  8 22 16 21  0.0000000  0 11G03G08G10G16G11G13G06G19G07G23G28
   2526900.48848   1961233.55945  21511170.9924                   21511170.0474
  -3802471.62947  -2942731.91844  23621042.8754                   23621041.8204
    874843.66847    690815.92244  24104809.4304                   24104809.9964
   4615164.21946   3592868.42644  23939099.2194                   23939097.5434
  -2830198.55146  -1890314.79743  24223073.5704                   24223073.4264
   -327969.57048   -104477.12546  20084940.6724                   20084937.8714
   3628609.92647   2821715.32044  23399305.5314                   23399304.3054
  -1478359.42648  -1135759.44546  20942545.9694                   20942542.6954
  -3182916.13748  -2448258.38346  21791365.9144                   21791363.6094
   2874703.02048   2237536.32446  20860182.6174                   20860178.5634
  -2381483.73046  -1833680.37543  24178700.0704                   24178699.6134
 11  8 22 16 21 30.0000000  0 11G03G08G10G16G11G13G06G19G07G23G28
   2558573.58247   1985913.85545  21517198.3984                   21517196.8594
  -3905179.74247  -3022764.19943  23601498.3594                   23601497.4064
    872388.52346    688902.75844  24104342.1254                   24104342.8834
   4670659.43846   3636111.39143  23949659.6094                   23949658.2704
  -2941110.87146  -1976739.93043  24201967.6564                   24201967.0274
   -344110.44148   -117054.43446  20081869.1024                   20081866.5004
   3676536.99247   2859061.03544  23408426.3754                   23408425.4344
  -1519121.81648  -1167522.34446  20934789.1804                   20934785.2114
  -3270445.53548  -2516463.10246  21774709.5944                   21774707.5394
   2912035.10548   2266626.22346  20867286.5944                   20867282.4654
  -2479868.92646  -1910344.10543  24159977.9064                   24159977.0084
 11  8 22 16 22  0.0000000  0 11G03G08G10G16G11G13G06G19G07G23G28
   2590749.20748   2010985.73845  21523321.0164                   21523319.5164
  -4007949.02747  -3102844.10244  23581941.7504                   23581941.1564
    870302.69146    687277.39144  24103945.3284                   24103945.4694
   4726108.60246   3679318.45343  23960211.1094                   23960209.4224
  -3052086.53546  -2063214.39843  24180850.1414                   24180848.9344
   -359655.48848   -129167.47746  20078911.0084                   20078908.1454
   3724804.61747   2896672.15244  23417611.2584                   23417609.9494
  -1559267.75448  -1198804.87946  20927149.7734                   20927146.2034
  -3357912.13348  -2584618.88746  21758065.7894                   21758063.4614
   2949842.36348   2296086.38346  20874481.1254                   20874477.0864
  -2578028.13346  -1986831.76643  24141299.4384                   24141298.3754
 11  8 22 16 22 30.0000000  0 11G03G08G10G16G11G13G06G19G07G23G28
   2623425.95348   2036448.10545  21529539.2194                   21529538.0004
  -4110778.02046  -3182970.56644  23562373.7424                   23562373.4654
    868585.39546    685939.17643  24103618.4144                   24103618.8014
   4781511.54746   3722489.49243  23970753.6884                   23970752.0274
  -3163122.04747  -2149735.49643  24159720.6724                   24159720.1484
   -374603.83248   -140815.55546  20076066.3134                   20076063.7504
   3773411.16047   2934547.33244  23426860.1884                   23426859.6724
  -1598795.41448  -1229605.63746  20919628.0634                   20919624.2504
  -3445313.81648  -2652724.08646  21741433.3984                   21741431.3244
   2988123.73448   2325915.98446  20881765.8524                   20881762.1134
  -2675960.24246  -2063142.43443  24122662.7894                   24122662.4064
 11  8 22 16 23  0.0000000  0 11G03G08G10G16G11G13G06G19G07G23G28
   2656594.21148   2062293.46545  21535851.0864                   21535849.7624
  -4213673.85247  -3263149.09844  23542793.6884                   23542793.1804
    867226.87146    684880.52043  24103360.2424                   24103360.4654
   4836859.55947   3765617.73843  23981286.7274                   23981285.0864
  -3274222.26647  -2236307.01243  24138578.3204                   24138577.9024
   -388962.71148   -152004.30946  20073333.6414                   20073331.5234
   3822346.94946   2972679.09044  23436172.8984                   23436172.1724
  -1637712.27748  -1259930.45746  20912222.1254                   20912218.5274
  -3532656.70348  -2720783.46946  21724812.4064                   21724810.5434
   3026869.73048   2356107.62946  20889138.8284                   20889135.2974
  -2773672.90246  -2139282.13343  24104068.6334                   24104067.7624
 11  8 22 16 23 30.0000000  0 11G03G08G10G16G11G13G06G19G07G23G28
   2690245.62547   2088515.33245  21542254.4924                   21542253.1564
  -4316641.59847  -3343383.64544  23523199.1644                   23523198.9924
    866219.29346    684095.34443  24103168.1724                   24103168.8324
   4892145.59446   3808697.68844  23991807.3524                   23991805.3834
  -3385390.22347  -2322931.34043  24117424.2814                   24117423.3204
   -402737.78948   -162738.14846  20070713.0004                   20070710.0004
   3871603.78146   3011060.98444  23445546.0474                   23445545.0944
  -1676023.35248  -1289783.22346  20904932.0944                   20904928.0274
  -3619945.57448  -2788800.74646  21708202.1024                   21708199.7384
   3066072.65248   2386655.32846  20896599.0704                   20896595.1954
  -2871171.69946  -2215255.14143  24085515.1484                   24085514.4884
 11  8 22 16 24  0.0000000  0 11G03G08G10G16G11G13G06G19G07G23G28
   2724383.52047   2115116.24645  21548750.8134                   21548749.3834
  -4419675.31647  -3423669.62144  23503592.1954                   23503592.0984
    865565.52046    683585.82443  24103044.3134                   24103044.3754
   4947373.88346   3851732.64543  24002316.8914                   24002315.1454
  -3496617.96947  -2409602.24643  24096257.9454                   24096257.7584
   -415924.27348   -173013.34846  20068203.2034                   20068200.8754
   3921184.47346   3049695.23844  23454981.0314                   23454980.1294
  -1713722.87948  -1319159.47346  20897758.1954                   20897754.0824
  -3707173.99648  -2856770.92646  21691602.8674                   21691600.4574
   3105735.62948   2417561.49646  20904146.5634                   20904143.0744
  -2968450.69146  -2291056.89743  24067003.9534                   24067003.0984
 11  8 22 16 24 30.0000000  0 11G03G08G10G16G11G13G06G19G07G23G28
   2759006.05147   2142094.81345  21555339.3594                   21555337.9574
  -4522774.53547  -3504006.62544  23483973.6254                   23483972.5744
    865264.31346    683351.06643  24102986.6174                   24102986.8634
   5002543.83646   3894722.16043  24012815.2974                   24012813.7034
  -3607902.00846  -2496317.02343  24075081.3054                   24075080.7894
   -428521.43748   -182829.33646  20065806.1254                   20065804.0904
   3971087.36746   3088580.53544  23464477.5704                   23464476.5234
  -1750809.85948  -1348058.40246  20890700.2424                   20890696.2974
  -3794339.91048  -2924692.40246  21675015.7504                   21675013.5354
   3145857.46148   2448825.21946  20911781.5944                   20911777.7814
  -3065509.31246  -2366686.93043  24048534.1254                   24048533.3244
 11  8 22 16 25  0.0000000  0 11G03G08G10G16G11G13G06G19G07G23G28
   2794119.77747   2169456.11745  21562021.1174                   21562019.7114
  -4625929.37147  -3584386.98444  23464344.1334                   23464343.0044
    865322.55546    683396.38343  24102997.8834                   24102999.0984
   5057663.46946   3937672.43843  24023304.4454                   24023303.2234
  -3719230.66046  -2583066.55543  24053895.7344                   24053895.5634
   -440520.01248   -192178.88746  20063522.7424                   20063520.1374
   4021319.30546   3127722.24244  23474036.3524                   23474035.0314
  -1787274.55948  -1376472.44546  20883761.5234                   20883757.5354
  -3881433.05548  -2992557.17246  21658442.4144                   21658440.4024
   3186445.35548   2480452.10546  20919505.4614                   20919501.5004
  -3162338.65646  -2442138.31243  24030107.6884                   24030107.9224
 11  8 22 16 25 30.0000000  0 11G03G08G10G16G11G13G06G19G07G23G28
   2829707.63747   2197186.88745  21568792.9844                   21568791.8794
  -4729154.22747  -3664821.89844  23444700.6334                   23444699.9534
    865722.80146    683708.18443  24103074.3364                   24103075.2154
   5112716.57446   3980570.87943  24033780.6954                   24033778.8444
  -3830616.10246  -2669860.35543  24032700.3134                   24032699.7894
   -451935.39848   -201074.01646  20061350.8054                   20061348.4804
   4071862.67646   3167106.63744  23483654.7194                   23483653.2704
  -1823131.68448  -1404413.06246  20876938.1414                   20876934.2234
  -3968467.26648  -3060376.01646  21641880.6484                   21641878.1254
   3227482.37548   2512428.96146  20927314.4774                   20927310.7464
  -3258953.27046  -2517422.35943  24011722.4924                   24011722.6764
 11  8 22 16 26  0.0000000  0 11G03G08G10G16G11G13G06G19G07G23G28
   2865782.21947   2225296.90645  21575658.3674                   21575657.1764
  -4832433.41447  -3745299.15244  23425047.2894                   23425046.5664
    866477.99246    684296.58243  24103218.3914                   24103219.1214
   5167716.94146   4023428.24643  24044246.8054                   24044245.0004
  -3942040.44946  -2756684.44943  24011496.2194                   24011496.3794
   -462752.53548   -209502.97746  20059292.2894                   20059289.6334
   4122730.31646   3206743.68444  23493334.1174                   23493333.0084
  -1858365.59448  -1431868.05546  20870233.4924                   20870229.5944
  -4055426.34848  -3128136.32046  21625332.6884                   21625330.4964
   3268981.28948   2544765.73046  20935211.4064                   20935207.8484
  -3355338.05546  -2592527.31243  23993381.6174                   23993381.0474
 11  8 22 16 26 30.0000000  0 11G03G08G10G16G11G13G06G19G07G23G28
   2902337.13747   2253781.22345  21582614.7734                   21582612.9414
  -4935770.44146  -3825821.47344  23405382.6884                   23405381.9694
    867582.07846    685156.84043  24103427.6254                   24103428.4574
   5222659.61746   4066240.63343  24054701.9614                   24054701.1524
  -4053505.36346  -2843540.15243  23990285.7424                   23990285.5634
   -472975.62948   -217469.03546  20057347.3674                   20057344.5164
   4173915.71546   3246628.36344  23503073.3364                   23503073.4454
  -1892980.37148  -1458840.61346  20863646.4064                   20863642.4774
  -4142313.16048  -3195840.31246  21608798.3204                   21608796.0864
   3310936.26248   2577457.88346  20943195.3914                   20943191.3204
  -3451497.05146  -2667456.35943  23975083.2344                   23975082.9694
 11  8 22 16 27  0.0000000  0 11G03G08G10G16G11G13G06G19G07G23G28
   2939357.29348   2282628.07445  21589659.0634                   21589657.8754
  -5039177.29747  -3906398.19144  23385705.0084                   23385704.6604
    869020.19546    686277.37943  24103701.3754                   24103702.4384
   5277530.92646   4108997.41843  24065143.8364                   24065142.1804
  -4165020.22346  -2930434.78943  23969065.7584                   23969065.1024
   -482617.35548   -224982.09446  20055512.1644                   20055509.7504
   4225404.07446   3286749.09843  23512872.4844                   23512871.4224
  -1926987.91848  -1485340.01246  20857175.0084                   20857171.0434
  -4229138.88748  -3263496.70746  21592276.2194                   21592273.9964
   3353332.48048   2610493.85946  20951262.9384                   20951259.3014
  -3547442.75046  -2742219.18744  23956825.0474                   23956825.1374
 11  8 22 16 27 30.0000000  0 11G03G08G10G16G11G13G06G19G07G23G28
   2976845.33648   2311839.51645  21596792.9064                   21596791.2704
  -5142648.96547  -3987025.41444  23366014.5474                   23366014.6254
    870794.86346    687660.16843  24104039.3054                   24104039.4844
   5332334.91046   4151701.77343  24075573.5474                   24075571.0664
  -4276577.51647  -3017362.48043  23947836.4694                   23947835.8364
   -491673.30548   -232038.69546  20053788.9454                   20053786.3594
   4277197.80246   3327107.80743  23522728.0704                   23522727.6884
  -1960383.05148  -1511362.18746  20850819.8674                   20850816.1214
  -4315897.17248  -3331100.55146  21575766.5864                   21575764.1484
   3396172.86348   2643875.93046  20959415.4224                   20959411.7704
  -3643170.37946  -2816812.10544  23938609.1174                   23938608.0554
 11  8 22 16 28  0.0000000  0 11G03G08G10G16G11G13G06G19G07G23G28
   3014797.33648   2341412.47745  21604014.7584                   21604013.2504
  -5246186.10547  -4067703.65644  23346312.6334                   23346311.8284
    872902.46146    689302.40242  24104440.4534                   24104441.3874
   5387068.40646   4194351.19943  24085988.3204                   24085986.7074
  -4388176.19947  -3104322.44143  23926599.5944                   23926599.1804
   -500145.15648   -238640.14546  20052177.2114                   20052174.4264
   4329292.84446   3367701.26243  23532641.5864                   23532640.8284
  -1993167.06248  -1536908.18046  20844581.2894                   20844578.1334
  -4402588.51648  -3398652.23046  21559269.8204                   21559267.4924
   3439453.67248   2677601.20346  20967651.4384                   20967647.9224
  -3738681.10546  -2891236.00844  23920433.4844                   23920433.1684
 11  8 22 16 28 30.0000000  0 11G03G08G10G16G11G13G06G19G07G23G28
   3053221.31648   2371353.21945  21611326.5944                   21611325.5904
  -5349777.39547  -4148424.10944  23326599.8834                   23326598.9804
    875351.52346    691210.69142  24104907.1174                   24104907.6134
   5441741.49246   4236953.53943  24096392.4534                   24096390.7344
  -4499802.18047  -3191303.66843  23905357.9774                   23905357.4964
   -508022.42648   -244778.30146  20050678.0394                   20050675.6374
   4381697.66046   3408536.14544  23542614.0394                   23542613.5634
  -2025329.21148  -1561969.60246  20838461.0084                   20838457.3874
  -4489200.77348  -3466142.28546  21542788.1954                   21542785.4304
   3483183.41848   2711676.28946  20975972.7344                   20975969.0784
  -3833964.27347  -2965482.59844  23902302.1254                   23902301.1414
 11  8 22 16 29  0.0000000  0 11G03G08G10G16G11G13G06G19G07G23G28
   3092105.99248   2401652.93445  21618726.1484                   21618724.9304
  -5453431.22347  -4229193.30144  23306875.0314                   23306874.4884
    878130.91046    693376.37142  24105434.9924                   24105436.1174
   5496343.90646   4279500.80943  24106782.9144                   24106781.5004
  -4611461.99647  -3278311.24243  23884109.8204                   23884109.2584
   -515314.39148   -250460.37546  20049290.5004                   20049287.5234
   4434400.80147   3449603.46944  23552643.2734                   23552642.9574
  -2056878.11748  -1586553.17246  20832457.7034                   20832454.2344
  -4575741.73448  -3533576.79746  21526319.5784                   21526317.4224
   3527351.37548   2746092.83646  20984377.6804                   20984374.1174
  -3929028.71546  -3039558.75844  23884211.0784                   23884210.9304
 11  8 22 16 29 30.0000000  0 11G03G08G10G16G11G13G06G19G07G23G28
   3131447.90648   2432308.93845  21626212.7194                   21626211.9104
  -5557148.48047  -4310011.89544  23287138.3594                   23287137.8014
    881237.06346    695796.66443  24106026.9844                   24106026.9694
   5550873.35546   4321991.23443  24117159.4304                   24117158.1024
  -4723154.34447  -3365344.17243  23862854.8914                   23862854.8054
   -522022.71948   -255687.66446  20048013.5944                   20048011.0314
   4487398.57047   3490900.39544  23562728.1254                   23562727.9304
  -2087814.87148  -1610659.73446  20826570.5704                   20826566.7504
  -4662211.32448  -3600955.68746  21509865.3054                   21509862.6294
   3571954.15648   2780848.20746  20992865.4454                   20992861.6374
  -4023875.96546  -3113465.66044  23866162.5704                   23866162.4064
 11  8 22 16 30  0.0000000  0 11G03G08G10G16G11G13G06G19G07G23G28
   3171249.11347   2463322.83645  21633786.8754                   21633785.3524
  -5660923.50047  -4390875.51244  23267390.9064                   23267389.9884
    884672.44546    698473.52743  24106680.1954                   24106680.8674
   5605333.76246   4364427.87143  24127522.9224                   24127521.4144
  -4834871.38347  -3452396.37543  23841596.1414                   23841595.6054
   -528142.87948   -260456.64546  20046849.4534                   20046846.5314
   4540693.37546   3532428.75444  23572870.4454                   23572869.3954
  -2118134.54348  -1634285.44546  20820800.8054                   20820796.9694
  -4748603.58648  -3668274.32446  21493425.4064                   21493423.1094
   3616994.06348   2815944.20346  21001436.3284                   21001432.4844
  -4118500.93747  -3187199.39144  23848156.3524                   23848155.4964
 11  8 22 16 30 30.0000000  0 11G03G08G10G16G11G13G06G19G07G23G28
   3211500.37148   2494687.43445  21641446.4774                   21641444.9964
  -5764762.68447  -4471789.12544  23247630.7974                   23247629.8794
    888427.37946    701399.36343  24107394.7424                   24107395.5274
   5659717.05546   4406804.40643  24137872.3754                   24137870.8134
  -4946617.35247  -3539471.07843  23820331.8444                   23820331.3404
   -533682.41048   -264773.18446  20045795.2504                   20045792.4654
   4594275.78947   3574181.25044  23583066.3594                   23583066.1294
  -2147843.84048  -1657435.54346  20815147.4224                   20815143.9144
  -4834923.96548  -3735536.94946  21476999.1174                   21476996.7274
   3662462.12948   2851373.82446  21010088.3134                   21010084.9924
  -4212910.64547  -3260765.35544  23830190.8284                   23830189.8874
 11  8 22 16 31  0.0000000  0 11G03G08G10G16G11G13G06G19G07G23G28
   3252204.34848   2526404.77745  21649192.0084                   21649190.5204
  -5868660.10247  -4552748.12944  23227859.1564                   23227858.6954
    892505.30546    704576.91843  24108170.8444                   24108171.7774
   5714027.58246   4449124.23843  24148207.1254                   24148205.8984
  -5058383.87547  -3626561.82843  23799062.7034                   23799062.4414
   -538636.16448   -268633.28546  20044852.1804                   20044849.6294
   4648148.94546   3616160.29344  23593318.8134                   23593318.2114
  -2176937.30948  -1680105.77746  20809610.9144                   20809607.3094
  -4921165.84448  -3802738.40646  21460587.9304                   21460585.6254
   3708361.39148   2887139.43846  21018822.9694                   21018819.4694
  -4307099.80947  -3334159.45344  23812266.7734                   23812266.0274
 11  8 22 16 31 30.0000000  0 11G03G08G10G16G11G13G06G19G07G23G28
   3293346.10547   2558463.27745  21657021.4614                   21657019.8634
  -5972626.99247  -4633761.26244  23208075.4384                   23208074.2934
    896891.99146    707995.05243  24109005.7734                   24109006.4344
   5768252.55946   4491377.41043  24158525.9224                   24158524.6844
  -5170180.24647  -3713675.82443  23777789.1254                   23777788.5784
   -543016.71548   -272046.72746  20044018.8914                   20044016.1414
   4702298.07846   3658354.37144  23603622.7274                   23603622.3794
  -2205427.30548  -1702305.77046  20804189.6724                   20804186.1604
  -5007339.94548  -3869887.03546  21444189.3204                   21444186.8484
   3754677.83248   2923230.12546  21027636.8364                   21027633.2304
  -4401080.34046  -3407391.00044  23794382.3134                   23794382.1214
 11  8 22 16 32  0.0000000  0 11G03G08G10G16G11G13G06G19G07G23G28
   3334940.76647   2590874.66845  21664936.1334                   21664935.0864
  -6076645.72747  -4714814.78944  23188281.4534                   23188280.2854
    901602.12546    711665.28143  24109902.5164                   24109902.8014
   5822407.73446   4533576.18443  24168830.8444                   24168829.4494
  -5281986.75047  -3800797.75043  23756512.6724                   23756511.8954
   -546807.37148   -275000.50846  20043297.5394                   20043294.8244
   4756737.94946   3700775.01244  23613982.6094                   23613981.3484
  -2233296.43448  -1724021.98446  20798886.5234                   20798882.9064
  -5093427.63348  -3936968.34446  21427807.3364                   21427805.1604
   3801426.31348   2959657.47346  21036532.8054                   21036529.1374
  -4494834.94947  -3480446.48844  23776541.7504                   23776540.8054
 11  8 22 16 32 30.0000000  0 11G03G08G10G16G11G13G06G19G07G23G28
   3376969.12547   2623624.02045  21672934.2664                   21672932.5274
  -6180732.30547  -4795921.18744  23168473.9384                   23168473.2504
    906616.55146    715572.55543  24110856.9614                   24110857.0204
   5876475.55946   4575706.90243  24179119.4144                   24179118.5234
  -5393817.32847  -3887938.41443  23735232.0004                   23735231.1994
   -550025.25448   -277507.97746  20042685.0474                   20042682.7584
   4811449.58646   3743407.40644  23624393.9924                   23624393.5634
  -2260561.47748  -1745267.46946  20793698.0704                   20793694.2894
  -5179444.43448  -4003994.41446  21411439.1024                   21411436.7034
   3848588.12548   2996406.88746  21045507.2194                   21045503.2974
  -4588380.75047  -3553339.27343  23758740.8204                   23758739.8674
 11  8 22 16 33  0.0000000  0 11G03G08G10G16G11G13G06G19G07G23G28
   3419434.78547   2656714.10545  21681015.2894                   21681013.5864
  -6284879.87147  -4877075.10244  23148655.3834                   23148654.3524
    911939.11746    719719.92643  24111869.3364                   24111870.3014
   5930461.23846   4617773.54343  24189393.3834                   24189391.7704
  -5505662.25047  -3975090.27343  23713948.9844                   23713947.9844
   -552664.77048   -279564.76646  20042182.6414                   20042180.2814
   4866436.66446   3786254.39543  23634856.7114                   23634856.8794
  -2287215.95348  -1766037.19146  20788625.7194                   20788622.0984
  -5265382.73048  -4070959.32046  21395085.5164                   21395083.0824
   3896167.18848   3033481.44146  21054561.3914                   21054557.6414
  -4681711.40647  -3626064.39143  23740980.7894                   23740979.3794
 11  8 22 16 33 30.0000000  0 11G03G08G10G16G11G13G06G19G07G23G28
   3462330.73047   2690139.50445  21689177.8284                   21689176.6214
  -6389092.37547  -4958279.61744  23128824.2424                   23128823.3524
    917563.12546    724102.15243  24112939.7114                   24112940.8204
   5984359.51646   4659772.11743  24199649.5314                   24199648.3324
  -5617523.50846  -4062254.85543  23692662.4304                   23692661.4414
   -554730.86748   -281174.73846  20041789.9844                   20041786.6954
   4921692.13746   3829310.54744  23645371.5314                   23645371.4964
  -2313264.70348  -1786334.91846  20783668.9304                   20783665.5204
  -5351245.67248  -4137865.50046  21378746.3914                   21378744.2894
   3944156.10548   3070875.34846  21063693.2584                   21063689.6804
  -4774831.48446  -3698625.45343  23723260.3284                   23723259.4184
 11  8 22 16 34  0.0000000  0 11G03G08G10G16G11G13G06G19G07G23G28
   5081079.67647   3951502.29745  21997215.5314                   21997214.3054
  -4917938.60247  -3811926.02044  23408775.8284                   23408774.7074
   2498912.81346   1956322.63343  24413860.4064                   24413861.1724
   7613594.48046   5929305.78943  24509682.1414                   24509681.7304
  -4153967.80947  -2921821.80543  23971167.3364                   23971166.6214
   1019202.68848    945266.96946  20341299.4384                   20341296.5394
   6552638.90646   5100178.10943  23955731.1564                   23955730.2424
   -763279.99248   -578554.60946  21078621.3284                   21078617.1524
  -3861601.97348  -2977104.15646  21662216.1564                   21662213.6254
   5567978.62548   4336191.54746  21372696.5634                   21372693.1524
  -3292311.05146  -2543414.66443  24005374.3444                   24005373.0944
 11  8 22 16 34 30.0000000  0 11G03G08G10G16G11G13G06G19G07G23G28
   5124836.64847   3985598.60945  22005542.2424                   22005540.9654
  -5022270.46947  -3893223.54744  23388922.0004                   23388921.4384
   2505140.62146   1961175.41843  24415045.8524                   24415046.7424
   7667323.00846   5971172.09843  24519907.0164                   24519905.7584
  -4265845.10546  -3008998.89543  23949877.8284                   23949876.9144
   1018289.75048    944555.55946  20341125.4694                   20341123.1884
   6608432.42246   5143653.51644  23966348.6484                   23966347.8284
   -788109.27348   -597902.10246  21073896.3674                   21073892.1994
  -3947301.64548  -3043883.10546  21645907.9924                   21645905.9224
   5616790.14148   4374226.44546  21381985.0554                   21381981.5784
  -3385001.85946  -2615641.23043  23987735.7974                   23987735.3134
 11  8 22 16 35  0.0000000  0 11G03G08G10G16G11G13G06G19G07G23G28
   5169009.53547   4020018.99645  22013948.3834                   22013946.8284
  -5126672.00447  -3974575.37144  23369055.5634                   23369054.2974
   2511655.87746   1966252.18243  24416286.1334                   24416286.8954
   7720954.28946   6012962.63343  24530113.4304                   24530111.6334
  -4377736.80146  -3096187.18743  23928585.7584                   23928584.6454
   1017941.79348    944284.39846  20341059.3134                   20341056.7194
   6664480.51246   5187327.27344  23977013.8284                   23977013.3554
   -812339.64548   -616782.90246  21069285.3914                   21069281.5124
  -4032928.46148  -3110605.28546  21629613.8834                   21629611.5744
   5665998.23448   4412570.36746  21391349.3134                   21391346.0204
  -3477489.12146  -2687709.17243  23970136.5554                   23970134.8244
 11  8 22 16 35 30.0000000  0 11G03G08G10G16G11G13G06G19G07G23G28
   5213611.10547   4054773.42645  22022435.7344                   22022434.5594
  -5231126.43447  -4055968.41444  23349177.9304                   23349176.5784
   2518472.00046   1971563.36343  24417582.5944                   24417583.6994
   7774503.46946   6054689.18843  24540302.7584                   24540301.6174
  -4489624.36746  -3183372.25043  23907293.9694                   23907293.2894
   1018173.52048    944464.93846  20341103.3284                   20341101.2274
   6720796.09046   5231209.48843  23987729.9774                   23987729.2774
   -835955.79348   -635185.09446  21064791.2734                   21064787.6294
  -4118465.27748  -3177257.33646  21613336.6024                   21613334.4574
   5715616.48048   4451233.88346  21400791.3834                   21400787.5004
  -3569757.50446  -2759606.57843  23952577.7274                   23952576.7114
 11  8 22 16 36  0.0000000  0 11G03G08G10G16G11G13G06G19G07G23G28
   5258625.72747   4089849.71545  22031001.5234                   22031000.2704
  -5335645.94947  -4137412.16044  23329288.4614                   23329287.1954
   2525573.50046   1977096.92643  24418934.5004                   24418935.5164
   7827956.28546   6096340.66443  24550474.2974                   24550473.9184
  -4601518.05547  -3270562.12143  23886001.3984                   23886000.5664
   1018971.34048    945086.59846  20341255.2734                   20341252.6524
   6777363.69947   5275288.06643  23998495.0554                   23998493.7114
   -858971.08248   -653119.08646  21060411.6564                   21060407.9534
  -4203923.71548  -3243848.31646  21597074.3444                   21597072.4144
   5765629.39548   4490204.92646  21410308.4454                   21410304.9064
  -3661819.72347  -2831343.31243  23935058.7814                   23935057.8674
 11  8 22 16 36 30.0000000  0 11G03G08G10G16G11G13G06G19G07G23G28
   5304056.85547   4125250.54745  22039647.1414                   22039645.9144
  -5440224.29347  -4218901.74244  23309387.9534                   23309386.8094
   2532963.83246   1982855.59443  24420340.0784                   24420341.2074
   7881318.20746   6137921.30143  24560629.1174                   24560627.8554
  -4713408.91847  -3357749.75443  23864709.3204                   23864708.6764
   1020340.53148    946153.47346  20341515.6484                   20341513.3954
   6834187.23446   5319566.08643  24009308.0314                   24009307.3874
   -881379.66048   -670580.32446  21056147.4454                   21056143.5314
  -4289296.47347  -3310372.53546  21580828.6954                   21580826.2074
   5816040.83648   4529486.52346  21419901.3984                   21419897.5394
  -3753669.91446  -2902914.85543  23917580.6024                   23917579.6684
 11  8 22 16 37  0.0000000  0 11G03G08G10G16G11G13G06G19G07G23G28
   5349896.87947   4160970.02345  22048370.3204                   22048368.6094
  -5544865.47347  -4300440.28944  23289475.5394                   23289474.6414
   2540635.44946   1988833.44143  24421800.4774                   24421801.2154
   7934583.09046   6179426.37943  24570765.4454                   24570764.7074
  -4825299.06246  -3444936.82043  23843417.5474                   23843417.0744
   1022275.43848    947661.18046  20341883.6954                   20341881.4654
   6891259.01646   5364037.54343  24020167.9844                   24020167.8834
   -903186.66448   -687572.78546  21051997.7114                   21051993.8404
  -4374586.98448  -3376832.65246  21564598.3054                   21564596.3484
   5866843.41448   4569072.90646  21429569.0314                   21429565.1214
  -3845313.09847  -2974325.08644  23900141.6334                   23900140.3834
 11  8 22 16 37 30.0000000  0 11G03G08G10G16G11G13G06G19G07G23G28
   5396141.77047   4197004.94545  22057170.0474                   22057168.5274
  -5649570.48847  -4382028.57444  23269551.4064                   23269549.6484
   2548584.39546   1995027.31643  24423313.0004                   24423314.8634
   7987748.51246   6220853.87943  24580882.3594                   24580881.1214
  -4937186.96546  -3532122.20343  23822125.9774                   23822124.9654
   1024773.72748    949607.86346  20342359.6174                   20342356.9304
   6948575.02746   5408699.28143  24031075.3754                   24031074.7974
   -924394.03148   -704098.02746  21047962.0234                   21047958.7774
  -4459795.68747  -3443229.05146  21548383.5704                   21548381.1134
   5918033.08648   4608960.89846  21439310.2584                   21439306.3244
  -3936751.14547  -3045575.46943  23882741.5084                   23882740.3714
 11  8 22 16 38  0.0000000  0 11G03G08G10G16G11G13G06G19G07G23G28
   5442799.35247   4233361.44945  22066048.7894                   22066048.0824
  -5754327.72347  -4463657.57044  23249616.1334                   23249614.7664
   2556818.69146   2001443.56643  24424879.9064                   24424881.3914
   8040824.01646   6262211.35243  24590982.5944                   24590981.1644
  -5049059.31646  -3619295.41843  23800837.2584                   23800835.9414
   1027845.20348    952001.19946  20342944.1174                   20342941.6134
   7006143.23446   5453557.55143  24042030.7274                   24042029.7424
   -944991.62548   -720148.11746  21044042.3444                   21044038.6564
  -4544910.28148  -3509552.10546  21532187.0554                   21532184.1684
   5969618.16048   4649157.00846  21449126.3914                   21449122.8914
  -4027973.71547  -3116657.96144  23865382.9224                   23865381.8054
 11  8 22 16 38 30.0000000  0 11G03G08G10G16G11G13G06G19G07G23G28
   5489854.44947   4270027.71145  22075002.7584                   22075002.1454
  -5859148.89547  -4545336.36344  23229669.4774                   23229668.1484
   2565323.62946   2008070.73043  24426498.5234                   24426498.9844
   8093796.30546   6303488.40243  24601062.9614                   24601060.9224
  -5160925.85546  -3706464.12143  23779549.6094                   23779549.5664
   1031476.44948    954830.72346  20343635.2894                   20343632.8324
   7063948.91046   5498600.87143  24053030.5474                   24053030.1174
   -964991.96548   -735732.79746  21040236.9144                   21040232.8834
  -4629941.94948  -3575810.53546  21516005.1954                   21516003.4454
   6021583.40248   4689649.35546  21459014.8364                   21459011.4494
  -4118993.60547  -3187582.52344  23848061.4844                   23848060.9414
 11  8 22 16 39  0.0000000  0 11G03G08G10G16G11G13G06G19G07G23G28
   5537306.25047   4307003.08245  22084033.3594                   22084031.8204
  -5964031.68047  -4627063.18444  23209710.3444                   23209709.6884
   2574098.64546   2014908.36343  24428168.5944                   24428169.3524
   8146666.54746   6344685.91843  24611123.6254                   24611122.2664
  -5272781.64546  -3793624.44543  23758264.2034                   23758263.7774
   1035668.12148    958096.93446  20344432.2974                   20344430.2464
   7121990.99246   5543828.40143  24064075.5314                   24064075.1764
   -984394.24248   -750851.46146  21036544.1884                   21036540.8484
  -4714887.33248  -3642001.73446  21499840.9454                   21499839.1804
   6073928.59048   4730437.75846  21468976.0944                   21468972.4494
  -4209808.80947  -3258347.57844  23830780.1174                   23830779.2894
 11  8 22 16 39 30.0000000  0 11G03G08G10G16G11G13G06G19G07G23G28
   5585145.07447   4344280.03945  22093136.3594                   22093136.1954
  -6068982.23847  -4708842.78944  23189739.3834                   23189738.4964
   2583134.09446   2021948.91043  24429888.0944                   24429889.1564
   8199426.91446   6385797.84043  24621163.3364                   24621162.6414
  -5384630.76246  -3880779.56244  23736979.9064                   23736979.3134
   1040412.85948    961794.10546  20345335.4454                   20345333.3244
   7180260.56346   5589233.20744  24075164.0784                   24075163.2384
  -1003205.37948   -765509.48846  21032964.8524                   21032961.0664
  -4799751.85948  -3708129.91846  21483691.5784                   21483689.8754
   6126644.35548   4771514.92246  21479007.4844                   21479004.0204
  -4300426.81647  -3328958.98044  23813536.0554                   23813535.3484
 11  8 22 16 40  0.0000000  0 11G03G08G10G16G11G13G06G19G07G23G28
   5633371.93447   4381859.36745  22102313.9304                   22102312.6804
  -6173996.19947  -4790671.81644  23169756.2814                   23169754.9494
   2592431.45346   2029193.54743  24431657.4534                   24431658.3444
   8252080.09446   6426826.26643  24631183.0004                   24631181.9264
  -5496466.58246  -3967924.31644  23715698.0474                   23715697.8524
   1045713.22748    965924.25046  20346344.0784                   20346341.7774
   7238758.55946   5634816.00044  24086295.8914                   24086296.0314
  -1021421.73048   -779704.04746  21029498.6174                   21029494.5984
  -4884530.34448  -3774191.06246  21467559.2584                   21467556.7344
   6179731.63348   4812881.57046  21489109.8594                   21489106.4454
  -4390843.92647  -3399413.82844  23796329.8984                   23796329.8054
 11  8 22 16 40 30.0000000  0 11G03G08G10G16G11G13G06G19G07G23G28
   5681990.11347   4419743.63344  22111565.4454                   22111563.9184
  -6279066.54347  -4872544.77744  23149761.4534                   23149760.3404
   2601993.76246   2036644.64143  24433476.3054                   24433478.0944
   8304631.21146   6467775.13742  24641183.4064                   24641181.8914
  -5608280.47346  -4055052.00043  23694420.6884                   23694419.6914
   1051574.42648    970491.38746  20347459.6094                   20347457.1484
   7297488.28946   5680579.34444  24097471.4304                   24097471.4304
  -1039038.88348   -793431.69546  21026145.7974                   21026142.1374
  -4969215.87948  -3840179.77346  21451443.9454                   21451441.4264
   6233193.95348   4854540.46146  21499283.4064                   21499280.2194
  -4481054.52047  -3469707.76244  23779163.5084                   23779163.4804
 11  8 22 16 41  0.0000000  0 11G03G08G10G16G11G13G06G19G07G23G28
   5731005.51247   4457937.40645  22120892.6484                   22120891.4774
  -6384183.86747  -4954454.35544  23129758.5394                   23129757.1334
   2611827.35547   2044307.11343  24435348.5004                   24435349.4414
   8357088.28146   6508650.71542  24651165.5864                   24651164.3134
  -5720060.66846  -4142153.41843  23673149.4144                   23673149.2074
   1058003.99648    975501.42246  20348683.3134                   20348680.9494
   7356456.09846   5726528.22744  24108693.1024                   24108692.7774
  -1056048.21948   -806685.71146  21022909.0634                   21022905.4774
  -5053797.73848  -3906087.70346  21435348.5234                   21435346.4414
   6287037.82848   4896496.67245  21509529.8284                   21509525.7974
  -4571050.44147  -3539834.42644  23762038.4454                   23762037.7854
 11  8 22 16 41 30.0000000  0 11G03G08G10G16G11G13G06G19G07G23G28
   5780382.98447   4496413.32045  22130289.2814                   22130287.4654
  -6489379.60547  -5036425.03145  23109740.3524                   23109738.9024
   2621897.27346   2052153.71143  24437264.8754                   24437265.9734
   8409418.24246   6549427.21542  24661123.2114                   24661122.7344
  -5831836.32447  -4229251.30544  23651879.5474                   23651878.5084
   1064968.68048    980928.42646  20350008.6254                   20350006.0474
   7415627.21146   5772635.53143  24119953.5314                   24119952.6414
  -1072482.39148   -819491.55146  21019782.2504                   21019777.9534
  -5138306.94948  -3971939.02346  21419267.0474                   21419264.5594
   6341228.35948   4938723.01246  21519841.8984                   21519838.2734
  -4660863.70347  -3609818.74244  23744947.1564                   23744946.0554
 11  8 22 16 42  0.0000000  0 11G03G08G10G16G11G13G06G19G07G23G28
   5830137.61747   4535183.11345  22139757.3364                   22139756.4184
  -6594635.06247  -5118442.25445  23089710.9224                   23089709.9064
   2632218.92646   2060196.50843  24439228.8444                   24439229.8244
   8461637.75846   6590117.69942  24671060.9304                   24671060.0004
  -5943586.97347  -4316329.68044  23630614.1724                   23630613.3054
   1072484.98448    986785.26246  20351438.7814                   20351436.1134
   7475016.91846   5818913.17244  24131254.3914                   24131254.2424
  -1088324.50848   -831836.04746  21016767.3594                   21016763.0784
  -5222723.99648  -4037718.53946  21403202.8284                   21403200.5784
   6395780.71548   4981231.27345  21530222.8674                   21530219.5354
  -4750477.12147  -3679647.34844  23727894.2814                   23727893.1454
 11  8 22 16 42 30.0000000  0 11G03G08G10G16G11G13G06G19G07G23G28
   5880265.65647   4574243.87545  22149296.0704                   22149294.9614
  -6699951.07047  -5200506.65645  23069669.8594                   23069669.0554
   2642788.14846   2068432.20343  24441239.7274                   24441241.3634
   8513744.60945   6630720.37142  24680976.7034                   24680975.9224
  -6055311.12547  -4403387.41444  23609353.8984                   23609352.5594
   1080550.80948    993070.29746  20352973.7424                   20352971.1334
   7534621.30546   5865358.07843  24142596.5474                   24142596.4384
  -1103576.44548   -843720.66446  21013864.8674                   21013861.0044
  -5307048.96948  -4103426.30546  21387156.5704                   21387154.1884
   6450690.82048   5024018.30945  21540671.9064                   21540668.4454
  -4839892.17647  -3749321.37944  23710878.9454                   23710878.7344
 11  8 22 16 43  0.0000000  0 11G03G08G10G16G11G13G06G19G07G23G28
   5930762.96147   4613592.37945  22158905.7814                   22158904.6134
  -6805327.68747  -5282618.27045  23049617.3674                   23049616.5204
   2653601.17647   2076857.85543  24443297.8364                   24443298.7344
   8565737.21546   6671234.02743  24690870.0234                   24690869.3954
  -6167006.70747  -4490422.89144  23588098.5314                   23588098.1644
   1089163.71948    999781.62946  20354612.8204                   20354610.6684
   7594436.93846   5911967.62943  24153979.8364                   24153979.1954
  -1118239.86748   -855146.68746  21011074.2894                   21011070.4804
  -5391281.61348  -4169062.12546  21371127.5944                   21371125.3094
   6505955.00448   5067081.24645  21551188.4454                   21551184.8794
  -4929110.21947  -3818841.89844  23693901.5234                   23693900.6884
 11  8 22 16 43 30.0000000  0 11G03G08G10G16G11G13G06G19G07G23G28
   5981622.65247   4653223.25844  22168584.0704                   22168582.6484
  -6910768.24247  -5364779.71944  23029552.7344                   23029551.5164
   2664651.25446   2085468.23843  24445400.6484                   24445401.8244
   8617610.37946   6711654.60543  24700741.9924                   24700740.5124
  -6278675.25847  -4577437.29744  23566848.6804                   23566847.9104
   1098318.71548   1006915.36746  20356354.8674                   20356352.4804
   7654456.71946   5958736.24643  24165400.3674                   24165400.3404
  -1132319.52048   -866117.84846  21008395.1024                   21008391.3134
  -5475424.33648  -4234627.87946  21355115.7274                   21355113.0664
   6561566.64148   5110414.93045  21561770.8594                   21561767.4384
  -5018135.65247  -3888212.33244  23676960.2034                   23676959.9384
 11  8 22 16 44  0.0000000  0 11G03G08G10G16G11G13G06G19G07G23G28
   6032848.58247   4693139.51645  22178331.6564                   22178330.6564
  -7016265.21947  -5446985.12544  23009477.6174                   23009476.0554
   2675942.94547   2094266.87543  24447549.6484                   24447550.9344
   8669370.30946   6751986.95743  24710591.3204                   24710590.8444
  -6390306.64547  -4664422.72344  23545605.6644                   23545604.9024
   1108021.19148   1014475.71946  20358201.1564                   20358198.6804
   7714685.18046   6005667.47343  24176861.5234                   24176861.8714
  -1145809.46548   -876629.49646  21005828.4614                   21005824.4774
  -5559469.05548  -4300117.26646  21339122.3674                   21339120.0234
   6617530.35248   5154022.95745  21572420.4454                   21572417.3244
  -5106962.13347  -3957427.71944  23660057.1724                   23660056.3634
 11  8 22 16 44 30.0000000  0 11G03G08G10G16G11G13G06G19G07G23G28
   6084428.88747   4733331.91844  22188147.3914                   22188146.0044
  -7121826.96147  -5529241.00844  22989389.2274                   22989387.9184
   2687464.14846   2103244.39143  24449741.9304                   24449742.5514
   8721006.88746   6792223.22743  24720417.6804                   24720416.4264
  -6501907.58647  -4751384.46143  23524368.7504                   23524367.9454
   1118260.66048   1022454.50046  20360149.7504                   20360147.2814
   7775110.33646   6052751.96543  24188360.8834                   24188360.2624
  -1158719.68748   -886689.41046  21003371.4064                   21003367.6804
  -5643423.48448  -4365536.29746  21323146.6724                   21323143.8914
   6673834.38348   5197896.16845  21583134.4384                   21583131.2734
  -5195599.28947  -4026495.57844  23643190.2344                   23643188.9694
 11  8 22 16 45  0.0000000  0 11G03G08G10G16G11G13G06G19G07G23G28
   6136365.89147   4773802.25444  22198030.0394                   22198029.2664
  -7227446.94547  -5611542.27044  22969290.4774                   22969289.1334
   2699218.02746   2112403.16843  24451978.4694                   24451979.4344
   8772524.68047   6832366.89144  24730220.4694                   24730219.9454
  -6613469.53946  -4838315.80944  23503139.5784                   23503138.5704
   1129041.46148   1030855.09846  20362201.1414                   20362198.7934
   7835735.32846   6099992.18843  24199896.9304                   24199896.6174
  -1171045.78948   -896294.16446  21001025.6724                   21001021.9304
  -5727280.61348  -4430879.51246  21307189.0944                   21307186.4344
   6730480.96948   5242036.29745  21593914.5164                   21593911.1994
  -5284042.11747  -4095412.02344  23626359.9304                   23626358.7894
 11  8 22 16 45 30.0000000  0 11G03G08G10G16G11G13G06G19G07G23G28
   6188653.70747   4814545.95344  22207980.6094                   22207979.4804
  -7333127.65647  -5693890.84044  22949180.3054                   22949178.5394
   2711198.28146   2121738.35943  24454258.5554                   24454259.3134
   8823919.55546   6872414.80543  24740001.6024                   24740000.1214
  -6724993.05147  -4925217.21544  23481916.7734                   23481915.5984
   1140359.08248   1039674.00046  20364354.6954                   20364352.2304
   7896554.05946   6147383.35243  24211470.1254                   24211469.8324
  -1182791.90248   -905446.98846  20998790.7894                   20998786.6804
  -5811042.45348  -4496148.48046  21291249.3204                   21291246.7704
   6787464.34848   5286438.87145  21604758.5554                   21604754.8404
  -5372294.08647  -4164179.72744  23609565.8204                   23609565.1684
 11  8 22 16 46  0.0000000  0 11G03G08G10G16G11G13G06G19G07G23G28
   6241287.35247   4855559.14544  22217996.5704                   22217995.2304
  -7438870.71947  -5776288.00844  22929057.8834                   22929056.8634
   2723399.93846   2131246.05943  24456580.3284                   24456581.3874
   8875188.48046   6912364.58643  24749757.1024                   24749756.6094
  -6836477.02746  -5012087.80944  23460702.2584                   23460701.5634
   1152209.99248   1048908.45746  20366610.2194                   20366607.7464
   7957562.06647   6194922.01643  24223080.0864                   24223079.7664
  -1193960.58248   -914149.86346  20996665.2034                   20996661.2934
  -5894709.60548  -4561343.66446  21275328.2894                   21275326.2234
   6844779.79748   5331100.21145  21615664.7734                   21615661.1134
  -5460357.82047  -4232800.75844  23592807.8054                   23592807.2854
 11  8 22 16 46 30.0000000  0 11G03G08G10G16G11G13G06G19G07G23G28
   6294268.19547   4896842.85944  22228078.5084                   22228077.3914
  -7544670.73447  -5858729.56644  22908925.3674                   22908923.7934
   2735824.62546   2140927.57443  24458944.4384                   24458946.7194
   8926335.38746   6952219.25043  24759490.6564                   24759488.7894
  -6947914.75846  -5098922.35243  23439496.8524                   23439495.1374
   1164597.30148   1058560.87946  20368967.1804                   20368964.6884
   8018761.01247   6242609.45743  24234725.6724                   24234725.6214
  -1204548.60948   -922400.27746  20994650.6174                   20994646.3014
  -5978276.02048  -4626460.34446  21259426.0944                   21259423.8014
   6902428.64148   5376021.32845  21626635.0554                   21626631.6454
  -5548229.40247  -4301272.09044  23576085.9694                   23576085.6414
 11  8 22 16 47  0.0000000  0 11G03G08G10G16G11G13G06G19G07G23G28
   6347592.18047   4938393.97744  22238225.6564                   22238224.7154
  -7650527.81647  -5941215.57044  22888780.9924                   22888779.6604
   2748468.79346   2150780.08643  24461351.1954                   24461352.2344
   8977358.39846   6991977.40643  24769199.2274                   24769198.6374
  -7059304.00847  -5185719.14543  23418299.8364                   23418298.3594
   1177518.54748   1068629.35546  20371426.1884                   20371423.6724
   8080147.35246   6290442.90243  24246407.1884                   24246407.1134
  -1214558.07048   -930199.86746  20992745.7194                   20992742.0084
  -6061741.16448  -4691498.12146  21243542.9844                   21243541.2274
   6960407.56348   5421199.64145  21637668.0634                   21637664.7774
  -5635910.39147  -4369594.88744  23559401.0234                   23559400.4454
 11  8 22 16 47 30.0000000  0 11G03G08G10G16G11G13G06G19G07G23G28
   6401254.52747   4980208.74244  22248437.5474                   22248436.6684
  -7756443.60947  -6023747.32844  22868625.9614                   22868624.4304
   2761327.54746   2160799.82043  24463797.6254                   24463798.8054
   9028254.36346   7031636.51643  24778884.7734                   24778883.8984
  -7170644.22746  -5272477.71543  23397111.8364                   23397110.8714
   1190970.05948   1079111.02346  20373986.1024                   20373983.3094
   8141716.05546   6338418.44143  24258123.3674                   24258123.3794
  -1223992.11348   -937551.07846  20990950.5944                   20990946.2544
  -6145106.17248  -4756457.86746  21227679.4384                   21227676.8874
   7018711.48048   5466631.19945  21648762.9614                   21648759.8754
  -5723403.41447  -4437771.21944  23542751.8284                   23542750.8244
 11  8 22 16 48  0.0000000  0 11G03G08G10G16G11G13G06G19G07G23G28
   6455246.71947   5022280.54744  22258711.6484                   22258710.3754
  -7862422.71547  -6106328.43044  22848459.0394                   22848457.1684
   2774392.51646   2170980.22343  24466284.3134                   24466284.8954
   9079016.64546   7071191.50443  24788544.2894                   24788543.2344
  -7281937.91047  -5359200.03543  23375933.7504                   23375932.7384
   1204944.96548   1090000.53146  20376645.0784                   20376642.9884
   8203458.98446   6386529.75843  24269872.6804                   24269872.2034
  -1232857.33248   -944459.05946  20989263.5234                   20989259.6724
  -6228375.04748  -4821342.70746  21211833.7194                   21211831.6764
   7077332.05148   5512309.50445  21659918.4844                   21659914.8954
  -5810714.57847  -4505805.85244  23526136.7814                   23526136.5434
 11  8 22 16 48 30.0000000  0 11G03G08G10G16G11G13G06G19G07G23G28
   6509567.05947   5064608.03944  22269048.6094                   22269047.4964
  -7968463.19947  -6188957.36344  22828279.2504                   22828278.1254
   2787662.58646   2181320.43844  24468809.2814                   24468810.8914
   9129645.85946   7110642.80143  24798178.9304                   24798177.8834
  -7393181.03547  -5445882.94943  23354764.9844                   23354763.8284
   1219443.01648   1101297.69146  20379404.2734                   20379402.2734
   8265374.85546   6434775.83243  24281654.6954                   24281654.9384
  -1241153.61348   -950923.71146  20987684.9774                   20987680.9064
  -6311544.96948  -4886150.44546  21196007.2814                   21196004.8714
   7136267.88748   5558233.47745  21671133.5704                   21671129.9694
  -5897842.71946  -4573697.85944  23509557.5004                   23509556.3324
 11  8 22 16 49  0.0000000  0 11G03G08G10G16G11G13G06G19G07G23G28
   6564216.57847   5107192.02044  22279447.9144                   22279446.4574
  -8074560.22347  -6271630.35244  22808090.0864                   22808089.0554
   2801138.29746   2191820.90243  24471374.1954                   24471375.2544
   9180145.39145   7149993.05143  24807788.5474                   24807787.7504
  -7504366.92646  -5532521.27043  23333606.2814                   23333605.3444
   1234466.73048   1113004.45746  20382263.0704                   20382260.8594
   8327465.10546   6483157.77943  24293470.9924                   24293470.2584
  -1248878.01648   -956942.73446  20986214.8204                   20986211.1644
  -6394610.44948  -4950876.78946  21180200.2114                   21180197.9804
   7195520.16848   5604404.02045  21682408.8834                   21682404.9064
  -5984784.67247  -4641444.80544  23493012.7664                   23493011.8284
 11  8 22 16 49 30.0000000  0 11G03G08G10G16G11G13G06G19G07G23G28
   6619184.85547   5150024.38344  22289908.2664                   22289907.0904
  -8180719.78947  -6354352.07044  22787888.4454                   22787887.3794
   2814809.84446   2202473.94143  24473975.2894                   24473976.5394
   9230507.25446   7189235.94942  24817372.5474                   24817371.6954
  -7615499.73047  -5619118.20743  23312458.6724                   23312457.6764
   1250007.22748   1125113.90646  20385220.2734                   20385218.3134
   8389719.85946   6531667.89143  24305316.5784                   24305317.4694
  -1256038.74248   -962522.53546  20984852.2734                   20984848.5784
  -6477577.14148  -5015526.16046  21164412.2734                   21164410.0124
   7255078.81648   5650813.30545  21693742.4614                   21693738.9384
  -6071548.25047  -4709052.73844  23476502.0164                   23476500.5824
 11  8 22 16 50  0.0000000  0 10G03G08G10G11G13G06G19G07G23G28
   6674480.88347   5193112.12544  22300430.8444                   22300429.9064
  -8286929.14847  -6437112.59444  22767677.4144                   22767676.5984
   2828686.33246   2213286.71143  24476616.5394                   24476617.0864
  -7726564.85547  -5705662.40244  23291323.7734                   23291323.1564
   1266074.69548   1137633.98846  20388277.9774                   20388275.5314
   8452148.19546   6580313.27343  24317197.2194                   24317196.9804
  -1262625.29347   -967654.92246  20983598.9774                   20983594.9884
  -6560431.73048  -5080088.17246  21148645.7894                   21148643.2074
   7314952.78148   5697468.28145  21705136.0164                   21705132.7304
  -6158122.21147  -4776512.94143  23460027.9614                   23460026.5124
 11  8 22 16 50 30.0000000  0 10G03G08G10G11G13G06G19G07G23G28
   6730100.43047   5236451.96144  22311014.8834                   22311014.0274
  -8393188.98447  -6519912.44544  22747456.9064                   22747455.7734
   2842763.96146   2224256.18443  24479294.6804                   24479295.8054
  -7837560.48847  -5792152.47344  23270202.2814                   23270201.2114
   1282666.45348   1150562.60246  20391435.0474                   20391433.1564
   8514746.34946   6629090.99543  24329109.3444                   24329108.7814
  -1268640.10948   -972341.79746  20982454.5164                   20982450.2544
  -6643174.28948  -5144562.89146  21132900.4224                   21132898.0744
   7375138.01648   5744365.81645  21716588.8984                   21716585.6684
  -6244508.07847  -4843826.55944  23443588.8134                   23443587.6684
 11  8 22 16 51  0.0000000  0 10G03G08G10G11G13G06G19G07G23G28
   6786043.87547   5280044.18844  22321660.8984                   22321660.0554
  -8499495.08247  -6602748.34444  22727227.4064                   22727226.2464
   2857043.14146   2235382.75043  24482012.7894                   24482013.6334
  -7948480.77047  -5878583.83244  23249094.8204                   23249093.6564
   1299784.21948   1163901.08246  20394692.4844                   20394690.9654
   8577514.98046   6678001.54343  24341053.2734                   24341053.2504
  -1274081.02047   -976581.46946  20981418.8834                   20981414.8204
  -6725799.93748  -5208946.53146  21117177.1024                   21117174.7504
   7435635.05548   5791506.30145  21728101.4384                   21728097.8054
  -6330703.17247  -4910991.55944  23427186.3284                   23427185.1954
 11  8 22 16 51 30.0000000  0 10G03G08G10G11G13G06G19G07G23G28
   6842310.89547   5323888.56344  22332368.4224                   22332367.0084
  -8605844.02747  -6685617.64144  22706990.0784                   22706988.6484
   2871523.16846   2246665.79343  24484768.0704                   24484769.0864
  -8059320.14547  -5964952.15244  23228002.6564                   23228001.9264
   1317429.20348   1177650.39846  20398050.2274                   20398048.1884
   8640453.67246   6727044.60543  24353030.8914                   24353030.1214
  -1278946.82848   -980373.01646  20980492.9534                   20980488.8324
  -6808304.58248  -5273235.86746  21101476.8524                   21101474.6844
   7496443.52748   5838889.45345  21739672.5864                   21739669.2384
  -6416705.96547  -4978006.66444  23410820.7424                   23410819.3714
 11  8 22 16 52  0.0000000  0 10G03G08G10G11G13G06G19G07G23G28
   6898901.86347   5367985.37544  22343137.2194                   22343136.2774
  -8712231.31647  -6768516.80945  22686745.1954                   22686743.8554
   2886205.05146   2258106.10243  24487562.0164                   24487563.4024
  -8170072.34047  -6051252.53144  23206927.5554                   23206926.0634
   1335602.65248   1191811.49646  20401508.7584                   20401506.5944
   8703563.62146   6776221.12143  24365040.0474                   24365040.1884
  -1283235.27748   -983714.66046  20979676.9064                   20979673.3014
  -6890683.01648  -5337426.86346  21085800.8674                   21085798.4654
   7557564.32448   5886515.98045  21751303.5234                   21751300.7854
  -6502512.98847  -5044869.27744  23394491.9304                   23394490.8834
 11  8 22 16 52 30.0000000  0 10G03G08G10G11G13G06G19G07G23G28
   6955809.06347   5412328.58644  22353966.2584                   22353965.1094
  -8818660.94947  -6851448.98045  22666492.6954                   22666490.6804
   2901081.20346   2269697.81643  24490392.8364                   24490394.8594
  -8280739.16447  -6137486.39544  23185868.1024                   23185866.7814
   1354298.15648   1206379.39146  20405066.3134                   20405064.3594
   8766837.38746   6825525.29743  24377080.9224                   24377080.3714
  -1286952.38348   -986611.10946  20978969.8284                   20978965.9144
  -6972938.61748  -5401522.14146  21070148.5554                   21070145.6174
   7618989.59848   5934379.75845  21762992.3204                   21762989.3164
  -6588129.94147  -5111583.76644  23378199.7034                   23378198.8404
 11  8 22 16 53  0.0000000  0 10G03G08G10G11G13G06G19G07G23G28
   7013036.34047   5456921.21944  22364855.8984                   22364855.2344
  -8925125.39147  -6934408.27045  22646232.6254                   22646231.4614
   2916155.28146   2281443.76643  24493261.3594                   24493262.9454
  -8391311.12947  -6223646.31244  23164827.0704                   23164825.8204
   1373520.74248   1221358.00046  20408724.5234                   20408722.1214
   8830278.93046   6874960.20743  24389152.5554                   24389152.7274
  -1290092.89848   -989058.27046  20978371.9924                   20978367.7234
  -7055063.39148  -5465515.47746  21054520.1644                   21054518.0864
   7680722.88348   5982483.53945  21774740.0474                   21774736.4224
  -6673550.82047  -5178145.46144  23361944.8674                   23361943.2424
 11  8 22 16 53 30.0000000  0 10G03G08G10G11G13G06G19G07G23G28
   7070579.50847   5501759.99644  22375806.1644                   22375805.4494
  -9031624.77347  -7017394.78545  22625966.6254                   22625965.4184
   2931423.41446   2293340.90643  24496167.1954                   24496168.6454
  -8501786.46947  -6309730.95344  23143804.3984                   23143802.9264
   1393267.69548   1236745.20346  20412482.1724                   20412479.6564
   8893884.59046   6924522.97743  24401256.1954                   24401256.7814
  -1292659.21148   -991057.98846  20977883.6644                   20977879.2974
  -7137057.15248  -5529406.72346  21038917.3754                   21038914.9414
   7742760.36348   6030824.36745  21786545.6334                   21786542.7274
  -6758777.07047  -5244555.49244  23345726.7424                   23345725.2114
 11  8 22 16 54  0.0000000  0 10G03G08G10G11G13G06G19G07G23G28
   7128435.72347   5546842.71944  22386816.0164                   22386814.9494
  -9138157.59047  -7100407.35945  22605694.0164                   22605693.1804
   2946883.60246   2305387.69543  24499108.7194                   24499110.9104
  -8612161.66847  -6395737.58644  23122800.3524                   23122799.6134
   1413537.62548   1252539.92646  20416339.1884                   20416337.1914
   8957652.20946   6974211.96643  24413390.6884                   24413391.5944
  -1294652.40248   -992611.12146  20977504.5394                   20977500.2194
  -7218917.59448  -5593194.08246  21023340.1094                   21023337.6254
   7805099.79748   6079400.47745  21798408.5164                   21798404.8954
  -6843809.02346  -5310814.12544  23329545.8364                   23329544.1294
 11  8 22 16 54 30.0000000  0 10G03G08G10G11G13G06G19G07G23G28
   7186595.32847   5592161.85244  22397883.4774                   22397882.6604
  -9244729.47347  -7183450.36745  22585413.8364                   22585412.9344
   2962525.86346   2317576.39843  24502085.1024                   24502088.0354
  -8722440.75847  -6481669.31244  23101815.1094                   23101814.2034
   1434322.17248   1268735.63746  20420294.4534                   20420292.2114
   9021572.25846   7024019.72743  24425554.9774                   24425555.0744
  -1296080.51248   -993723.94146  20977232.2814                   20977228.2814
  -7300649.89148  -5656881.58246  21007786.7664                   21007784.6684
   7867731.55948   6128204.36745  21810327.1644                   21810323.6334
  -6928654.03547  -5376927.09444  23313400.3134                   23313399.0004
 11  8 22 16 55  0.0000000  0 10G03G08G10G11G13G06G19G07G23G28
   7245052.34847   5637712.72744  22409007.8054                   22409006.8164
  -9351342.64147  -7266525.54745  22565126.2424                   22565125.1644
   2978344.21146   2329902.24643  24505096.2344                   24505097.7074
  -8832623.85547  -6567526.24644  23080847.4454                   23080846.7854
   1455616.42248   1285328.53146  20424346.6884                   20424344.4224
   9085639.18046   7073941.95743  24437746.9224                   24437746.5664
  -1296947.91448   -994399.84046  20977067.7894                   20977063.5164
  -7382255.60548  -5720470.45746  20992257.6254                   20992255.5634
   7930649.57447   6177231.32845  21822299.9224                   21822296.7664
  -7013315.68747  -5442897.17644  23297289.5784                   23297288.4344
 11  8 22 16 55 30.0000000  0 10G03G08G10G11G13G06G19G07G23G28
   7303808.52047   5683496.73844  22420188.8524                   22420187.5784
  -9457991.47347  -7349628.52745  22544831.8984                   22544830.7464
   2994340.69546   2342366.97743  24508140.0944                   24508141.8484
  -8942703.12147  -6653302.27044  23059900.4304                   23059899.4494
   1477423.33248   1302320.89846  20428496.5634                   20428494.4694
   9149855.27746   7123980.44143  24449967.0314                   24449966.9574
  -1297251.38748   -994636.32046  20977009.6174                   20977005.7274
  -7463728.30148  -5783955.67646  20976754.0944                   20976751.7274
   7993855.84048   6226482.89545  21834327.6644                   21834324.3674
  -7097789.61346  -5508720.97744  23281214.0004                   23281213.1454
 11  8 22 16 56  0.0000000  0 10G03G08G10G11G13G06G19G07G23G28
   7362862.69146   5729512.91444  22431425.8054                   22431425.1484
  -9564673.46147  -7432757.32845  22524530.7274                   22524529.8714
   3010513.96946   2354969.42243  24511217.8674                   24511219.7114
  -9052674.17647  -6738993.98444  23038973.4694                   23038972.7934
   1499742.57048   1319712.48446  20432743.4614                   20432741.2274
   9214219.37146   7174134.18443  24462215.4064                   24462215.2114
  -1296990.86748   -994433.34446  20977059.4064                   20977055.9344
  -7545065.19148  -5847335.06246  20961276.3364                   20961273.8834
   8057349.06348   6275958.05545  21846410.2424                   21846406.9184
  -7182075.56647  -5574398.30144  23265175.2974                   23265174.1094
 11  8 22 16 56 30.0000000  0 10G03G08G10G11G13G06G19G07G23G28
   7422209.82846   5775757.39544  22442719.4774                   22442718.4694
  -9671389.20747  -7515912.44545  22504223.5634                   22504222.5944
   3026859.48446   2367706.06643  24514327.6174                   24514329.3554
  -9162535.88347  -6824600.48844  23018067.2894                   23018066.6804
   1522570.60548   1337500.52746  20437087.6564                   20437085.6024
   9278727.11346   7224399.92643  24474490.4454                   24474490.7894
  -1296169.35248   -993793.21146  20977215.7034                   20977212.1024
  -7626265.87948  -5910608.33246  20945824.1804                   20945821.6994
   8121124.41048   6325653.05945  21858546.6564                   21858543.0594
  -7266175.46947  -5639930.65644  23249171.5944                   23249170.9574
 11  8 22 16 57  0.0000000  0 10G03G08G10G11G13G06G19G07G23G28
   9057269.48447   7049829.81344  22753861.0784                   22753860.1374
  -8202709.58647  -6371486.75845  22783703.5164                   22783703.0434
   4618798.52046   3608177.94543  24817264.2344                   24817265.7664
  -7696857.17247  -5682513.15244  23296976.7894                   23296975.7074
   3121329.19948   2583286.41846  20741321.6644                   20741319.3284
  10918798.35246   8502377.43443  24786585.3284                   24786586.0784
    280636.48848    234886.64146  21277271.8444                   21277268.6254
  -6131901.75848  -4746168.75846  21230192.2034                   21230189.9574
   9760601.47348   7603167.57845  22170528.4304                   22170524.9774
  -5774661.95346  -4477712.28544  23532997.1564                   23532996.1564
 11  8 22 16 57 30.0000000  0 10G03G08G10G11G13G06G19G07G23G28
   9117202.73447   7096530.96544  22765266.0004                   22765265.6094
  -8309480.89847  -6454685.16845  22763385.8204                   22763385.0984
   4635488.91046   3621183.28943  24820440.3134                   24820441.6844
  -7806482.58247  -5767935.53144  23276115.3204                   23276114.3954
   3145178.18448   2601870.00446  20745859.9614                   20745857.8444
  10983594.57446   8552867.94143  24798916.2584                   24798916.0354
    282583.96948    236404.12946  21277642.5704                   21277638.6094
  -6212817.05148  -4809219.63346  21214794.4844                   21214792.2544
   9824941.33648   7653302.46145  22182771.8984                   22182768.8674
  -5858382.46946  -4542949.01644  23517065.7274                   23517064.5004
 11  8 22 16 58  0.0000000  0 10G03G08G10G11G13G06G19G07G23G28
   9177431.18047   7143462.18044  22776727.1884                   22776726.3754
  -8416272.12947  -6537899.10945  22743064.1334                   22743063.1254
   4652353.46146   3634324.41043  24823649.9534                   24823651.5514
  -7915979.43747  -5853257.72344  23255279.1174                   23255278.4844
   3169540.65248   2620853.71546  20750495.5474                   20750493.4964
  11048537.23846   8603472.57243  24811274.5084                   24811274.5864
    285098.36348    238363.37546  21278121.2894                   21278117.1454
  -6293581.04748  -4872152.61346  21199425.8594                   21199423.2384
   9889565.35547   7703658.75445  22195069.6414                   22195066.3794
  -5941908.46547  -4608034.14844  23501171.3674                   23501169.8524
 11  8 22 16 58 30.0000000  0 10G03G08G10G11G13G06G19G07G23G28
   9237947.13347   7190617.41444  22788243.0084                   22788242.1764
  -8523086.32847  -6621130.93745  22722737.9064                   22722737.0864
   4669385.44946   3647596.00843  24826891.1414                   24826892.7544
  -8025348.64147  -5938480.45744  23234466.1804                   23234465.8444
   3194410.87148   2640233.06646  20755228.5004                   20755226.2114
  11113619.87946   8654186.25444  24823659.1724                   24823659.5904
    288173.86348    240759.85246  21278706.4064                   21278702.6564
  -6374196.32048  -4934969.71946  21184084.8524                   21184083.2664
   9954466.57448   7754231.05945  22207419.7894                   22207416.6844
  -6025244.69947  -4672971.43444  23485312.7974                   23485312.1024
 11  8 22 16 59  0.0000000  0 10G03G08G10G11G13G06G19G07G23G28
   9298744.87947   7237992.21544  22799812.5554                   22799811.8484
  -8629924.85947  -6704381.72345  22702407.5004                   22702406.3754
   4686579.37146   3660993.77343  24830163.0004                   24830164.7234
  -8134589.81647  -6023603.42644  23213679.1564                   23213678.3914
   3219784.37548   2660004.59846  20760056.9694                   20760054.6484
  11178837.19146   8705004.92243  24836068.9144                   24836069.8794
    291806.23048    243590.24246  21279397.6094                   21279393.7194
  -6454663.59048  -4997671.48446  21168772.5084                   21168770.2704
  10019639.27047   7805014.90645  22219821.9064                   22219818.6334
  -6108394.20347  -4737763.21144  23469490.2274                   23469489.4844
 11  8 22 16 59 30.0000000  0 10G03G08G10G11G13G06G19G07G23G28
   9359822.75847   7285585.30944  22811435.3594                   22811434.4884
  -8736785.87947  -6787650.05145  22682072.2734                   22682071.1454
   4703933.56646   3674516.43443  24833465.4534                   24833466.8554
  -8243699.30147  -6108623.77744  23192916.2894                   23192915.0634
   3245659.79748   2680167.23446  20764980.9144                   20764978.3054
  11244187.60546   8755927.22743  24848505.5704                   24848505.8094
    295995.19148    246854.34846  21280194.6484                   21280190.8524
  -6534980.44148  -5060256.04746  21153488.9614                   21153486.5594
  10085081.38747   7856008.67645  22232274.9694                   22232271.5554
  -6191356.87146  -4802409.41044  23453702.4064                   23453701.6214
 11  8 22 17  0  0.0000000  0 10G03G08G10G11G13G06G19G07G23G28
   9421192.80947   7333406.06644  22823113.7664                   22823112.9734
  -8843653.44147  -6870923.48845  22661736.6174                   22661735.1454
   4721459.77746   3688173.09843  24836800.2274                   24836802.2624
  -8352659.09447  -6193527.50444  23172181.6254                   23172180.2074
   3272050.18848   2700731.13346  20770002.7894                   20770000.5204
  11309683.50446   8806962.94543  24860968.2664                   24860968.7584
    300753.82048    250562.34846  21281100.1564                   21281096.0664
  -6615130.55548  -5122710.68746  21138236.7424                   21138234.3524
  10150805.13747   7907221.91045  22244782.1094                   22244778.9384
  -6274118.26647  -4866898.75844  23437953.8914                   23437952.4384
 11  8 22 17  0 30.0000000  0 10G03G08G10G11G13G06G19G07G23G28
   9482836.57447   7381440.10944  22834844.0784                   22834843.6484
  -8950541.41047  -6954212.80145  22641396.3594                   22641395.0984
   4739139.97746   3701949.71543  24840165.4304                   24840166.8634
  -8461481.59047  -6278324.23044  23151473.3594                   23151472.4614
   3298938.63348   2721683.13746  20775119.8594                   20775117.3954
  11375306.96146   8858098.09043  24873456.6724                   24873457.0004
    306065.16848    254701.03546  21282111.0704                   21282107.1414
  -6695127.09048  -5185045.65646  21123013.8834                   21123011.8634
  10216792.15648   7958640.27745  22257338.8364                   22257335.9454
  -6356694.51647  -4931243.86344  23422240.0784                   23422238.9804
 11  8 22 17  1  0.0000000  0 10G03G08G10G11G13G06G19G07G23G28
   9544761.44147   7429693.19944  22846627.6254                   22846627.4384
  -9057438.50047  -7037509.22345  22621054.4304                   22621053.1254
   4756982.02346   3715852.52343  24843560.4614                   24843562.0044
  -8570153.41047  -6363003.56244  23130794.4844                   23130793.1844
   3326333.22748   2743029.53146  20780332.7664                   20780330.6024
  11441065.80546   8909338.66843  24885970.4454                   24885969.8404
    311937.80548    259277.09846  21283229.0704                   21283224.8164
  -6774958.18048  -5247251.69946  21107822.5314                   21107820.2584
  10283050.21547   8010269.85245  22269947.3524                   22269944.5004
  -6439075.86747  -4995437.07444  23406563.2344                   23406562.4534
 11  8 22 17  1 30.0000000  0 10G03G08G10G11G13G06G19G07G23G28
   9606956.32047   7478156.69144  22858463.0634                   22858462.5314
  -9164351.51647  -7120818.06645  22600709.1884                   22600708.0164
   4774974.87146   3729872.85243  24846984.6174                   24846986.2234
  -8678679.38747  -6447569.23844  23110142.4774                   23110140.7154
   3354224.13348   2764762.66846  20785640.1644                   20785638.1454
  11506949.66846   8960676.71943  24898507.5634                   24898507.5554
    318362.23048    264283.11746  21284451.1644                   21284447.6414
  -6854630.30148  -5309333.88346  21092661.6564                   21092659.1804
  10349567.86747   8062101.68845  22282604.8754                   22282602.5204
  -6521270.93747  -5059485.15644  23390922.2194                   23390920.8244
 11  8 22 17  2  0.0000000  0 10G03G08G10G11G13G06G19G07G23G28
   9669418.28147   7526828.29344  22870349.9614                   22870348.6334
  -9271279.39147  -7204138.48445  22580361.6564                   22580359.8364
   4793115.11746   3744008.00843  24850437.0314                   24850437.8794
  -8787056.96947  -6532019.29344  23089518.9614                   23089517.6254
   3382608.61748   2786880.41446  20791041.3674                   20791039.3714
  11572955.73845   9012109.92242  24911067.8204                   24911068.5514
    325336.66848    269717.71146  21285778.3834                   21285774.5944
  -6934141.93748  -5371291.01246  21077530.8054                   21077528.6294
  10416342.42648   8114133.71145  22295312.4924                   22295309.3594
  -6603280.68447  -5123388.83244  23375316.3914                   23375315.1724
 11  8 22 17  2 30.0000000  0 10G03G08G10G11G13G06G19G07G23G28
   9732151.38347   7575711.19544  22882287.3134                   22882286.4574
  -9378213.93447  -7287464.09845  22560012.7894                   22560011.1844
   4811407.08646   3758261.37943  24853917.7974                   24853919.1374
  -8895276.16047  -6616345.91044  23068924.9614                   23068923.8204
   3411492.06648   2809386.95746  20796537.7734                   20796535.9454
  11639088.69545   9063642.01642  24923653.2584                   24923653.6994
    332866.25048    275584.89546  21287211.2034                   21287207.1294
  -7013484.17648  -5433116.13746  21062432.5634                   21062430.3984
  10483377.98847   8166369.11745  22308068.9304                   22308066.5084
  -6685098.91447  -5187143.26644  23359746.7894                   23359745.5354
 11  8 22 17  3  0.0000000  0 10G03G08G10G11G13G06G19G07G23G28
   9795137.60947   7624791.30143  22894272.8134                   22894271.9224
  -9485169.33647  -7370805.95345  22539659.7504                   22539658.2704
   4829832.78547   3772618.96943  24857424.0234                   24857425.6414
  -9003349.10547  -6700558.59444  23048359.7504                   23048358.4654
   3440857.08648   2832268.74646  20802125.7034                   20802123.8094
  11705330.49245   9115258.94142  24936257.6024                   24936259.2894
    340933.79348    281871.27346  21288746.4844                   21288742.6454
  -7092670.81248  -5494820.01646  21047363.9304                   21047361.6214
  10550656.35247   8218793.73845  22320871.5084                   22320869.2974
  -6766741.36747  -5250760.73044  23344210.8444                   23344208.7934
 11  8 22 17  3 30.0000000  0  9G03G08G10G11G13G19G07G23G28
   9858388.32446   7674077.52343  22906309.5004                   22906308.0434
  -9592129.52047  -7454151.55145  22519305.7814                   22519304.1214
   4848404.01647   3787089.95743  24860958.1484                   24860959.6484
  -9111258.08247  -6784643.49244  23027825.3444                   23027823.9304
   3470716.44948   2855535.74646  20807807.8444                   20807805.7704
    349552.38347    288587.04746  21290386.6804                   21290382.7154
  -7171685.22748  -5556389.69146  21032327.8834                   21032325.5354
  10618189.00447   8271416.49645  22333722.9534                   22333720.1644
  -6848194.22747  -5314230.44544  23328710.7424                   23328709.3524
 11  8 22 17  4  0.0000000  0  9G03G08G10G11G13G19G07G23G28
   9921895.87147   7723563.86343  22918394.6174                   22918393.6094
  -9699098.44147  -7537503.94545  22498950.5634                   22498948.8054
   4867112.82446   3801668.14842  24864518.2814                   24864519.5784
  -9219005.52347  -6868602.53144  23007321.6564                   23007320.6764
   3501062.85548   2879182.26246  20813582.5944                   20813580.6294
    358715.26648    295726.93446  21292130.0784                   21292126.2464
  -7250530.92648  -5617827.90646  21017324.2034                   21017321.6454
  10685968.04347   8324231.24245  22346620.8204                   22346617.9924
  -6929463.14847  -5377556.85944  23313245.5554                   23313244.6764
 11  8 22 17  4 30.0000000  0  9G03G08G10G11G13G19G07G23G28
   9985651.00446   7773243.15644  22930526.7344                   22930525.6994
  -9806080.88347  -7620866.85245  22478592.3754                   22478590.9804
   4885950.30946   3816346.62143  24868102.8834                   24868104.3094
  -9326594.63347  -6952438.16444  22986848.3134                   22986846.6604
   3531887.27748   2903201.26646  20819448.5474                   20819446.2624
    368414.19947    303284.55946  21293975.8914                   21293971.9264
  -7329212.38747  -5679138.12546  21002351.4454                   21002348.7704
  10753984.32847   8377230.86745  22359563.8054                   22359560.9654
  -7010555.29747  -5440745.50444  23297814.2894                   23297813.1764
 11  8 22 17  5  0.0000000  0  9G03G08G10G11G13G19G07G23G28
  10049654.62546   7823116.02344  22942706.1024                   22942705.7344
  -9913071.35547  -7704236.06245  22458232.7734                   22458231.4384
   4904917.71546   3831126.25443  24871712.3754                   24871713.7814
  -9434017.93047  -7036144.64544  22966405.7974                   22966404.2504
   3563192.27048   2927594.71546  20825405.7584                   20825403.7234
    378651.49647    311261.63746  21295923.8444                   21295919.7034
  -7407723.90248  -5740315.95746  20987411.4534                   20987408.9494
  10822238.90247   8430416.13745  22372552.4144                   22372549.1294
  -7091466.87547  -5503793.48044  23282417.3444                   23282415.7584
 11  8 22 17  5 30.0000000  0  9G03G08G10G11G13G19G07G23G28
  10113908.97746   7873184.28944  22954933.3364                   22954932.5274
 -10020063.73447  -7787606.73845  22437872.6724                   22437871.6884
   4924017.26246   3846008.92643  24875346.7504                   24875349.0944
  -9541267.67247  -7119715.85544  22945997.0634                   22945995.8014
   3594980.77348   2952364.93046  20831454.8204                   20831452.7934
    389430.34847    319660.73846  21297974.7974                   21297971.3834
  -7486058.62948  -5801356.00846  20972504.9534                   20972502.2854
  10890733.80547   8483788.68845  22385586.5394                   22385583.8874
  -7172193.71547  -5566697.47744  23267055.2894                   23267054.1914
 11  8 22 17  6  0.0000000  0  9G03G08G10G11G13G19G07G23G28
  10178405.10947   7923440.95744  22967206.8914                   22967205.9804
 -10127063.19547  -7870982.93445  22417511.7974                   22417510.3674
   4943239.86746   3860987.47743  24879005.0554                   24879007.3014
  -9648347.02347  -7203154.29744  22925620.5784                   22925619.3014
   3627244.50048   2977505.44946  20837594.5704                   20837592.6134
    400743.27347    328475.98846  21300127.5394                   21300123.9574
  -7564220.90248  -5862261.67646  20957630.7974                   20957628.5314
  10959460.38747   8537341.77045  22398664.9384                   22398662.0204
  -7252742.67647  -5629462.87144  23251727.6884                   23251726.2344
 11  8 22 17  6 30.0000000  0 10G03G08G10G24G11G13G19G07G23G28
  10243127.02347   7973873.55944  22979523.2344                   22979522.8134
 -10234081.30147  -7954373.66445  22397146.2424                   22397145.2234
   4962569.72746   3876049.58243  24882683.9224                   24882685.8284
   4551682.23456   3569459.29752  24379312.9924                   24379316.9844
  -9755266.09047  -7286467.83644  22905274.6094                   22905273.3834
   3659967.90648   3003004.16846  20843821.3204                   20843819.5004
    412574.59448    337695.18446  21302379.1174                   21302374.9494
  -7642221.91848  -5923041.69146  20942788.2504                   20942785.3054
  11028402.48447   8591062.77345  22411783.7424                   22411781.3284
  -7333127.82447  -5692100.60244  23236430.0314                   23236429.5904
 11  8 22 17  7  0.0000000  0 10G03G08G10G24G11G13G19G07G23G28
  10308079.36747   8024485.72744  22991883.3444                   22991882.6134
 -10341108.54347  -8037771.51245  22376779.9924                   22376778.7664
   4982011.72746   3891199.04743  24886383.6024                   24886385.4144
   4444894.21446   3486247.94843  24358992.0004                   24358995.7274
  -9862013.77047  -7369647.82444  22884960.8364                   22884959.7934
   3693156.76248   3028865.55946  20850137.2344                   20850134.9844
    424930.41448    347323.07846  21304730.4774                   21304726.0634
  -7720052.18448  -5983688.66046  20927977.6254                   20927975.1374
  11097564.75847   8644955.33245  22424945.1804                   22424942.7464
  -7413341.86347  -5754605.01644  23221166.2194                   23221165.1564
 11  8 22 17  7 30.0000000  0 10G03G08G10G24G11G13G19G07G23G28
  10373240.93447   8075260.91044  23004283.3984                   23004282.2854
 -10448162.16047  -8121189.89145  22356408.1724                   22356407.0944
   5001544.60246   3906419.33643  24890100.1254                   24890102.4804
   4337992.25446   3402947.81643  24338649.2664                   24338652.5394
  -9968605.50847  -7452706.29344  22864677.3364                   22864676.0664
   3726790.43848   3055073.57446  20856537.1724                   20856535.2734
    437790.60548    357343.99246  21307177.7814                   21307174.0634
  -7797728.25848  -6044215.47746  20913196.3364                   20913193.7234
  11166925.74247   8699002.75845  22438144.4224                   22438141.7974
  -7493403.71947  -5816990.84444  23205930.8834                   23205930.1294
 11  8 22 17  8  0.0000000  0 10G03G08G10G24G11G13G19G07G23G28
  10438610.98047   8126198.55144  23016722.1564                   23016721.4494
 -10555238.95347  -8204626.34445  22336032.1414                   22336031.3874
   5021167.89146   3921710.10243  24893834.5634                   24893837.4144
   4230981.49646   3319562.90643  24318285.8984                   24318288.8834
 -10075036.21547  -7535639.27344  22844423.7894                   22844423.0704
   3760868.67648   3081628.01246  20863022.5474                   20863019.8984
    451155.16848    367757.91846  21309721.0084                   21309717.3444
  -7875246.41048  -6104619.23446  20898444.7194                   20898442.3834
  11236484.74647   8753204.48045  22451381.1024                   22451378.6134
  -7573312.48047  -5879257.38744  23190725.3364                   23190723.3914
 11  8 22 17  8 30.0000000  0 10G03G08G10G24G11G13G19G07G23G28
  10504205.75447   8177311.27044  23029204.9224                   23029204.4184
 -10662318.25847  -8288064.74245  22315655.6564                   22315654.3634
   5040897.92346   3937083.98943  24897589.5004                   24897591.2464
   4123883.60246   3236110.08643  24297906.1414                   24297908.8834
 -10181283.75047  -7618429.52344  22824205.8284                   22824205.0514
   3795408.87948   3108542.41446  20869595.2584                   20869593.0784
    465041.59048    378578.49246  21312363.2974                   21312359.4304
  -7952585.59048  -6164883.53546  20883727.6564                   20883725.2894
  11306258.16047   8807573.26645  22464658.6334                   22464655.9104
  -7653049.33647  -5941389.95744  23175551.1334                   23175550.1254
 11  8 22 17  9  0.0000000  0 10G03G08G10G24G11G13G19G07G23G28
  10570022.52746   8228597.01244  23041728.9144                   23041728.8244
 -10769398.47347  -8371503.85545  22295279.0164                   22295277.9454
   5060732.14146   3952539.08243  24901364.5474                   24901366.1524
   4016701.81346   3152591.90243  24277510.1024                   24277512.9734
 -10287344.62547  -7701074.33244  22804023.4454                   22804022.1334
   3830408.67248   3135814.93046  20876255.5864                   20876253.4264
    479448.22747    389804.42246  21315104.7344                   21315101.1414
  -8029743.30948  -6225006.43746  20869044.9614                   20869042.6844
  11376243.52047   8862107.20745  22477976.5394                   22477973.8014
  -7732614.68047  -6003388.91044  23160410.7274                   23160409.1024
 11  8 22 17  9 30.0000000  0  9G03G08G24G11G13G19G07G23G28
  10636035.32446   8280035.48043  23054291.4694                   23054290.3054
 -10876501.23047  -8454960.54745  22274898.0004                   22274896.4614
   3909415.35546   3068992.11343  24257093.5164                   24257096.5824
 -10393239.55547  -7783589.82044  22783871.9534                   22783870.7584
   3865842.31348   3163425.50846  20882998.1804                   20882996.2074
    494349.47748    401415.76646  21317940.5004                   21317936.7504
  -8106742.07448  -6285005.47346  20854392.9384                   20854390.0824
  11446414.18847   8916785.54745  22491329.6414                   22491327.0234
  -7812032.75847  -6065273.08644  23145297.7584                   23145296.4454
 11  8 22 17 10  0.0000000  0  9G03G08G24G11G13G19G07G23G28
  10702251.75846   8331632.62143  23066891.6724                   23066891.3794
 -10983614.91847  -8538425.75045  22254514.8914                   22254514.2114
   3802037.20746   2985320.89843  24236660.3524                   24236663.2774
 -10498955.10947  -7865965.55144  22763754.7734                   22763753.8754
   3901718.18848   3191380.67246  20889825.2344                   20889823.3524
    509753.79347    413419.10946  21320871.8594                   21320868.2934
  -8183568.96548  -6344870.58646  20839773.2734                   20839770.8164
  11516777.86347   8971614.27345  22504719.4224                   22504717.2854
  -7891294.10947  -6127035.15244  23130215.1334                   23130212.9224
 11  8 22 17 10 30.0000000  0  9G03G08G24G11G13G19G07G23G28
  10768672.64147   8383389.08244  23079531.5864                   23079531.0664
 -11090734.20347  -8621895.31245  22234130.7974                   22234129.8164
   3694574.03546   2901583.39543  24216210.4534                   24216213.4774
 -10604484.09447  -7948195.87944  22743673.5784                   22743672.3284
   3938037.60248   3219681.47346  20896737.1254                   20896734.9654
    525663.07047    425815.92246  21323898.8754                   21323895.3054
  -8260218.12148  -6404597.19946  20825186.9534                   20825184.5314
  11587335.23447   9026593.93845  22518146.3674                   22518143.2974
  -7970395.42247  -6188672.49244  23115162.3204                   23115161.2814
 11  8 22 17 11  0.0000000  0  9G03G08G24G11G13G19G07G23G28
  10835306.76247   8435311.70344  23092211.1954                   23092210.8364
 -11197846.23447  -8705359.21945  22213748.1484                   22213746.8404
   3587040.13746   2817790.82043  24195747.6724                   24195749.8484
 -10709811.88747  -8030269.44544  22723630.0864                   22723629.1804
   3974809.99648   3248335.22746  20903734.2584                   20903732.5864
    542086.88748    438613.68046  21327025.0164                   21327021.1914
  -8336676.75448  -6464175.35246  20810637.5864                   20810635.1094
  11658095.04747   9081731.35245  22531611.7584                   22531609.1094
  -8049325.92247  -6250176.73444  23100142.1254                   23100140.7424
 11  8 22 17 11 30.0000000  0  9G03G08G24G11G13G19G07G23G28
  10902137.30547   8487387.39844  23104928.7114                   23104928.1644
 -11304962.99647  -8788826.81645  22193364.6954                   22193363.1884
   3479424.84046   2733934.81643  24175268.7814                   24175271.4654
 -10814949.35947  -8112194.69944  22703622.9534                   22703621.4884
   4012019.34048   3277329.46546  20910815.2194                   20910813.1294
    559009.43048    451800.04746  21330244.9144                   21330241.2034
  -8412956.36748  -6523614.01646  20796121.9384                   20796119.4344
  11729040.80147   9137013.64145  22545111.9144                   22545109.5004
  -8128099.93047  -6311559.04344  23085151.8284                   23085150.7664
 11  8 22 17 12  0.0000000  0  9G03G08G24G11G13G19G07G23G28
  10969176.02047   8539625.28943  23117685.7664                   23117684.9924
 -11412068.34847  -8872285.52045  22172982.9224                   22172981.3874
   3371745.22747   2650028.68043  24154778.5474                   24154781.0864
 -10919878.77347  -8193957.82844  22683655.6254                   22683654.4494
   4049677.80148   3306673.67246  20917981.2734                   20917979.5824
    576443.49648    465385.00846  21333562.6094                   21333558.5944
  -8489040.38748  -6582900.27346  20781643.8284                   20781640.8834
  11800183.76647   9192449.60545  22558650.4304                   22558647.7464
  -8206703.69147  -6372808.69144  23070194.2344                   23070192.8794
 11  8 22 17 12 30.0000000  0  9G03G08G24G11G13G19G07G23G28
  11036403.46547   8592010.21144  23130479.3834                   23130478.4574
 -11519178.06647  -8955747.63345  22152601.0314                   22152599.2814
   3263987.03546   2566061.30943  24134273.0004                   24134275.2624
 -11024614.18447  -8275569.80144  22663725.2974                   22663723.5044
   4087765.86348   3336352.62946  20925229.0084                   20925227.1644
    594369.83248    479353.54346  21336973.5554                   21336970.3484
  -8564944.20348  -6642046.09846  20767199.6804                   20767196.9574
  11871504.13747   9248023.78944  22572221.8134                   22572219.8014
  -8285155.07447  -6433939.60544  23055265.2424                   23055264.1604
 11  8 22 17 13  0.0000000  0  9G03G08G24G11G13G19G07G23G28
  11103817.61747   8644540.66044  23143307.6564                   23143307.2464
 -11626289.16047  -9039210.81245  22132217.9534                   22132216.9454
   3156154.42246   2482035.94543  24113752.5234                   24113755.2464
 -11129151.28147  -8357027.23044  22643832.2894                   22643831.0044
   4126282.73848   3366365.72746  20932558.8914                   20932556.6724
    612787.64548    493705.04746  21340478.7034                   21340475.0474
  -8640664.58248  -6701049.00046  20752790.7194                   20752788.0864
  11943000.17247   9303734.86345  22585827.4924                   22585825.5004
  -8363453.46947  -6494951.29744  23040365.6484                   23040364.4264
 11  8 22 17 13 30.0000000  0  9G03G08G24G11G13G19G07G23G28
  11171426.60247   8697222.90243  23156173.2974                   23156172.8754
 -11733389.54747  -9122665.65245  22111837.3914                   22111836.1604
   3048260.83246   2397963.09043  24093220.9924                   24093223.5004
 -11233476.17247  -8438319.31644  22623980.0314                   22623978.5514
   4165236.61748   3396719.34446  20939971.3444                   20939969.4304
    631705.36348    508446.08246  21344078.6024                   21344074.9774
  -8716189.01248  -6759899.19946  20738418.7194                   20738415.9144
  12014680.26247   9359589.34045  22599467.9694                   22599465.6804
  -8441588.79347  -6555835.92644  23025497.3284                   23025495.6764
 11  8 22 17 14  0.0000000  0  9G03G08G24G11G13G19G07G23G28
  11239234.65247   8750060.28943  23169076.7734                   23169076.6054
 -11840470.67647  -9206105.49245  22091460.7974                   22091459.1684
   2940316.25846   2313850.50043  24072679.6954                   24072682.6524
 -11337578.82847  -8519438.22344  22604170.2194                   22604168.5124
   4204632.07048   3427417.05146  20947468.1484                   20947466.3794
    651128.21148    523580.74646  21347774.9454                   21347770.9264
  -8791508.60248  -6818589.80146  20724085.8594                   20724083.5664
  12086548.15247   9415590.16445  22613143.5944                   22613141.7704
  -8519554.85547  -6616588.68444  23010660.6564                   23010659.3834
 11  8 22 17 14 30.0000000  0  9G03G08G24G11G13G19G07G23G28
  11307234.43847   8803047.07443  23182016.7894                   23182016.1454
 -11947535.45747  -9289532.58245  22071086.8054                   22071085.7854
   2832318.89846   2229696.74243  24052129.1334                   24052131.4264
 -11441461.00047  -8600385.33244  22584402.0004                   22584400.6764
   4244462.27048   3458453.52346  20955047.6804                   20955045.2464
    671049.60548    539103.89146  21351566.0944                   21351561.8554
  -8866626.09048  -6877122.90246  20709791.4614                   20709789.1254
  12158595.93447   9471731.16044  22626853.9774                   22626852.2974
  -8597357.11347  -6677213.78144  22995855.6174                   22995853.9734
 11  8 22 17 15  0.0000000  0  9G03G08G24G11G13G19G07G23G28
  11375406.11746   8856167.79743  23194989.9454                   23194988.8794
 -12054599.84447  -9372959.35945  22050712.8754                   22050711.8714
   2724254.43446   2145490.71143  24031564.7814                   24031567.0944
 -11545136.61347  -8681171.47344  22564672.8284                   22564671.3524
   4284707.49248   3489813.37946  20962706.2504                   20962704.1334
    691449.86748    555000.17646  21355447.8674                   21355444.1174
  -8941556.47748  -6935510.22746  20695532.7814                   20695530.1524
  12230804.17247   9527997.20344  22640594.2814                   22640592.4454
  -8675013.37147  -6737725.13345  22981077.7034                   22981076.7384
 11  8 22 17 15 30.0000000  0  9G03G08G24G11G13G19G07G23G28
  11443764.96946   8909434.37944  23207997.8054                   23207997.7624
 -12161643.02747  -9456369.61345  22030343.5474                   22030342.4534
   2616144.32446   2061249.13743  24010992.2814                   24010994.0864
 -11648583.92247  -8761779.72344  22544987.2894                   22544985.7854
   4325384.18848   3521509.45746  20970446.5474                   20970444.4654
    712345.62148    571282.56346  21359424.1414                   21359420.6294
  -9016279.41448  -6993735.90246  20681313.6174                   20681310.9694
  12303188.37547   9584400.34844  22654369.1254                   22654366.9774
  -8752505.57447  -6798108.63344  22966331.6644                   22966329.9574
 11  8 22 17 16  0.0000000  0  9G03G08G24G11G13G19G07G23G28
  11512322.92646   8962856.09043  23221043.6254                   23221043.6914
 -12268649.32847  -9539751.12545  22009980.9534                   22009979.6214
   2508005.89846   1976985.49243  23990413.4694                   23990415.4534
 -11751785.50447  -8842196.50844  22525349.2274                   22525347.4384
   4366504.14548   3553550.92246  20978271.5234                   20978269.5354
    733749.16448    587960.60546  21363496.7814                   21363493.5004
  -9090778.55548  -7051787.18446  20667137.0634                   20667134.7624
  12375759.97347   9640949.52044  22668179.2974                   22668177.0744
  -8829820.38747  -6858353.92645  22951619.2504                   22951617.5704
 11  8 22 17 16 30.0000000  0  9G03G08G24G11G13G19G07G23G28
  11581054.51647   9016413.11343  23234123.2664                   23234122.6914
 -12375640.02047  -9623120.47745  21989621.0164                   21989620.0824
   2399819.22746   1892684.28143  23969826.4384                   23969828.6254
 -11854761.30547  -8922437.35545  22505753.2584                   22505751.9494
   4408042.17648   3585918.17246  20986176.1724                   20986174.0004
    755635.64148    605014.98046  21367662.0784                   21367658.2154
  -9165074.37548  -7109680.03546  20652998.6334                   20652996.6684
  12448493.30147   9697624.71944  22682020.3754                   22682017.8914
  -8906981.43447  -6918479.40244  22936935.6174                   22936934.6884
 11  8 22 17 17  0.0000000  0  9G03G08G24G11G13G19G07G23G28
  11649969.83646   9070113.28543  23247237.8054                   23247237.2304
 -12482600.34847  -9706466.16045  21969267.1484                   21969265.8164
   2291600.15646   1808357.81343  23949233.1564                   23949234.9774
 -11957495.21547  -9002489.70344  22486203.3834                   22486202.1254
   4450008.64848   3618619.27746  20994162.0864                   20994160.0234
    778015.50448    622453.82846  21371920.5944                   21371917.2194
  -9239152.32448  -7167403.10246  20638902.1254                   20638900.1024
  12521398.35947   9754433.73844  22695893.7814                   22695891.7974
  -8983976.20747  -6978475.27744  22922283.3444                   22922282.5234
 11  8 22 17 17 30.0000000  0  9G03G08G24G11G13G19G07G23G28
  11719072.69946   9123959.57043  23260387.1334                   23260387.0704
 -12589522.85947  -9789782.39145  21948920.6094                   21948919.3754
   2183357.71146   1724013.09843  23928635.0314                   23928637.8954
 -12059977.84047  -9082346.26644  22466701.5554                   22466700.2854
   4492407.25048   3651657.10246  21002230.2034                   21002228.5664
    800893.04748    640280.46946  21376274.0474                   21376270.1994
  -9313004.57847  -7224950.31246  20624848.5314                   20624846.3834
  12594478.44547   9811379.12544  22709800.7274                   22709798.2704
  -9060799.39847  -7038337.47345  22907664.9614                   22907663.4224
 11  8 22 17 18  0.0000000  0  9G03G08G24G11G13G19G07G23G28
  11788350.20346   9177941.97344  23273571.2034                   23273570.0664
 -12696415.26647  -9873075.16445  21928579.6954                   21928578.5634
   2075085.07846   1639644.86343  23908031.0944                   23908033.5204
 -12162215.95747  -9162012.31244  22447246.2114                   22447245.0394
   4535226.00848   3685022.31646  21010378.2114                   21010376.4304
    824256.38748    658485.65646  21380720.3204                   21380716.1684
  -9386638.72748  -7282327.57446  20610836.4924                   20610834.3404
  12667720.98047   9868451.10544  22723738.9224                   22723736.2384
  -9137461.52047  -7098074.16845  22893076.7034                   22893075.1954
 11  8 22 17 18 30.0000000  0  9G03G08G24G11G13G19G07G23G28
  11857801.92246   9232060.11343  23286787.1644                   23286786.3134
 -12803273.40648  -9956341.23045  21908245.6094                   21908243.9924
   1966787.65646   1555257.32043  23887422.4384                   23887425.0354
 -12264203.60547  -9241483.18044  22427839.0864                   22427837.9384
   4578464.89548   3718714.89546  21018606.4224                   21018604.4144
    848105.67648    677069.50046  21385258.1564                   21385254.4574
  -9460050.39147  -7339531.47746  20596866.5394                   20596864.4304
  12741125.52347   9925649.32844  22737706.5944                   22737704.9414
  -9213960.80547  -7157683.97344  22878519.3984                   22878517.5514
 11  8 22 17 19  0.0000000  0  9G03G08G24G11G13G19G07G23G28
  13502838.45346  10513906.68443  23599826.7814                   23599826.0274
 -11334676.21547  -8811979.76245  22187710.2034                   22187709.1914
   3433887.83646   2698452.32843  24166602.7344                   24166605.3094
 -10790519.21147  -8093157.64844  22708271.7814                   22708270.4264
   6197535.41448   4980328.22346  21326705.6334                   21326703.6564
   2447853.52047   1923626.23446  21689680.2114                   21689676.7504
  -7957819.21148  -6168961.73046  20882731.7424                   20882729.5864
  14390102.35547  11210566.20344  23051496.3914                   23051494.4144
  -7714879.69147  -5989568.79745  23163785.5394                   23163783.4304
 11  8 22 17 19 30.0000000  0  9G03G08G24G11G13G19G07G23G28
  13572625.25846  10568285.91843  23613106.7584                   23613106.2704
 -11441465.89847  -8895192.49245  22167388.4774                   22167387.3874
   3325544.41446   2614028.94943  24145985.6724                   24145988.1054
 -10892003.30147  -8172236.12145  22688960.0784                   22688958.7074
   6241601.33648   5014665.25046  21335091.1564                   21335089.3554
   2472662.38348   1942957.79746  21694401.4694                   21694397.9494
  -8030785.23448  -6225818.37546  20868846.7274                   20868844.4804
  14463816.78947  11268005.87144  23065523.9534                   23065522.3204
  -7791061.04747  -6048930.84444  23149288.0474                   23149286.1454
 11  8 22 17 20  0.0000000  0  9G03G08G24G11G13G19G07G23G28
  13642576.44146  10622793.28544  23626418.4454                   23626417.9734
 -11548218.12147  -8978376.02045  22147074.8754                   22147073.0664
   3217183.16446   2529591.66843  24125365.3204                   24125367.9104
 -10993230.16447  -8251114.16445  22669696.8204                   22669695.4144
   6286077.86348   5049322.23046  21343554.7344                   21343553.0434
   2497948.29348   1962661.08646  21699213.1414                   21699209.6724
  -8103524.33248  -6282498.21546  20855005.1484                   20855002.5664
  14537682.69547  11325563.57044  23079580.4774                   23079579.0204
  -7867083.82447  -6108169.35944  23134821.3674                   23134820.0944
 11  8 22 17 20 30.0000000  0  9G03G08G24G11G13G19G07G23G28
  13712702.92647  10677437.24243  23639763.0474                   23639762.5514
 -11654917.55947  -9061518.42645  22126770.2504                   22126768.7304
   3108820.77746   2445153.52043  24104744.3444                   24104747.1564
 -11094182.76647  -8329778.48844  22650486.3984                   22650485.0904
   6330976.23048   5084307.91046  21352098.0864                   21352097.1884
   2523722.98048   1982745.22746  21704117.7344                   21704114.0474
  -8176021.46948  -6338989.50446  20841209.2424                   20841207.1294
  14611711.02047  11383247.83244  23093667.9694                   23093665.7624
  -7942935.24247  -6167274.32444  23120386.8674                   23120386.1094
 11  8 22 17 21  0.0000000  0  9G03G08G24G11G13G19G07G23G28
  13783001.43046  10732215.18843  23653140.4534                   23653139.9734
 -11761562.82047  -9144618.60545  22106476.4774                   22106474.9384
   3000459.37546   2360716.12543  24084123.3204                   24084126.3794
 -11194859.20747  -8408227.63745  22631328.2664                   22631327.2344
   6376292.96148   5119619.58646  21360722.3054                   21360720.7344
   2549983.41047   2003207.88346  21709114.8284                   21709111.2894
  -8248275.07448  -6395291.02746  20827459.9614                   20827457.3954
  14685897.79747  11441055.56344  23107785.1804                   23107783.4694
  -8018616.80147  -6226246.95345  23105985.2504                   23105984.1094
 11  8 22 17 21 30.0000000  0  9G03G08G24G11G13G19G07G23G28
  13853460.96546  10787118.62543  23666548.3754                   23666547.4414
 -11868160.88747  -9227682.02045  22086190.9534                   22086189.6254
   2892093.67646   2276275.37543  24063502.5394                   24063505.2114
 -11295264.56647  -8486465.55545  22612221.9534                   22612220.5044
   6422017.44548   5155249.00046  21369423.2734                   21369421.9384
   2576718.96548   2024040.76646  21714202.3984                   21714198.6484
  -8320291.38747  -6451407.64146  20813755.6094                   20813753.2504
  14760231.79347  11498978.01644  23121930.3444                   23121929.1724
  -8094137.16447  -6285093.98044  23091614.5864                   23091612.8594
 11  8 22 17 22  0.0000000  0  9G03G08G24G11G13G19G07G23G28
  13924085.93446  10842151.00443  23679987.9064                   23679987.5394
 -11974702.55147  -9310701.48445  22065916.9224                   22065915.5234
   2783733.91846   2191839.27043  24042882.1954                   24042885.2624
 -11395388.42647  -8564484.10545  22593168.6804                   22593167.6214
   6468154.58248   5191199.96946  21378202.8594                   21378201.6604
   2603934.81348   2045247.89846  21719381.6564                   21719377.8404
  -8392061.50848  -6507332.41446  20800098.2664                   20800096.0944
  14834717.74647  11557018.88344  23136104.9384                   23136103.7274
  -8169490.14147  -6343810.54344  23077275.3444                   23077273.8244
 11  8 22 17 22 30.0000000  0  9G03G08G24G11G13G19G07G23G28
  13994872.09446  10897308.96143  23693458.1724                   23693458.1994
 -12081187.44947  -9393676.72745  22045653.8054                   22045651.8794
   2675381.63746   2107408.98043  24022263.7814                   24022266.1764
 -11495229.39147  -8642282.21145  22574170.2424                   22574168.1914
   6514699.76648   5227468.88745  21387060.2974                   21387058.8094
   2631626.82448   2066826.06646  21724651.6564                   21724647.7894
  -8463584.93447  -6563064.95746  20786487.6254                   20786485.3714
  14909351.34447  11615174.77344  23150307.2344                   23150305.5864
  -8244678.12147  -6402398.58644  23062967.4924                   23062966.0044
 11  8 22 17 23  0.0000000  0  9G03G08G24G11G13G19G07G23G28
  14065810.83646  10952585.82443  23706957.3594                   23706957.2774
 -12187620.05948  -9476611.22345  22025400.1884                   22025398.3714
   2567033.47346   2022981.90243  24001645.6804                   24001648.0274
 -11594790.67247  -8719862.40245  22555223.5394                   22555222.7774
   6561644.32048   5264049.00846  21395993.3444                   21395991.8404
   2659786.49248   2088768.64146  21730010.3524                   21730006.3484
  -8534865.38748  -6618608.18446  20772923.5554                   20772921.3164
  14984123.30147  11673438.50044  23164535.4224                   23164534.3984
  -8319707.91847  -6460863.35244  23048689.8834                   23048688.3634
 11  8 22 17 23 30.0000000  0  9G03G08G24G11G13G19G07G23G28
  14136885.66846  11007968.71143  23720482.1414                   23720482.4064
 -12294012.09847  -9559514.09845  22005154.5784                   22005152.6564
   2458679.24246   1938550.11343  23981026.3054                   23981028.9884
 -11694082.50447  -8797232.61744  22536328.9614                   22536327.7734
   6608972.25447   5300927.85246  21404999.9304                   21404998.0434
   2688397.84048   2111063.17646  21735454.6884                   21735450.8324
  -8605914.69147  -6673971.28146  20759403.1884                   20759401.1254
  15059017.22747  11731797.23844  23178787.8204                   23178785.8324
  -8394593.82047  -6519215.98045  23034439.2894                   23034437.6484
 11  8 22 17 24  0.0000000  0  9G03G08G24G11G13G19G07G23G28
  14208121.19146  11063476.82443  23734038.2424                   23734038.0704
 -12400334.57447  -9642362.77745  21984922.0234                   21984920.3014
   2350348.83246   1854136.87543  23960412.1724                   23960414.5204
 -11793075.02047  -8874369.60545  22517491.4144                   22517489.8524
   6656707.82048   5338124.34846  21414083.4694                   21414081.9964
   2717485.53948   2133728.88346  21740990.1564                   21740986.2114
  -8676704.07048  -6729131.84046  20745932.5164                   20745930.2384
  15134057.44547  11790269.97344  23193067.2424                   23193066.2194
  -8469309.82847  -6577436.22744  23020221.6254                   23020219.8244
 11  8 22 17 24 30.0000000  0  9G03G08G24G11G13G19G07G23G28
  14279487.87546  11119087.20343  23747618.9384                   23747618.8164
 -12506612.58248  -9725176.78945  21964697.8674                   21964696.3714
   2242018.12946   1769723.42243  23939796.6644                   23939799.4454
 -11891791.93747  -8951291.84045  22498706.5944                   22498704.7894
   6704821.82048   5375615.71946  21423239.5004                   21423238.1914
   2747020.48448   2156743.09446  21746610.1884                   21746606.5124
  -8747257.83248  -6784108.79746  20732506.5394                   20732504.3874
  15209213.88747  11848833.27344  23207369.7814                   23207368.2304
  -8543883.40247  -6635545.48844  23006030.6024                   23006028.7894
 11  8 22 17 25  0.0000000  0  9G03G08G24G11G13G19G07G23G28
  14350987.54746  11174801.08243  23761224.4924                   23761225.0864
 -12612839.73047  -9807951.19145  21944483.3984                   21944482.4144
   2133694.86746   1685315.74643  23919183.4224                   23919186.3674
 -11990225.78147  -9027993.49645  22479975.0554                   22479973.1024
   6753315.71548   5413403.12146  21432467.4844                   21432465.9224
   2777004.60548   2180107.31646  21752315.7894                   21752312.4384
  -8817570.22348  -6838897.68746  20719126.3984                   20719124.4964
  15284488.34047  11907488.53544  23221694.1094                   23221692.4614
  -8618310.91047  -6693540.92644  22991867.3834                   22991866.2274
 11  8 22 17 25 30.0000000  0  9G03G08G24G11G13G19G07G23G28
  14422628.37546  11230625.03143  23774857.5784                   23774857.6994
 -12719003.27748  -9890676.01245  21924281.2114                   21924279.7194
   2025392.96546   1600924.70343  23898574.1804                   23898577.3674
 -12088363.07847  -9104464.05945  22461300.2504                   22461297.8874
   6802198.02748   5451493.18046  21441769.6174                   21441768.4144
   2807446.99248   2203828.60946  21758109.1884                   21758105.2344
  -8887627.48048  -6893487.76246  20705795.3364                   20705792.8594
  15359889.18047  11966242.28944  23236042.3834                   23236040.4344
  -8692581.97347  -6751414.46545  22977734.3284                   22977732.4104
 11  8 22 17 26  0.0000000  0  9G03G08G24G11G13G19G07G23G28
  14494393.14146  11286545.54743  23788514.0864                   23788514.4964
 -12825115.96548  -9973361.22345  21904088.7274                   21904087.1054
   1917100.63746   1516541.13343  23877967.0234                   23877969.6214
 -12186214.84847  -9180712.14845  22442679.1954                   22442677.8164
   6851451.43448   5489872.40646  21451142.1644                   21451140.8794
   2838330.33248   2227893.52046  21763985.9224                   21763982.2234
  -8957442.73048  -6947889.25846  20692509.7974                   20692507.5004
  15435398.34847  12025080.44544  23250411.6174                   23250409.4344
  -8766712.16447  -6809178.23444  22963627.7194                   22963625.8364
 11  8 22 17 26 30.0000000  0  9G03G08G24G11G13G19G07G23G28
  14566291.66846  11342570.31643  23802195.4774                   23802196.1174
 -12931164.29748 -10055996.28945  21883908.2664                   21883906.7734
   1808833.49647   1432177.17243  23857364.5704                   23857366.8134
 -12283766.00847  -9256725.99645  22424115.4774                   22424114.1174
   6901085.61748   5528548.32846  21460587.0314                   21460585.9844
   2869664.21948   2252309.49246  21769948.4534                   21769945.3134
  -9027001.83248  -7002091.16846  20679273.4384                   20679271.0234
  15511025.78147  12084010.76244  23264803.2424                   23264800.9494
  -8840690.34047  -6866823.55144  22949550.4224                   22949548.4924
 11  8 22 17 27  0.0000000  0  9G03G08G24G11G13G19G07G23G28
  14638316.63746  11398693.59043  23815901.7664                   23815902.1134
 -13037150.02348 -10138582.57045  21863740.0234                   21863738.3674
   1700590.28546   1347831.86343  23836766.4844                   23836768.1484
 -12381017.57047  -9332506.38745  22405609.0784                   22405607.4844
   6951093.76248   5567515.64545  21470103.6174                   21470102.2624
   2901442.42648   2277071.69146  21775995.8284                   21775992.4024
  -9096306.66448  -7056094.93446  20666085.1024                   20666082.7154
  15586764.19947  12143027.57444  23279215.7894                   23279213.6724
  -8914521.29347  -6924354.13744  22935500.5474                   22935499.0204
 11  8 22 17 27 30.0000000  0  9G03G08G24G11G13G19G07G23G28
  14710489.90646  11454932.44543  23829635.9304                   23829636.2934
 -13143046.80947 -10221099.53945  21843588.3204                   21843586.9494
   1592398.16847   1263526.33643  23816177.8364                   23816180.1024
 -12477942.80547  -9408032.48845  22387165.4694                   22387163.6334
   7001497.54348   5606791.25045  21479695.1724                   21479693.7624
   2933686.49248   2302196.89146  21782131.2194                   21782128.2344
  -9165331.12148  -7109880.23446  20652949.9774                   20652947.8284
  15662635.28547  12202147.74644  23293653.3204                   23293651.4614
  -8988181.42647  -6981751.62145  22921483.5084                   22921482.0084
 11  8 22 17 28  0.0000000  0  9G03G08G24G11G13G19G07G23G28
  14782790.01246  11511270.13743  23843394.5474                   23843394.0744
 -13248871.88348 -10303560.63345  21823450.7504                   21823449.2074
   1484241.18446   1179248.19543  23795596.7974                   23795598.6374
 -12574557.60547  -9483316.69545  22368779.8524                   22368778.2664
   7052274.67248   5646357.77745  21489357.7584                   21489356.0394
   2966374.68448   2327668.17246  21788352.3444                   21788348.6294
  -9234092.49248  -7163460.53146  20639865.1644                   20639862.9454
  15738616.62147  12261353.78944  23308112.1414                   23308110.6414
  -9061690.86347  -7039031.68444  22907494.9774                   22907493.3524
 11  8 22 17 28 30.0000000  0  9G03G08G24G11G13G19G07G23G28
  14855209.83246  11567701.07843  23857175.1024                   23857175.8874
 -13354628.30548 -10385968.23445  21803325.8914                   21803324.5784
   1376118.11347   1094996.52343  23775021.5704                   23775023.6644
 -12670863.42247  -9558360.14145  22350453.1564                   22350452.0274
   7103418.09048   5686209.73045  21499090.5084                   21499088.9614
   2999500.41448   2353480.39846  21794655.9534                   21794652.1844
  -9302592.86348  -7216837.46146  20626829.9614                   20626827.6024
  15814700.78547  12320639.98044  23322590.9454                   23322589.5514
  -9135054.84447  -7096198.39145  22893534.1644                   22893532.8834
 11  8 22 17 29  0.0000000  0  9G03G08G24G11G13G19G07G23G28
  14927755.98446  11624230.50443  23870979.8754                   23870980.9304
 -13460304.64148 -10468313.42645  21783216.3834                   21783215.0704
   1268040.87547   1010780.54343  23754454.8594                   23754457.5084
 -12766848.10247  -9633153.34845  22332188.1884                   22332186.6724
   7154934.47347   5726352.31345  21508893.3674                   21508891.9384
   3033070.02048   2379638.50046  21801043.9774                   21801040.5904
  -9370821.55548  -7270002.68446  20613846.3364                   20613844.1564
  15890894.35547  12380011.39844  23337090.1484                   23337088.6564
  -9208265.00447  -7153245.25045  22879603.1414                   22879601.3674
 11  8 22 17 29 30.0000000  0  9G03G08G24G11G13G19G07G23G28
  15000425.55146  11680856.06643  23884808.8444                   23884809.8874
 -13565899.04748 -10550594.77345  21763122.1174                   21763120.6684
   1160012.47747    926602.60543  23733898.1564                   23733900.1804
 -12862508.84447  -9707694.14845  22313984.5004                   22313983.2194
   7206820.92648   5766783.24645  21518766.9924                   21518765.8524
   3067081.21148   2406140.68446  21807515.6174                   21807512.1994
  -9438776.30948  -7322954.45746  20600915.2664                   20600912.5944
  15967194.47747  12439465.86744  23351609.9064                   23351608.7934
  -9281322.53147  -7210173.17245  22865700.3444                   22865699.0274
 11  8 22 17 30  0.0000000  0  9G03G08G24G11G13G19G07G23G28
  15073210.35946  11737571.45743  23898659.7584                   23898660.0274
 -13671415.26248 -10632815.18745  21743043.4384                   21743041.8324
   1052030.53547    842460.88743  23713349.3984                   23713351.8754
 -12957848.37947  -9781984.66445  22295841.9384                   22295840.4304
   7259068.87948   5807495.87145  21528709.5704                   21528708.4024
   3101525.75848   2432980.54346  21814070.4844                   21814067.0634
  -9506460.78948  -7375695.61746  20588035.5474                   20588033.0084
  16043592.42247  12498996.53544  23366148.2584                   23366146.8014
  -9354233.70347  -7266987.04745  22851825.6334                   22851824.5394
 11  8 22 17 30 30.0000000  0  9G03G08G24G11G13G19G07G23G28
  15146115.93046  11794380.90243  23912533.2894                   23912533.4774
 -13776842.96148 -10714966.62945  21722981.3284                   21722979.5234
    944106.07846    758363.97344  23692812.0634                   23692814.5784
 -13052855.69147  -9856016.28545  22277762.5864                   22277760.8484
   7311684.10948   5848494.68046  21538722.0314                   21538720.5664
   3136409.35548   2460162.53946  21820708.2734                   21820705.0664
  -9573864.87948  -7428218.29746  20575208.3834                   20575206.5434
  16120093.41047  12558607.52744  23380705.8754                   23380705.1764
  -9426991.14147  -7323681.14545  22837980.5164                   22837979.3164
 11  8 22 17 31  0.0000000  0  9G03G08G24G11G13G19G07G23G28
  15219133.69946  11851277.80143  23926428.8364                   23926428.3094
 -13882186.46948 -10797052.47745  21702935.0864                   21702933.5634
    836235.74647    674309.26243  23672285.4224                   23672287.2734
 -13147534.17647  -9929791.69945  22259745.5474                   22259744.1454
   7364657.03948   5889772.21545  21548802.1804                   21548801.2704
   3171723.19148   2487679.78546  21827429.0004                   21827425.2974
  -9640992.89148  -7480525.85546  20562434.6094                   20562432.4694
  16196688.80147  12618292.05544  23395281.8134                   23395280.0944
  -9499601.87547  -7380260.92245  22824163.0704                   22824161.5164
 11  8 22 17 31 30.0000000  0  9G03G08G24G11G13G19G07G23G28
  15292260.54346  11908259.66043  23940343.9774                   23940344.3594
 -13987444.38348 -10879071.62145  21682904.8444                   21682903.3954
    728422.47747    590299.00843  23651768.8674                   23651771.2814
 -13241881.27347 -10003308.89545  22241792.4534                   22241790.3914
   7417984.56648   5931326.06646  21558950.4694                   21558949.5394
   3207464.16448   2515529.86345  21834230.4304                   21834226.1604
  -9707843.55948  -7532617.30546  20549713.3284                   20549711.0004
  16273374.81647  12678047.21544  23409875.0004                   23409873.5044
  -9572067.47347  -7436727.60544  22810373.3834                   22810371.9064
 11  8 22 17 32  0.0000000  0  9G03G08G24G11G13G19G07G23G28
  15365503.85946  11965332.30143  23954281.7814                   23954282.0634
 -14092605.25448 -10961015.16446  21662893.5864                   21662892.0514
    620679.19947    506343.27743  23631265.7504                   23631268.1914
 -13335884.02347 -10076557.78545  22223904.0634                   22223902.3204
   7471674.02048   5973161.91445  21569166.9224                   21569165.7114
   3243639.51648   2543718.41446  21841113.8754                   21841110.4804
  -9774404.70348  -7584483.16046  20537047.3984                   20537045.2544
  16350158.73847  12737878.63343  23424485.5394                   23424485.2194
  -9644378.69947  -7493074.01644  22796612.9694                   22796611.3134
 11  8 22 17 32 30.0000000  0  9G03G08G24G11G13G19G07G23G28
  15438858.78146  12022491.91844  23968240.8444                   23968241.3954
 -14197668.87948 -11042882.90645  21642900.3754                   21642898.5594
    513006.89847    422442.87944  23610776.3204                   23610779.0984
 -13429541.84847 -10149537.88345  22206081.5314                   22206080.0634
   7525720.33248   6015275.85245  21579451.8834                   21579450.5554
   3280244.71148   2572241.91846  21848079.8054                   21848075.9804
  -9840676.60248  -7636123.61346  20524436.0234                   20524433.3754
  16427035.27347  12797782.22743  23439115.2584                   23439113.7624
  -9716538.75847  -7549302.62145  22782881.0944                   22782879.7464
 11  8 22 17 33  0.0000000  0  9G03G08G24G11G13G19G07G23G28
  15512309.34446  12079726.05543  23982218.1724                   23982218.5824
 -14302646.28948 -11124683.46545  21622924.1644                   21622922.4574
    405395.17647    338589.68044  23590298.5234                   23590300.7074
 -13522865.55547 -10222257.63345  22188322.4534                   22188320.6414
   7580107.56647   6057655.44945  21589801.4064                   21589799.8444
   3317263.62548   2601087.79745  21855124.2814                   21855120.7074
  -9906670.44948  -7687547.40646  20511877.7504                   20511875.8554
  16503988.67647  12857745.75844  23453759.3134                   23453757.8874
  -9788561.68747  -7605424.36745  22769175.7974                   22769174.6954
 11  8 22 17 33 30.0000000  0  9G03G08G24G11G13G19G07G23G28
  15585864.75846  12137041.91043  23996215.3594                   23996215.6994
 -14407524.38348 -11206406.64545  21602966.3984                   21602964.9304
    297858.82447    254795.21543  23569834.9384                   23569837.1684
 -13615839.86347 -10294705.12145  22170629.9924                   22170628.6334
   7634844.17648   6100307.30145  21600217.7114                   21600215.8364
   3354705.60548   2630263.33245  21862249.3524                   21862245.7344
  -9972372.60248  -7738743.88746  20499375.1724                   20499372.7074
  16581027.59047  12917775.89544  23468419.4144                   23468418.4654
  -9860436.82847  -7661430.94945  22755498.6414                   22755497.3054
 11  8 22 17 34  0.0000000  0  9G03G08G24G11G13G19G07G23G28
  15659506.87146  12194425.27343  24010228.8134                   24010229.3014
 -14512316.46548 -11288062.80545  21583025.2504                   21583023.2854
    190385.37547    171049.76243  23549383.1334                   23549385.4104
 -13708478.08247 -10366890.73445  22153001.4534                   22153000.2274
   7689911.65647   6143216.95745  21610696.5944                   21610695.0514
   3392552.24248   2659754.20345  21869451.5944                   21869447.6414
 -10037796.89148  -7789723.86346  20486925.2504                   20486923.0664
  16658133.56347  12977858.27744  23483092.1724                   23483091.0204
  -9932180.44947  -7717335.05545  22741846.1954                   22741844.9534
 11  8 22 17 34 30.0000000  0  9G03G08G24G11G13G19G07G23G28
  15733247.28146  12251885.29743  24024261.5004                   24024261.6484
 -14617006.18048 -11369639.20345  21563103.3444                   21563101.6024
     82991.92646     87366.62543  23528947.0634                   23528949.0314
 -13800763.19947 -10438801.19545  22135440.5474                   22135438.9534
   7745321.83248   6186393.65245  21621240.8444                   21621239.8134
   3430815.29748   2689569.53545  21876732.1334                   21876728.7344
 -10102927.03148  -7840474.62546  20474531.5394                   20474529.1524
  16735317.71947  13038001.57844  23497780.6484                   23497778.9064
 -10003779.46947  -7773126.47745  22728221.2814                   22728219.8444
 11  8 22 17 35  0.0000000  0  9G03G08G24G11G13G19G07G23G28
  15807075.41846  12309413.63342  24038310.2274                   24038310.8364
 -14721599.41448 -11451140.41845  21543199.8054                   21543197.9924
    -24326.19146      3742.21143  23508524.9534                   23508527.2734
 -13892699.97347 -10510440.22745  22117945.5164                   22117943.5984
   7801063.66848   6229828.77745  21631848.2814                   21631847.1644
   3469484.05548   2719701.00845  21884091.3284                   21884087.7344
 -10167769.18048  -7891000.97346  20462192.5004                   20462190.3164
  16812569.35247  13098197.43844  23512480.9844                   23512480.2774
 -10075242.52747  -7828811.94945  22714622.4144                   22714620.8054
 11  8 22 17 35 30.0000000  0  9G03G08G24G11G13G19G07G23G28
  15880994.30546  12367012.66842  24052376.0164                   24052377.5704
 -14826089.47748 -11532561.25045  21523316.1644                   21523314.3634
   -131560.62547    -79816.99643  23488119.1094                   23488120.8204
 -13984280.53547 -10581801.69545  22100518.2114                   22100516.6294
   7857139.50847   6273524.16045  21642519.1484                   21642517.8524
   3508561.43448   2750150.88345  21891527.0084                   21891523.4614
 -10232315.97748  -7941297.19146  20449909.5314                   20449907.5354
  16889890.96146  13158447.84043  23527194.2504                   23527194.0164
 -10146565.26247  -7884388.07845  22701050.1254                   22701048.2894
 11  8 22 17 36  0.0000000  0  9G03G08G24G11G13G19G07G23G28
  15954986.66045  12424668.98042  24066455.8674                   24066458.2734
 -14930488.54748 -11613911.16845  21503449.3054                   21503447.5314
   -238722.86747   -163319.94543  23467726.4844                   23467728.1954
 -14075516.28547 -10652894.48045  22083156.7194                   22083154.8794
   7913532.58247   6317466.73445  21653250.4144                   21653249.1844
   3548029.98048   2780905.56645  21899037.8054                   21899034.7504
 -10296579.88748  -7991372.96946  20437680.7734                   20437678.5354
  16967265.41846  13218739.40643  23541918.4694                   23541917.8914
 -10217763.15247  -7939866.93445  22687501.3674                   22687499.9884
 11  8 22 17 36 30.0000000  0  8G08G24G11G13G19G07G23G28
 -15034786.01248 -11695181.91445  21483602.3754                   21483600.6524
   -345801.54747   -246757.80943  23447350.4454                   23447352.0864
 -14166396.20747 -10723709.99245  22065862.4614                   22065861.3954
   7970247.55148   6361660.14845  21664042.9844                   21664042.0164
   3587895.54348   2811969.61745  21906624.2034                   21906620.5314
 -10360550.61748  -8041220.29746  20425507.6724                   20425505.2424
  17044698.04746  13279076.30543  23556653.3834                   23556653.0434
 -10288828.55547  -7995242.54345  22673978.3834                   22673976.6174
 11  8 22 17 37  0.0000000  0  8G08G24G11G13G19G07G23G28
 -15138980.40248 -11776372.34445  21463775.1094                   21463773.4884
   -452794.17647   -330128.60543  23426990.0314                   23426991.9024
 -14256918.46147 -10794246.79745  22048636.6884                   22048635.2774
   8027281.03947   6406101.76245  21674896.3364                   21674895.2194
   3628154.76247   2843340.40245  21914284.9924                   21914281.8984
 -10424226.81248  -8090838.11746  20413390.2814                   20413387.9804
  17122185.21547  13339455.70743  23571399.8134                   23571398.9344
 -10359763.46947  -8050516.49245  22660479.8594                   22660478.1454
 11  8 22 17 37 30.0000000  0  8G08G24G11G13G19G07G23G28
 -15243063.59448 -11857476.12145  21443968.4774                   21443966.8244
   -559691.67247   -413425.27344  23406648.1484                   23406649.9344
 -14347074.04747 -10864497.89545  22031480.3984                   22031479.2894
   8084636.21147   6450794.02745  21685810.8134                   21685809.1454
   3668810.60547   2875020.24245  21922021.6024                   21922018.6334
 -10487600.64548  -8140220.32846  20401330.3914                   20401328.0084
  17199730.18447  13399880.15644  23586156.1414                   23586155.1994
 -10430562.28147  -8105684.38345  22647007.4064                   22647005.6294
 11  8 22 17 38  0.0000000  0  8G08G24G11G13G19G07G23G28
 -15347028.17247 -11938487.47746  21424184.6174                   21424183.1024
   -666485.15246   -496640.89844  23386325.8134                   23386327.7074
 -14436854.44147 -10934456.62145  22014395.9384                   22014394.3324
   8142316.05947   6495739.29345  21696786.2894                   21696785.2344
   3709866.56347   2907011.85545  21929834.1484                   21929830.9734
 -10550664.41448  -8189360.94546  20389330.1644                   20389327.4694
  17277335.91447  13460351.96144  23600923.8984                   23600923.4384
 -10501220.37947  -8160742.62145  22633561.3914                   22633560.0164
 11  8 22 17 38 30.0000000  0  8G08G24G11G13G19G07G23G28
 -15450884.20748 -12019414.25045  21404421.7194                   21404420.2854
   -773183.93047   -579782.73844  23366021.6174                   23366023.9574
 -14526269.28147 -11004130.52045  21997380.5554                   21997379.4024
   8200305.10547   6540925.48045  21707821.6024                   21707820.4614
   3751307.64147   2939303.56345  21937720.2734                   21937716.9654
 -10613428.77048  -8238268.24646  20377386.2344                   20377384.1174
  17354986.86347  13520858.98044  23615700.7194                   23615700.2854
 -10571751.23847  -8215701.71545  22620139.9384                   22620138.5704
 11  8 22 17 39  0.0000000  0  8G08G24G11G13G19G07G23G28
 -15554638.98448 -12100262.12546  21384677.0864                   21384676.2034
   -879794.41447   -662855.78143  23345734.0394                   23345736.3054
 -14615325.20347 -11073524.73445  21980433.8984                   21980433.0234
   8258590.86747   6586342.87545  21718913.0394                   21718912.0824
   3793121.00047   2971885.35945  21945677.2344                   21945673.8364
 -10675901.07448  -8286947.97746  20365498.4384                   20365495.7504
  17432671.32447  13581392.10544  23630483.8674                   23630482.9454
 -10642164.91047  -8270569.49645  22606740.5084                   22606739.0274
 11  8 22 17 39 30.0000000  0  8G08G24G11G13G19G07G23G28
 -15658298.31248 -12181035.62146  21364951.7504                   21364950.3754
   -986321.32846   -745863.68744  23325463.2424                   23325464.9144
 -14704027.53147 -11142643.41045  21963554.8364                   21963553.4104
   8317162.91447   6631983.35245  21730059.0084                   21730057.9064
   3835297.10947   3004749.82445  21953703.3204                   21953699.4104
 -10738087.14848  -8335404.66846  20353664.9064                   20353662.2034
  17510378.37547  13641942.81344  23645271.0944                   23645270.7894
 -10712470.24647  -8325352.85245  22593362.0084                   22593360.1564
 11  8 22 17 40  0.0000000  0  8G08G24G11G13G19G07G23G28
 -15761846.30548 -12261722.36746  21345247.9144                   21345246.0474
  -1092747.66047   -828793.24644  23305210.1024                   23305212.4384
 -14792359.67647 -11211473.64545  21946745.8984                   21946744.3284
   8376031.94147   6677855.23845  21741261.4774                   21741260.4064
   3877846.71147   3037905.30945  21961800.1884                   21961796.3594
 -10799971.12548  -8383625.97346  20341888.8674                   20341886.3404
  17588119.07846  13702519.73044  23660064.3594                   23660064.0434
 -10782654.33247  -8380041.73445  22580006.2504                   22580004.3404
 11  8 22 17 40 30.0000000  0  8G08G24G11G13G19G07G23G28
 -15865275.92248 -12342316.87546  21325565.4774                   21325564.0824
  -1199065.29347   -911638.10543  23284978.6334                   23284980.4534
 -14880313.80147 -11280009.31245  21930008.5394                   21930007.0124
   8435199.89147   6723960.06345  21752521.2114                   21752519.8834
   3920772.00847   3071353.55146  21969968.5784                   21969965.2774
 -10861546.19948  -8431606.55946  20330171.0634                   20330168.5474
  17665895.64146  13763124.59443  23674864.8754                   23674864.8984
 -10852713.08247  -8434632.94545  22566674.4614                   22566673.1644
 11  8 22 17 41  0.0000000  0  8G08G24G11G13G19G07G23G28
 -14393159.61748 -11195213.26646  21605699.8594                   21605698.3674
    270154.00847    233208.17643  23564562.1094                   23564564.1414
 -13392462.83647 -10120644.90645  22213137.2664                   22213135.1804
  10070083.39847   7997895.18445  22063629.2584                   22063628.2664
   5539490.41847   4332692.51245  22277999.8984                   22277997.1884
  -9347386.78148  -7251742.09446  20618306.2584                   20618304.2774
  19319124.06646  15051354.27743  23989463.8754                   23989464.3054
  -9347223.24647  -7261523.96545  22853159.8284                   22853157.8794
 11  8 22 17 41 30.0000000  0  9G17G08G24G11G13G19G07G23G28
   7646654.96556   5987707.67253  24759039.2584                   24759043.4414
 -14496370.02048 -11275636.95746  21586059.6334                   21586057.9264
    164038.67647    150520.97743  23544369.3284                   23544370.1214
 -13479676.96547 -10188603.96145  22196540.7344                   22196539.4304
  10129816.21147   8044440.15245  22074995.8284                   22074994.8094
   5583134.65647   4366700.96145  22286305.5164                   22286302.4964
  -9408362.75048  -7299255.84446  20606702.6954                   20606699.8754
  19396939.09446  15111989.10543  24004272.1174                   24004272.2624
  -9417058.23447  -7315940.81245  22839870.4064                   22839868.8134
 11  8 22 17 42  0.0000000  0  9G17G08G24G11G13G19G07G23G28
   7505927.84047   5878050.32043  24732260.3984                   24732263.7504
 -14599471.18748 -11355975.52746  21566440.2664                   21566438.3634
     58025.67247     67913.52043  23524195.0864                   23524196.9614
 -13566521.18447 -10256274.77045  22180015.0864                   22180012.7974
  10189823.52348   8091199.02745  22086415.0234                   22086413.4534
   5627130.60947   4400983.47345  22294677.9454                   22294674.1374
  -9469039.75448  -7346536.64546  20595156.3754                   20595153.9104
  19474765.52046  15172632.80543  24019081.7734                   24019082.3914
  -9486786.43447  -7370274.46145  22826601.5704                   22826599.9694
 11  8 22 17 42 30.0000000  0  9G17G08G24G11G13G19G07G23G28
   7365270.10547   5768447.03543  24705494.0474                   24705496.5864
 -14702466.58648 -11436231.67646  21546840.4924                   21546839.1134
    -47887.34047    -14616.01244  23504040.8134                   23504042.2154
 -13652997.87948 -10323659.20345  22163558.8524                   22163557.4454
  10250096.88348   8138165.19545  22097884.6954                   22097883.5434
   5671470.17647   4435533.73445  22303115.5004                   22303112.2774
  -9529421.14848  -7393587.10546  20583666.3364                   20583663.5164
  19552595.55546  15233279.34043  24033892.7814                   24033892.9144
  -9556414.17247  -7424529.80945  22813352.0164                   22813350.3554
 11  8 22 17 43  0.0000000  0  9G17G08G24G11G13G19G07G23G28
   7224685.70347   5658900.86343  24678741.6644                   24678744.4384
 -14805352.33248 -11516402.39146  21527262.2664                   21527260.6764
   -153695.42247    -97063.80143  23483905.9924                   23483907.4884
 -13739102.71947 -10390753.87945  22147173.7194                   22147172.2544
  10310635.14547   8185337.79345  22109404.6884                   22109403.4344
   5716152.39147   4470350.99245  22311618.2974                   22311614.9104
  -9589503.54748  -7440404.56646  20572233.0164                   20572230.5274
  19630428.12546  15293927.84443  24048704.2194                   24048704.1994
  -9625940.38347  -7478706.05145  22800121.1484                   22800119.2274
 11  8 22 17 43 30.0000000  0  9G17G08G24G11G13G19G07G23G28
   7084177.10246   5549413.78543  24652004.0084                   24652006.1414
 -14908125.51648 -11596485.39546  21507704.8674                   21507703.5594
   -259395.21947   -179427.17644  23463791.6024                   23463793.5234
 -13824832.45747 -10457556.27345  22130859.7894                   22130858.5474
  10371435.63347   8232714.70745  22120974.5474                   22120973.6454
   5761174.93447   4505433.44945  22320185.5474                   22320182.4694
  -9649284.73848  -7486987.32446  20560857.0634                   20560854.5354
  19708260.56646  15354576.30143  24063515.3754                   24063515.4964
  -9695365.74247  -7532803.71145  22786910.2034                   22786908.3014
 11  8 22 17 44  0.0000000  0  9G17G08G24G11G13G19G07G23G28
   6943746.39846   5439987.39543  24625280.7584                   24625283.0124
 -15010783.89148 -11676478.93446  21488169.7894                   21488167.8404
   -364983.66047   -261703.78144  23443698.9224                   23443700.7074
 -13910184.62548 -10524064.45745  22114617.8914                   22114616.5594
  10432495.36347   8280293.63345  22132593.8134                   22132592.9144
   5806535.10947   4540778.98845  22328817.6414                   22328814.1844
  -9708762.62148  -7533333.73846  20549538.7424                   20549536.3834
  19786090.32446  15415222.60543  24078325.8984                   24078326.4884
  -9764690.95347  -7586823.33245  22773718.1724                   22773716.3594
 11  8 22 17 44 30.0000000  0  9G17G08G24G11G13G19G07G23G28
   6803397.50447   5330624.77043  24598572.7114                   24598575.8244
 -15113323.85248 -11756380.19946  21468656.9224                   21468655.4614
   -470456.00447   -343889.93044  23423628.5004                   23423630.0824
 -13995155.01648 -10590275.14545  22098448.6334                   22098446.7424
  10493813.11347   8328073.60245  22144262.4064                   22144261.5204
   5852231.64147   4576386.62946  22337513.5164                   22337510.2074
  -9767933.84048  -7579441.19946  20538278.7894                   20538276.4734
  19863916.03946  15475865.75843  24093135.8444                   24093136.5204
  -9833915.61347  -7640764.61345  22760545.3204                   22760543.0904
 11  8 22 17 45  0.0000000  0  9G17G08G24G11G13G19G07G23G28
   6663139.09046   5221332.66443  24571882.8984                   24571885.3204
 -15215736.76648 -11836182.46146  21449168.2664                   21449167.0434
   -575802.37547   -425977.91444  23403581.5634                   23403583.3794
 -14079734.13348 -10656180.94945  22082353.5864                   22082351.7344
  10555392.42647   8376057.40245  22155980.7194                   22155979.9104
   5898268.28947   4612259.29745  22346273.8594                   22346270.4804
  -9826789.28148  -7625302.58646  20527078.9614                   20527076.5124
  19941741.71946  15536508.85943  24107946.0084                   24107946.5784
  -9903033.91847  -7694623.00845  22747392.2664                   22747390.2504
 11  8 22 17 45 30.0000000  0  9G17G08G24G11G13G19G07G23G28
   6522958.60246   5112101.28543  24545206.4614                   24545209.1954
 -15318035.05948 -11915895.41046  21429701.5084                   21429700.3284
   -681034.39847   -507976.80144  23383556.4304                   23383557.6804
 -14163934.35248 -10721791.50845  22066331.2344                   22066329.0044
  10617215.39848   8424231.06645  22167745.1414                   22167744.3404
   5944627.72747   4648383.48445  22355096.1334                   22355092.5084
  -9885342.09448  -7670928.18046  20515936.7274                   20515934.1644
  20019549.51646  15597138.02044  24122752.8594                   24122753.4774
  -9972061.35547  -7748410.60245  22734256.6484                   22734255.3134
 11  8 22 17 46  0.0000000  0  9G17G08G24G11G13G19G07G23G28
   6382859.43046   5002933.27343  24518546.5234                   24518548.9384
 -15420214.66448 -11995515.87546  21410257.4924                   21410255.9654
   -786147.75047   -589883.19144  23363554.2734                   23363555.4414
 -14247751.81248 -10787103.81245  22050381.0474                   22050379.2344
  10679280.34847   8472593.28145  22179556.0084                   22179555.1954
   5991308.78147   4684758.29345  22363978.8364                   22363975.5394
  -9943589.38748  -7716315.69546  20504852.7034                   20504850.3984
  20097338.31346  15657752.39144  24137555.4144                   24137556.2304
 -10040997.69547  -7802127.22345  22721138.4144                   22721136.3984
 11  8 22 17 46 30.0000000  0  9G17G08G24G11G13G19G07G23G28
   6242847.97346   4893833.62543  24491903.0864                   24491905.2974
 -15522269.21548 -12075038.89545  21390837.4064                   21390835.9454
   -891134.99647   -671691.33244  23343575.2974                   23343577.3014
 -14331179.84048 -10852112.67245  22034505.1884                   22034503.7704
  10741588.86347   8521145.28545  22191412.8524                   22191412.0634
   6038312.48047   4721384.50445  22372923.4694                   22372920.1254
 -10001524.85248  -7761460.22746  20493828.0634                   20493825.4924
  20175109.65247  15718353.15244  24152355.5394                   24152355.9184
 -10109839.95747  -7855770.51645  22708038.3524                   22708036.3404
 11  8 22 17 47  0.0000000  0  9G17G08G24G11G13G19G07G23G28
   6102933.76246   4784809.75844  24465278.6094                   24465280.6024
 -15624189.65648 -12154457.41446  21371442.3914                   21371441.0554
   -995985.74247   -753393.10544  23323622.5634                   23323624.4224
 -14414208.58648 -10916810.38745  22018705.3984                   22018703.7034
  10804144.78947   8569890.07445  22203317.1644                   22203315.6844
   6085643.38747   4758265.69145  22381930.3594                   22381927.1524
 -10059139.38748  -7806354.68746  20482864.5944                   20482861.9024
  20252867.66847  15778943.53543  24167152.6254                   24167153.0664
 -10178581.18447  -7909335.10945  22694957.1414                   22694955.5784
 11  8 22 17 47 30.0000000  0  9G17G08G24G11G13G19G07G23G28
   5963110.46946   4675856.70343  24438670.6254                   24438672.7854
 -15725981.53548 -12233775.75846  21352072.3204                   21352070.8204
  -1100704.88346   -834992.31644  23303695.4924                   23303697.4774
 -14496843.37948 -10981201.13745  22002980.4304                   22002978.9884
  10866937.33647   8618819.23845  22215266.2424                   22215265.1334
   6133290.76247   4795393.48045  22390997.5234                   22390994.1604
 -10116439.16048  -7851003.87146  20471960.5784                   20471957.9694
  20330601.95746  15839515.43443  24181944.5784                   24181945.3444
 -10247230.57047  -7962828.13345  22681893.9924                   22681891.7934
 11  8 22 17 48  0.0000000  0  9G17G08G24G11G13G19G07G23G28
   5823381.62146   4566977.27043  24412080.5394                   24412082.8244
 -15827641.23048 -12312991.10546  21332726.9924                   21332725.5434
  -1205287.98847   -916485.52344  23283793.6564                   23283795.3484
 -14579080.30948 -11045281.87545  21987331.3204                   21987330.1214
  10929964.77347   8667931.42245  22227259.7504                   22227258.7974
   6181253.21947   4832766.77045  22400124.2114                   22400120.6884
 -10173420.84448  -7895405.19946  20461117.0784                   20461114.8054
  20408310.87146  15900067.52743  24196732.7504                   24196732.9924
 -10315787.73847  -8016249.28145  22668847.7734                   22668846.2464
 11  8 22 17 48 30.0000000  0  9G17G08G24G11G13G19G07G23G28
   5683743.01246   4458168.13344  24385508.4454                   24385511.0354
 -15929173.32048 -12392107.02746  21313406.0784                   21313404.3594
  -1309738.53947   -997875.46144  23263917.3284                   23263918.7544
 -14660923.83648 -11109056.04345  21971756.9844                   21971755.3554
  10993217.52348   8717219.17245  22239296.5944                   22239295.3244
   6229521.16447   4870378.10945  22409308.9844                   22409306.0784
 -10230089.26248  -7939562.42246  20450333.6414                   20450331.1414
  20485985.02346  15960592.54343  24211513.5314                   24211514.4734
 -10384260.20347  -8069604.44545  22655817.9384                   22655816.3204
 11  8 22 17 49  0.0000000  0  9G17G08G24G11G13G19G07G23G28
   5544196.78146   4349430.99643  24358953.8834                   24358955.6914
 -16030575.71948 -12471121.87146  21294109.9534                   21294108.2814
  -1414053.31647  -1079159.59044  23244066.4064                   23244068.3984
 -14742371.04748 -11172521.40645  21956257.8834                   21956256.0084
  11056692.67648   8766680.23445  22251375.6024                   22251374.3364
   6278092.13747   4908225.57045  22418551.8754                   22418548.8554
 -10286442.62948  -7983474.15646  20439610.0944                   20439607.4104
  20563622.12146  16021088.67643  24226288.3134                   24226289.1094
 -10452648.75847  -8122894.21545  22642804.1254                   22642802.4924
 11  8 22 17 49 30.0000000  0  9G17G08G24G11G13G19G07G23G28
   5404762.68847   4240781.21144  24332419.8134                   24332421.6884
 -16131828.01248 -12550019.76646  21274842.1954                   21274840.4614
  -1518211.64847  -1160321.82444  23224246.4844                   23224247.7384
 -14823401.87948 -11235662.30945  21940838.7974                   21940836.9614
  11120404.89148   8816326.02345  22263499.7584                   22263498.7464
   6326981.01247   4946320.75845  22427855.8054                   22427852.0904
 -10342461.10948  -8027124.93046  20428950.3594                   20428947.8094
  20641236.73046  16081567.29743  24241057.5864                   24241058.4494
 -10520936.72347  -8176105.59445  22629809.0004                   22629807.8054
 11  8 22 17 50  0.0000000  0  9G17G08G24G11G13G19G07G23G28
   5265434.51647   4132213.94144  24305906.5164                   24305908.8134
 -16232935.95748 -12628805.17646  21255601.8364                   21255600.3794
  -1622218.35947  -1241365.91843  23204454.0864                   23204455.7154
 -14904022.02048 -11298483.18745  21925497.2114                   21925495.4384
  11184342.83247   8866147.69945  22275666.8834                   22275665.6914
   6376176.65247   4984654.98845  22437217.6484                   22437213.9844
 -10398151.07448  -8070519.72746  20418352.5314                   20418349.9844
  20718818.54146  16142020.34743  24255821.0084                   24255822.3484
 -10589133.07047  -8229245.59845  22616831.7974                   22616829.9104
 11  8 22 17 50 30.0000000  0  9G17G08G24G11G13G19G07G23G28
   5126217.96147   4023733.63744  24279414.6724                   24279416.2704
 -16333894.17248 -12707473.89846  21236390.3834                   21236388.6914
  -1726067.00847  -1322286.85944  23184692.3984                   23184693.2274
 -14984225.88348 -11360979.69945  21910234.4924                   21910232.8164
  11248507.16047   8916145.79345  22287877.2274                   22287876.2664
   6425679.75447   5023228.79745  22446637.6804                   22446634.6024
 -10453507.51248  -8113654.63346  20407818.6334                   20407816.1454
  20796367.62546  16202447.89143  24270578.8204                   24270579.2544
 -10657235.10547  -8282312.08645  22603872.4304                   22603871.1644
 11  8 22 17 51  0.0000000  0  9G17G08G24G11G13G19G07G23G28
   4987117.68447   3915343.97744  24252944.4774                   24252946.4964
 -16434697.14148 -12786021.66046  21217207.8364                   21217206.3984
  -1829751.33647  -1403079.77044  23164961.8754                   23164963.0474
 -15064007.76648 -11423147.39545  21895052.5704                   21895051.0044
  11312897.25047   8966319.79345  22300129.8364                   22300129.3244
   6475490.59047   5062042.37945  22456116.1724                   22456113.2504
 -10508525.51648  -8156525.81646  20397348.9774                   20397346.2544
  20873884.44147  16262850.30143  24285329.6954                   24285330.6294
 -10725241.04347  -8335303.70745  22590931.3984                   22590929.8134
 11  8 22 17 51 30.0000000  0  9G17G08G24G11G13G19G07G23G28
   4848129.00847   3807041.26644  24226495.8134                   24226497.0594
 -16535349.89148 -12864452.34046  21198053.9384                   21198052.9614
  -1933275.73047  -1483748.03544  23145261.6414                   23145262.9344
 -15143372.65248 -11484990.13745  21879949.5634                   21879948.4184
  11377503.21147   9016662.01645  22312424.1414                   22312423.8014
   6525598.90247   5101087.80145  22465651.4304                   22465648.1094
 -10563210.36348  -8199137.37946  20386942.7274                   20386940.4534
  20951358.87947  16323219.69943  24300073.2114                   24300073.8484
 -10793159.11747  -8388226.83645  22578007.2194                   22578005.0784
 11  8 22 17 52  0.0000000  0  9G17G08G24G11G13G19G07G23G28
   4709265.25847   3698835.89544  24200070.8754                   24200072.7894
 -16635838.72748 -12942755.34446  21178932.0164                   21178930.5554
  -2036625.48447  -1564280.27344  23125595.3754                   23125596.1414
 -15222306.62948 -11546497.13745  21864929.0084                   21864927.7274
  11442333.53947   9067179.03145  22324760.9454                   22324760.5944
   6576013.46947   5140371.81645  22475244.8674                   22475241.9574
 -10617548.90248  -8241479.13746  20376602.4774                   20376600.4024
  21028800.00847  16383563.10243  24314809.7664                   24314810.3914
 -10860978.63747  -8441073.21545  22565101.3204                   22565099.7734
 11  8 22 17 52 30.0000000  0  9G17G08G24G11G13G19G07G23G28
   4570506.41847   3590712.26244  24173665.6644                   24173667.6414
 -16736183.05147 -13020945.71946  21159837.2814                   21159835.8484
  -2139819.53646  -1644691.14844  23105957.7034                   23105959.0704
 -15300829.37948 -11607683.69145  21849986.8364                   21849985.2934
  11507363.07047   9117851.28144  22337135.2344                   22337134.9734
   6626709.38347   5179875.08645  22484892.7034                   22484889.0784
 -10671561.16448  -8283566.61746  20366324.5314                   20366322.2344
  21106182.90246  16443861.15243  24329535.3284                   24329535.9614
 -10928722.43447  -8493860.57845  22552210.1884                   22552208.1254
 11  8 22 17 53  0.0000000  0  9G17G08G24G11G13G19G07G23G28
   4431868.73847   3482683.06343  24147283.5004                   24147285.5864
 -16836366.68447 -13099010.86746  21140772.9614                   21140771.6174
  -2242840.59447  -1724967.24644  23086353.2974                   23086354.6024
 -15378924.41848 -11668536.95345  21835126.0784                   21835124.4774
  11572602.76647   9168687.30145  22349550.8444                   22349550.1724
   6677697.83647   5219606.29345  22494594.8914                   22494591.8714
 -10725231.32848  -8325387.53546  20356111.5634                   20356108.6684
  21183519.10246  16504122.79343  24344251.9534                   24344253.0274
 -10996377.66047  -8546578.92645  22539335.9774                   22539333.6914
 11  8 22 17 53 30.0000000  0  9G17G08G24G11G13G19G07G23G28
   4293361.50447   3374755.50443  24120926.1174                   24120928.2814
 -16936380.18048 -13176943.45746  21121740.6804                   21121739.2624
  -2345678.53147  -1805100.66044  23066783.9844                   23066785.2344
 -15456582.24648 -11729049.53145  21820348.1254                   21820346.4734
  11638056.84847   9219690.37944  22362006.2894                   22362005.5664
   6728983.55947   5259569.13745  22504353.8834                   22504351.2234
 -10778550.88748  -8366935.25447  20345964.9534                   20345962.4964
  21260813.41846  16564351.84042  24358961.5394                   24358961.4494
 -11063937.96147  -8599223.28545  22526479.6094                   22526476.7504
 11  8 22 17 54  0.0000000  0  9G17G08G24G11G13G19G07G23G28
   4154990.18446   3266933.84843  24094595.0634                   24094597.2074
 -17036217.76248 -13254738.96946  21102742.2344                   21102741.1844
  -2448326.80547  -1885086.26244  23047250.5084                   23047251.9694
 -15533797.15248 -11789216.97345  21805654.1724                   21805653.0634
  11703725.53147   9270860.68444  22374502.3834                   22374501.5634
   6780566.92247   5299763.91845  22514170.4844                   22514167.5434
 -10831514.51248  -8408205.62146  20335885.9924                   20335883.8284
  21338066.18446  16624548.42242  24373661.4694                   24373662.1454
 -11131400.67247  -8651791.60545  22513641.6174                   22513640.2814
 11  8 22 17 54 30.0000000  0  9G17G08G24G11G13G19G07G23G28
   4016750.89146   3159215.06643  24068288.6174                   24068290.5354
 -17135882.97348 -13332400.16846  21083776.8594                   21083775.5664
  -2550787.97347  -1964926.09044  23027752.8984                   23027753.8204
 -15610572.73447 -11849042.08245  21791044.7974                   21791042.9344
  11769600.15647   9322191.46144  22387038.0864                   22387037.5944
   6832439.14847   5340183.78145  22524041.6334                   22524038.3874
 -10884125.84448  -8449201.46946  20325874.8444                   20325872.5944
  21415268.68846  16684705.92243  24388353.0314                   24388354.2304
 -11198772.60947  -8704289.21945  22500821.1024                   22500819.2464
 11  8 22 17 55  0.0000000  0  9G17G08G24G11G13G19G07G23G28
   3878648.18446   3051602.73043  24042008.1954                   24042010.7774
 -17235370.54748 -13409922.95346  21064844.9694                   21064843.1914
  -2653056.56247  -2044615.86344  23008291.7424                   23008292.8914
 -15686903.78948 -11908520.81245  21776519.2894                   21776517.8914
  11835680.22747   9373682.31644  22399612.9614                   22399612.5824
   6884600.22747   5380828.73445  22533967.3674                   22533964.2304
 -10936380.55948  -8489919.43746  20315931.2734                   20315928.7304
  21492420.96546  16744824.23843  24403034.9144                   24403036.4574
 -11266052.09047  -8756714.74645  22488018.0554                   22488016.2274
 11  8 22 17 55 30.0000000  0  8G17G08G24G11G13G19G07G28
   3740683.95346   2944098.26244  24015755.0084                   24015756.6564
 -17334678.61347 -13487305.85546  21045947.2114                   21045945.5204
  -2755130.09046  -2124153.62544  22988868.3594                   22988869.2114
 -15762788.87148 -11967652.02345  21762079.1094                   21762077.6644
  11901961.82047   9425330.18844  22412225.7194                   22412225.4384
   6937046.84447   5421696.18445  22543947.4924                   22543944.8524
 -10988277.44548  -8530358.58647  20306055.3444                   20306053.0434
 -11333240.50447  -8809069.34845  22475232.4924                   22475231.7464
 11  8 22 17 56  0.0000000  0  8G17G08G24G11G13G19G07G28
   3602855.14546   2836699.33244  23989526.3984                   23989528.5004
 -17433809.96948 -13564551.06246  21027083.2274                   21027081.5044
  -2857010.06846  -2203540.57044  22969480.3914                   22969481.6994
 -15838230.36347 -12026437.57845  21747722.9924                   21747721.4414
  11968437.04347   9477128.94144  22424875.6254                   22424875.3324
   6989771.17247   5462780.02045  22553980.6334                   22553977.8484
 -11039819.52048  -8570521.25846  20296247.1724                   20296245.0554
 -11400343.82047  -8861357.64145  22462463.2664                   22462461.6844
 11  8 22 17 56 30.0000000  0  8G17G08G24G11G13G19G07G28
   3465174.94946   2729416.19944  23963326.9064                   23963328.6764
 -17532750.95348 -13641647.93046  21008255.3444                   21008253.4534
  -2958682.24646  -2282765.60944  22950133.2894                   22950134.3554
 -15913214.84848 -12084867.02345  21733453.8524                   21733452.5704
  12035114.50847   9529085.29744  22437564.2114                   22437563.9574
   7042781.64847   5504086.82845  22564068.4844                   22564065.1914
 -11090994.24648  -8610397.67646  20286508.7504                   20286506.9224
 -11467351.51647  -8913571.40645  22449711.8134                   22449710.4924
 11  8 22 17 57  0.0000000  0  8G17G08G24G11G13G19G07G28
   3327643.45747   2622248.91844  23937155.7424                   23937157.0904
 -17631501.46548 -13718596.38346  20989463.4224                   20989461.9494
  -3060145.75447  -2361828.04744  22930825.4304                   22930826.2774
 -15987742.47348 -12142940.48045  21719271.6254                   21719270.0944
  12101988.69147   9581194.94145  22450289.9064                   22450289.5474
   7096073.36747   5545612.78145  22574209.2504                   22574206.3324
 -11141801.62548  -8649987.85547  20276840.8834                   20276838.2774
 -11534266.56247  -8965712.98045  22436978.9304                   22436976.8364
 11  8 22 17 57 30.0000000  0  8G17G08G24G11G13G19G07G28
   3190265.03946   2515200.93044  23911013.3594                   23911015.5594
 -17730056.64148 -13795392.63346  20970709.5474                   20970707.7424
  -3161394.87147  -2440723.41844  22911558.1024                   22911559.4694
 -16061808.48048 -12200654.21945  21705177.3754                   21705175.8634
  12169059.05547   9633457.46144  22463053.4454                   22463052.8554
   7149646.04747   5587357.67645  22584404.0474                   22584400.8164
 -11192237.77748  -8689288.77047  20267243.1334                   20267240.6844
 -11601087.65247  -9017781.35245  22424262.9224                   22424261.9534
 11  8 22 17 58  0.0000000  0  9G17G08G26G24G11G13G19G07G28
   3053040.35946   2408272.71144  23884900.7814                   23884902.1254
 -17828415.05948 -13872035.55146  20951992.0784                   20951990.8954
   7672560.48055   6005250.68052  24153254.9694                   24153255.4654
  -3262427.69547  -2519450.25444  22892332.3444                   22892333.1954
 -16135411.85948 -12258007.48045  21691170.8054                   21691169.2114
  12236321.52347   9685869.66044  22475852.5164                   22475852.2114
   7203495.46147   5629318.21145  22594650.5474                   22594648.1484
 -11242301.95748  -8728299.83247  20257716.0394                   20257713.6374
 -11667816.61347  -9069777.93045  22411564.7974                   22411563.1844
 11  8 22 17 58 30.0000000  0  9G17G08G26G24G11G13G19G07G28
   2915963.51246   2301459.69944  23858815.0554                   23858816.9104
 -17926582.28948 -13948529.50446  20933311.9774                   20933310.8164
   7548238.17645   5908376.23443  24129597.7114                   24129598.4844
  -3363249.30947  -2598012.48044  22873145.9304                   22873147.5984
 -16208558.48448 -12315004.82445  21677251.6254                   21677249.8244
  12303764.71147   9738422.69144  22488686.7114                   22488686.2464
   7257610.60547   5671485.79345  22604948.8444                   22604946.0904
 -11292000.63348  -8767026.07446  20248258.5944                   20248256.1884
 -11734462.47747  -9121709.75845  22398883.0314                   22398880.7114
 11  8 22 17 59  0.0000000  0  9G17G08G26G24G11G13G19G07G28
   2779026.46146   2194755.62144  23832756.7504                   23832758.6454
 -18024566.19148 -14024880.59046  20914666.1254                   20914664.3444
   7424268.59445   5811776.62943  24106005.8204                   24106007.6054
  -3463866.65647  -2676415.58244  22853999.5394                   22854000.4574
 -16281256.21547 -12371652.38745  21663417.6804                   21663416.3054
  12371375.49247   9791106.30144  22501552.7424                   22501552.6844
   7311978.81647   5713850.58245  22615294.7974                   22615292.2624
 -11341342.16848  -8805474.04347  20238869.4844                   20238867.0234
 -11801036.65647  -9173585.72345  22386213.9144                   22386212.1604
 11  8 22 17 59 30.0000000  0  9G17G08G26G24G11G13G19G07G28
   2642233.28546   2088163.62944  23806726.0004                   23806727.6024
 -18122362.43747 -14101085.46146  20896055.9384                   20896054.7424
   7300656.64845   5715455.75443  24082483.6884                   24082485.2774
  -3564274.68446  -2754655.53544  22834892.5474                   22834893.5554
 -16353501.09048 -12427947.07445  21649670.0164                   21649668.1604
  12439153.30947   9843920.06344  22514450.6484                   22514450.2234
   7366599.43047   5756412.04345  22625688.8204                   22625685.9144
 -11390322.84048  -8843640.82047  20229548.6484                   20229546.5084
 -11867537.71547  -9225404.71945  22373559.1884                   22373557.8204
 11  8 22 18  0  0.0000000  0  9G17G08G26G24G11G13G19G07G28
   2505579.24246   1981680.06344  23780721.5394                   23780722.8404
 -18219975.16848 -14177147.32446  20877480.9694                   20877479.7234
   7177398.53546   5619410.50443  24059029.2274                   24059029.8444
  -3664476.66847  -2832734.97744  22815824.4614                   22815825.1174
 -16425297.48448 -12483892.29345  21636007.5784                   21636006.0234
  12507087.84447   9896855.93845  22527378.4614                   22527378.2034
   7421462.80147   5799162.67645  22636128.9774                   22636125.8404
 -11438947.22748  -8881529.97346  20220295.7584                   20220293.4144
 -11933973.05947  -9277172.50445  22360916.9304                   22360915.2274
 11  8 22 18  0 30.0000000  0  9G17G08G26G24G11G13G19G07G28
   2369077.93046   1875315.52344  23754746.0234                   23754747.5044
 -18317390.46148 -14253055.34046  20858943.5554                   20858942.1994
   7054508.30546   5523651.94143  24035643.9774                   24035644.3984
  -3764458.43447  -2910642.80944  22796798.9924                   22796799.3834
 -16496631.87947 -12539477.51645  21622433.2274                   21622431.2504
  12575187.57047   9949920.55145  22540337.7424                   22540336.9654
   7476577.28947   5842108.98845  22646617.1804                   22646614.0434
 -11487202.63748  -8919131.60246  20211113.1254                   20211111.0004
 -12000332.18747  -9328880.89545  22348289.5474                   22348287.3014
 11  8 22 18  1  0.0000000  0  9G17G08G26G24G11G13G19G07G28
   2232731.35246   1769071.54744  23728800.4614                   23728801.4964
 -18414605.91848 -14328807.64546  20840443.6884                   20840442.4614
   6931989.01246   5428182.40643  24012328.7894                   24012329.7344
  -3864216.73447  -2988376.49644  22777815.5004                   22777816.4024
 -16567501.95747 -12594700.93445  21608947.0164                   21608945.3324
  12643449.80947  10003111.77745  22553327.4534                   22553327.5204
   7531940.82047   5885249.32845  22657152.5554                   22657149.4304
 -11535087.37548  -8956444.40646  20202000.8204                   20201998.3754
 -12066616.03547  -9380530.62945  22335675.9614                   22335674.3714
 11  8 22 18  1 30.0000000  0  9G17G08G26G24G11G13G19G07G28
   2096542.06647   1662950.12544  23702883.6564                   23702885.4224
 -18511618.20748 -14404401.62546  20821983.1334                   20821981.8054
   6809843.70346   5333004.27343  23989085.3524                   23989086.4654
  -3963748.00847  -3065933.30544  22758874.7424                   22758875.5904
 -16637905.39847 -12649560.73845  21595549.7114                   21595547.5044
  12711871.86747  10056427.56344  22566347.6174                   22566347.7274
   7587550.64547   5928581.61744  22667734.3984                   22667731.2894
 -11582598.71148  -8993466.24246  20192959.7504                   20192957.8054
 -12132824.68747  -9432121.78945  22323077.1484                   22323075.0124
 11  8 22 18  2  0.0000000  0  9G17G08G26G24G11G13G19G07G28
   1960521.82847   1556960.43444  23677000.4924                   23677001.2544
 -18608415.14848 -14479827.81246  20803563.1564                   20803561.4184
   6688085.39146   5238127.72744  23965915.3364                   23965915.7774
  -4063039.09447  -3143302.94144  22739980.4534                   22739981.7854
 -16707830.06247 -12704047.48845  21582243.2584                   21582241.6134
  12780460.64147  10109873.24244  22579399.8524                   22579399.5824
   7643414.00047   5972111.45345  22678365.1414                   22678362.4574
 -11629725.50848  -9030188.43446  20183992.0554                   20183989.6484
 -12198949.28947  -9483647.43745  22310493.5944                   22310491.6524
 11  8 22 18  2 30.0000000  0  9G17G08G26G24G11G13G19G07G28
   3400075.46547   2678690.64844  23950938.0234                   23950939.9064
 -17129592.95748 -13327498.82846  21084973.7034                   21084971.9844
   8142118.85246   6371140.86744  24242608.4224                   24242608.8404
  -2586685.47747  -1992897.48844  23020921.0704                   23020922.3164
 -15201873.66847 -11530574.96145  21868817.4534                   21868815.8094
  14424608.85947  11391027.56644  22892270.5234                   22892270.7734
   9274924.42647   7243418.22345  22988831.1804                   22988828.3134
 -10101066.31248  -7839025.43446  20474886.3054                   20474883.7734
 -10689590.66847  -8307523.82045  22597715.1174                   22597713.1804
 11  8 22 18  3  0.0000000  0  9G17G08G26G24G11G13G19G07G28
   3264374.32047   2572949.56644  23925115.1254                   23925115.8674
 -17225977.47348 -13402603.64846  21066632.3524                   21066630.8794
   8021116.56346   6276853.42244  24219582.9454                   24219583.7584
  -2685512.85947  -2069905.80944  23002114.7344                   23002115.7734
 -15270860.35247 -11584330.81645  21855689.6564                   21855687.9344
  14493496.10247  11444705.81644  22905379.7194                   22905379.5514
   9331261.20347   7287316.94945  22999551.7274                   22999548.6604
 -10147444.32848  -7875164.16846  20466060.7114                   20466058.4804
 -10755575.36747  -8358940.46545  22585158.2814                   22585157.2664
 11  8 22 18  3 30.0000000  0  9G17G08G26G24G11G13G19G07G28
   3128833.87547   2467333.71544  23899322.5634                   23899323.4924
 -17322153.55148 -13477546.04346  21048330.6414                   21048328.9844
   7900494.94147   6182862.59443  24196629.0864                   24196629.7854
  -2784105.44947  -2146731.15244  22983353.5784                   22983354.5594
 -15339376.88347 -11637720.32445  21842651.6254                   21842650.1174
  14562526.62947  11498495.73844  22918516.1564                   22918515.5434
   9387828.54347   7331395.34445  23010316.2814                   23010313.7974
 -10193447.07448  -7911010.46946  20457306.7274                   20457304.7304
 -10821493.14847  -8410304.96545  22572615.3204                   22572613.0004
 11  8 22 18  4  0.0000000  0  9G17G08G26G24G11G13G19G07G28
   2993463.28947   2361850.22744  23873562.4774                   23873563.6484
 -17418111.48448 -13552318.47346  21030070.4614                   21030068.8284
   7780263.92647   6089176.16044  24173749.4384                   24173750.7344
  -2882452.69547  -2223365.35544  22964638.1564                   22964639.8164
 -15407413.68047 -11690736.00445  21829704.2894                   21829702.8094
  14631704.48447  11552400.46144  22931680.4614                   22931679.6604
   9444631.36347   7375657.23045  23021125.5554                   23021122.7304
 -10239065.62948  -7946557.41446  20448625.6804                   20448623.4924
 -10887337.28147  -8461612.05545  22560084.8834                   22560083.1294
 11  8 22 18  4 30.0000000  0  9G17G08G26G24G11G13G19G07G28
   2858255.12947   2256493.31344  23847833.2274                   23847834.3014
 -17513858.50448 -13626926.53946  21011850.5084                   21011848.8754
   7660416.75446   5995788.78543  24150943.8134                   24150944.7894
  -2980561.30147  -2299813.57044  22945968.7344                   22945970.2274
 -15474978.14147 -11743383.63745  21816847.2894                   21816845.6844
  14701017.08247  11606410.16044  22944869.9454                   22944869.8484
   9501657.14547   7420092.83244  23031977.1564                   23031974.4064
 -10284308.12948  -7981811.32447  20440016.5164                   20440014.0204
 -10953118.32447  -8512870.00045  22547567.3594                   22547565.6524
 11  8 22 18  5  0.0000000  0  9G17G08G26G24G11G13G19G07G28
   2723212.34047   2151265.25844  23822135.2894                   23822136.1844
 -17609390.77348 -13701367.27746  20993671.2734                   20993668.9804
   7540957.02347   5902703.34043  24128211.5234                   24128212.1374
  -3078427.12147  -2376072.64144  22927345.7814                   22927346.9924
 -15542067.59047 -11795661.12945  21804080.6724                   21804079.0474
  14770462.60547  11660523.46144  22958085.5704                   22958084.2974
   9558903.88347   7464700.64545  23042870.8984                   23042868.0124
 -10329171.68048  -8016769.95346  20431479.2734                   20431476.7584
 -11018836.02747  -8564078.60945  22535061.8284                   22535060.2624
 11  8 22 18  5 30.0000000  0  9G17G08G26G24G11G13G19G07G28
   2588339.89147   2046169.94544  23796469.6484                   23796470.9614
 -17704703.46148 -13775636.89146  20975533.7034                   20975532.1804
   7421890.32047   5809924.15643  24105553.5554                   24105554.5394
  -3176044.24647  -2452137.87544  22908769.8054                   22908770.6134
 -15608677.37948 -11847564.85245  21791405.1804                   21791403.5514
  14840040.89147  11714740.18444  22971325.5164                   22971325.3244
   9616372.30147   7509481.18445  23053806.9534                   23053803.6644
 -10373651.98048  -8051429.92247  20423015.0474                   20423012.7424
 -11084488.41047  -8615236.27345  22522568.1804                   22522566.4844
 11  8 22 18  6  0.0000000  0  9G17G08G26G24G11G13G19G07G28
   2453631.41447   1941202.37544  23770835.1954                   23770836.6174
 -17799801.66048 -13849739.40646  20957437.1024                   20957435.7854
   7303211.23446   5717446.95743  24082969.5474                   24082970.4734
  -3273417.56247  -2528013.17244  22890240.1644                   22890241.1094
 -15674813.63748 -11899099.61745  21778819.8284                   21778818.0394
  14909740.72747  11769051.60244  22984589.2584                   22984588.9064
   9674050.84847   7554425.41845  23064783.0704                   23064780.3014
 -10417755.53148  -8085796.36346  20414622.6644                   20414619.9104
 -11150084.67247  -8666350.25845  22510086.0394                   22510083.9654
 11  8 22 18  6 30.0000000  0  9G17G08G26G24G11G13G19G07G28
   2319086.96547   1836362.63344  23745232.7114                   23745233.6024
 -17894684.97348 -13923674.46146  20939381.2974                   20939380.0354
   7184920.58246   5625272.42643  24060459.3054                   24060460.3404
  -3370546.05147  -2603697.67244  22871757.7894                   22871757.9224
 -15740476.09447 -11950265.16845  21766325.0084                   21766322.5634
  14979557.22747  11823453.93044  22997874.6724                   22997874.7074
   9731935.09047   7599529.97345  23075798.1094                   23075795.2344
 -10461482.63748  -8119869.45347  20406301.3054                   20406299.1884
 -11215627.39547  -8717422.50845  22497613.8524                   22497611.5704
 11  8 22 18  7  0.0000000  0  9G17G08G26G24G11G13G19G07G28
   2184708.46147   1731652.19944  23719660.2814                   23719662.2344
 -17989351.54348 -13997440.62146  20921367.0084                   20921365.5084
   7067020.61746   5533402.34043  24038023.8134                   24038024.4924
  -3467426.74647  -2679189.08644  22853321.4774                   22853322.3714
 -15805663.38747 -12001060.45745  21753920.0234                   21753917.7504
  15049486.85247  11877944.42244  23011182.3834                   23011182.2624
   9790022.07847   7644792.48845  23086851.4844                   23086848.5984
 -10504831.99648  -8153648.19147  20398052.2274                   20398050.0204
 -11281117.64547  -8768453.85945  22485151.2274                   22485149.4384
 11  8 22 18  7 30.0000000  0  9G17G08G26G24G11G13G19G07G28
   2050493.28946   1627069.03544  23694120.3134                   23694121.7304
 -18083802.80148 -14071038.99646  20903393.5164                   20903392.0124
   6949509.64846   5441835.34843  24015662.3444                   24015662.6454
  -3564061.35247  -2754488.73844  22834932.7814                   22834933.3324
 -15870378.12147 -12051487.52745  21741605.2504                   21741603.2734
  15119522.11347  11932517.21544  23024509.7664                   23024509.2624
   9848304.54747   7690207.33645  23097942.7894                   23097939.3134
 -10547806.51648  -8187134.85547  20389874.2114                   20389872.2154
 -11346560.72747  -8819448.46145  22472697.9304                   22472695.4144
 11  8 22 18  8  0.0000000  0  9G17G08G26G24G11G13G19G07G28
   1916446.92947   1522617.42344  23668612.3674                   23668613.3204
 -18178032.50448 -14144464.73846  20885462.4454                   20885460.7114
   6832393.84446   5350576.28543  23993375.6804                   23993376.6804
  -3660443.16447  -2829591.40244  22816592.0004                   22816592.3134
 -15934614.89847 -12101542.14845  21729381.2424                   21729380.0664
  15189663.88747  11987173.02344  23037856.8984                   23037857.4454
   9906783.43047   7735775.25445  23109071.0394                   23109067.7624
 -10590400.68048  -8220325.12547  20381768.9144                   20381766.9494
 -11411953.67247  -8870403.99245  22460253.6724                   22460251.9694
 11  8 22 18  8 30.0000000  0  9G17G08G26G24G11G13G19G07G28
   1782564.12547   1418293.24244  23643135.0394                   23643136.3244
 -18272045.67248 -14217721.75046  20867572.0164                   20867570.6954
   6715668.73846   5259621.69942  23971163.6564                   23971164.4024
  -3756576.35247  -2904500.34844  22798297.9224                   22798298.9844
 -15998378.98448 -12151228.44545  21717247.7034                   21717245.6454
  15259901.94147  12041903.84844  23051223.7664                   23051223.3834
   9965448.81647   7781488.48445  23120233.9304                   23120231.6644
 -10632620.66448  -8253223.83246  20373735.0634                   20373732.6724
 -11477304.61347  -8921326.78545  22447817.7974                   22447816.1214
 11  8 22 18  9  0.0000000  0  9G17G08G26G24G11G13G19G07G28
   1648843.85547   1314095.71544  23617688.6644                   23617690.0554
 -18365843.11747 -14290810.66846  20849722.8524                   20849721.6294
   6599333.83246   5168971.16043  23949026.4774                   23949026.7624
  -3852460.77747  -2979215.43044  22780051.7424                   22780052.6564
 -16061671.69147 -12200547.44145  21705203.1954                   21705201.7704
  15330229.69547  12096704.56644  23064605.8364                   23064606.1954
  10024294.76247   7827342.40245  23131432.4694                   23131429.1524
 -10674467.59048  -8285831.85546  20365771.4614                   20365769.4884
 -11542617.46947  -8972219.90245  22435389.4144                   22435386.9964
 11  8 22 18  9 30.0000000  0  9G17G08G26G24G11G13G19G07G28
   1515280.26647   1210020.26644  23592272.7504                   23592273.2114
 -18459429.31248 -14363734.97746  20831914.1954                   20831912.7814
   6483384.07846   5078620.73443  23926961.6334                   23926962.0164
  -3948101.27047  -3053740.44944  22761852.0394                   22761852.7584
 -16124499.19147 -12249503.92645  21693247.5164                   21693246.1564
  15400636.85547  12151567.13744  23078004.6174                   23078004.6844
  10083310.57847   7873328.69545  23142662.7664                   23142660.3204
 -10715947.90648  -8318154.19146  20357878.4224                   20357876.3834
 -11607900.84047  -9023090.03945  22422966.6484                   22422964.0044
 11  8 22 18 10  0.0000000  0  9G17G08G26G24G11G13G19G07G28
   1381895.87547   1106084.47344  23566890.0634                   23566890.9924
 -18552780.96548 -14436476.52046  20814149.6884                   20814148.4304
   6367842.74646   4988588.54743  23904974.0634                   23904974.7584
  -4043474.12547  -3128056.90644  22743703.0554                   22743704.2664
 -16186838.80147 -12298080.23845  21681384.5864                   21681383.0864
  15471141.27047  12206505.48844  23091420.6644                   23091421.3284
  10142514.83647   7919461.82445  23153929.2274                   23153926.4224
 -10757039.35548  -8350173.52747  20350058.8524                   20350056.9144
 -11673134.78547  -9073921.66445  22410552.3834                   22410550.8954
 11  8 22 18 10 30.0000000  0  9G17G08G26G24G11G13G19G07G28
   1248676.74247   1002277.43044  23541539.6884                   23541539.9964
 -18645911.97748 -14509046.14546  20796427.8134                   20796426.0234
   6252696.34546   4898864.11743  23883063.1094                   23883063.8834
  -4138592.30547  -3202174.91044  22725602.3914                   22725603.7584
 -16248704.71947 -12346287.44945  21669612.1254                   21669609.9774
  15541723.64547  12261504.57844  23104852.3594                   23104852.9384
  10201888.47347   7965726.91444  23165227.2734                   23165224.4964
 -10797756.32448  -8381901.05946  20342310.6024                   20342308.5594
 -11738335.93447  -9124727.74645  22398145.1564                   22398143.2664
 11  8 22 18 11  0.0000000  0  9G17G08G26G24G11G13G19G07G28
   1115634.60247    898608.29744  23516222.3444                   23516222.9574
 -18738809.56648 -14581433.87946  20778750.0704                   20778748.1994
   6137957.57046   4809457.31643  23861229.1254                   23861229.5664
  -4233442.98447  -3276084.48844  22707553.1414                   22707554.6054
 -16310085.46147 -12394116.57845  21657932.0084                   21657929.5234
  15612391.04747  12316569.93044  23118299.9614                   23118300.6094
  10261438.65647   8012129.60245  23176559.0784                   23176557.0514
 -10838087.39548  -8413327.89147  20334636.2194                   20334633.9884
 -11803495.44147  -9175501.37945  22385745.8834                   22385743.8204
 11  8 22 18 11 30.0000000  0  9G17G08G26G24G11G13G19G07G28
    982757.60547    795067.85544  23490936.5234                   23490937.2814
 -18831485.18048 -14653648.63346  20761114.4614                   20761112.5124
   6023614.98846   4720359.25043  23839470.4534                   23839470.5944
  -4328037.21147  -3349794.20345  22689552.4924                   22689553.2934
 -16370993.22348 -12441577.15645  21646341.3054                   21646339.3054
  15683126.72747  12371688.48844  23131760.5314                   23131761.2544
  10321148.88347   8058657.00044  23187922.1414                   23187919.0864
 -10878044.86748  -8444463.60946  20327032.1024                   20327030.1094
 -11868627.78947  -9226253.82845  22373351.3444                   22373349.5904
 11  8 22 18 12  0.0000000  0  9G17G08G26G24G11G13G19G07G28
    850048.22347    691658.04344  23465682.8674                   23465684.0634
 -18923935.98848 -14725688.21946  20743521.5634                   20743519.9344
   5909671.57047   4631572.21543  23817787.6484                   23817787.8054
  -4422371.30547  -3423301.22744  22671601.1724                   22671602.2664
 -16431425.89148 -12488667.51645  21634841.0704                   21634839.1644
  15753928.09847  12426858.23444  23145233.8204                   23145234.4224
  10381016.68447   8105307.17244  23199314.0084                   23199311.7544
 -10917627.05948  -8475306.89146  20319499.9534                   20319498.0234
 -11933733.21547  -9276985.33245  22360962.1724                   22360960.6484
 11  8 22 18 12 30.0000000  0  9G17G08G26G24G11G13G19G07G28
    717534.28547    588400.51244  23440466.1414                   23440467.3984
 -19016132.95748 -14797530.01646  20725977.0554                   20725975.8984
   5796156.27347   4543118.75043  23796186.2274                   23796186.8324
  -4516415.79347  -3496582.58644  22653705.4304                   22653706.4414
 -16491355.50848 -12535365.91045  21623437.1724                   21623435.2154
  15824818.48847  12482097.34044  23158724.0864                   23158724.4804
  10441065.87547   8152098.67244  23210741.4384                   23210739.6214
 -10956806.22348  -8505836.13347  20312044.4774                   20312042.5124
 -11998786.54347  -9327676.23045  22348583.2504                   22348581.3914
 11  8 22 18 13  0.0000000  0  9G17G08G26G24G11G13G19G07G28
    585196.89847    485280.57044  23415282.8914                   23415284.5634
 -19108094.64848 -14869188.47346  20708477.2734                   20708476.1134
   5683050.57847   4454984.49644  23774662.9694                   23774663.8914
  -4610188.74647  -3569652.35544  22635860.4844                   22635861.4844
 -16550800.97747 -12581687.02745  21612125.3364                   21612122.9654
  15895773.69547  12537386.98844  23172226.1334                   23172226.8404
  10501272.94947   8199013.20344  23222198.5084                   23222195.8834
 -10995601.53148  -8536066.25446  20304662.0554                   20304660.0084
 -12063809.41047  -9378343.39545  22336209.6644                   22336207.5824
 11  8 22 18 13 30.0000000  0  9G17G08G26G24G11G13G19G07G28
    453041.92246    382302.75044  23390134.6174                   23390135.8284
 -19199814.20348 -14940658.25846  20691023.6414                   20691022.1374
   5570361.15647   4367174.60544  23753219.0634                   23753219.8134
  -4703683.49247  -3642505.34844  22618069.4694                   22618069.8914
 -16609757.23048 -12627626.94945  21600906.2504                   21600903.9144
  15966795.00047  12592728.12943  23185741.4304                   23185741.3324
  10561638.91046   8246051.55144  23233686.2814                   23233683.0084
 -11034007.74248  -8565993.18046  20297353.6414                   20297351.4184
 -12128798.23447  -9428984.02745  22323842.9924                   22323840.8834
 11  8 22 18 14  0.0000000  0  9G17G08G26G24G11G13G19G07G28
    321089.63347    279482.88344  23365024.9774                   23365026.1604
 -19291271.05948 -15011923.34446  20673619.9924                   20673618.7114
   5458108.54747   4279705.07844  23731858.2814                   23731858.9024
  -4796878.64547  -3715124.88744  22600334.5314                   22600335.6174
 -16668204.26248 -12673170.07046  21589784.0394                   21589781.7234
  16037897.68047  12648132.67243  23199271.7034                   23199272.1764
  10622179.50447   8293225.97744  23245206.7274                   23245203.7974
 -11072005.20748  -8595601.60946  20290122.5554                   20290120.5594
 -12193735.43047  -9479584.43445  22311485.5314                   22311483.7934
 11  8 22 18 14 30.0000000  0  9G17G08G26G24G11G13G19G07G28
    189321.89147    176806.82444  23339950.2664                   23339951.5634
 -19382482.71948 -15082997.35946  20656263.0164                   20656261.5904
   5346275.29347   4192562.33244  23710577.1884                   23710577.9224
  -4889791.35547  -3787524.33244  22582653.5784                   22582654.5634
 -16726160.42248 -12718330.69945  21578755.0004                   21578753.4144
  16109058.89847  12703582.78943  23212813.7734                   23212813.9614
  10682872.03947   8340518.80145  23256755.9064                   23256753.7934
 -11109612.13748  -8624905.72346  20282966.7504                   20282964.3794
 -12258642.05947  -9530161.02045  22299134.2504                   22299132.2034
 11  8 22 18 15  0.0000000  0  9G17G08G26G24G11G13G19G07G28
     57755.69147     74287.78544  23314914.6564                   23314915.2504
 -19473430.76648 -15153865.96146  20638956.4224                   20638955.0234
   5234879.12547   4105760.16444  23689379.0704                   23689379.1724
  -4982403.25847  -3859689.38344  22565030.5234                   22565031.2544
 -16783609.02348 -12763095.82445  21567822.8204                   21567821.3554
  16180290.52047  12759087.78143  23226368.5554                   23226369.0084
  10743728.86746   8387939.63744  23268336.8674                   23268334.5314
 -11146812.36748  -8653892.93047  20275887.7424                   20275885.5554
 -12323503.31247  -9580702.24245  22286791.5394                   22286789.6174
 11  8 22 18 15 30.0000000  0  9G17G08G26G24G11G13G19G07G28
    -73608.49647    -28073.81644  23289915.9304                   23289916.6214
 -19564114.59848 -15224528.69146  20621699.5474                   20621698.5744
   5123921.01247   4019299.31644  23668264.4924                   23668264.5204
  -5074712.90247  -3931618.91444  22547464.1024                   22547465.1374
 -16840549.90648 -12807465.32045  21556987.4534                   21556986.0474
  16251588.11347  12814644.18444  23239936.2034                   23239936.5984
  10804746.38747   8435485.69144  23279948.1254                   23279945.0864
 -11183606.07448  -8682563.36747  20268886.0314                   20268883.9304
 -12388322.13747  -9631210.41045  22274456.7894                   22274455.3954
 11  8 22 18 16  0.0000000  0  9G17G08G26G24G11G13G19G07G28
   -204765.66447   -130274.12944  23264957.3914                   23264958.8754
 -19654528.19148 -15294980.83646  20604494.5784                   20604492.7464
   5013406.62147   3933184.23444  23647233.5084                   23647234.1454
  -5166714.14847  -4003308.14544  22529957.3204                   22529957.9694
 -16896978.49248 -12851435.63345  21546249.5864                   21546247.7624
  16322952.29347  12870252.47744  23253516.6334                   23253517.0394
  10865924.93847   8483157.23045  23291589.9774                   23291586.9774
 -11219987.93448  -8710912.88746  20261962.9224                   20261960.5044
 -12453095.06247  -9681682.80145  22262131.0234                   22262129.3134
 11  8 22 18 16 30.0000000  0  9G17G08G26G24G11G13G19G07G28
   -335719.63747   -232316.12144  23240038.2664                   23240038.8984
 -19744674.27048 -15365224.52746  20587340.4224                   20587339.2074
   4903333.08647   3847412.64144  23626287.8914                   23626288.0204
  -5258409.50447  -4074759.01245  22512508.4844                   22512508.8634
 -16952898.72748 -12895009.84045  21535608.2814                   21535606.6684
  16394374.52747  12925905.99644  23267107.9454                   23267108.9224
  10927256.09047   8530947.69144  23303260.8364                   23303258.4734
 -11255962.67248  -8738945.16446  20255116.9534                   20255114.9144
 -12517828.98447  -9732124.80545  22249812.5864                   22249810.6764
 11  8 22 18 17  0.0000000  0  9G17G08G26G24G11G13G19G07G28
   -466446.02347   -334180.74644  23215161.5164                   23215162.3404
 -19834528.18748 -15435240.56646  20570241.5864                   20570239.9614
   4793724.91047   3762003.65243  23605429.9144                   23605430.0984
  -5349773.82447  -4145951.93044  22495122.1954                   22495123.0554
 -17008287.03548 -12938169.55545  21525068.2194                   21525066.3484
  16465874.26647  12981619.90643  23280713.9384                   23280715.0354
  10988759.77047   8578872.56644  23314964.7974                   23314962.0944
 -11291506.55148  -8766641.69946  20248353.0554                   20248351.0824
 -12582502.19948  -9782519.50845  22237506.1024                   22237503.6724
 11  8 22 18 17 30.0000000  0  9G17G08G26G24G11G13G19G07G28
   -596946.64147   -435869.46944  23190327.9694                   23190328.5984
 -19924090.64548 -15505029.49646  20553198.5004                   20553196.8794
   4684581.10547   3676956.50043  23584660.7034                   23584660.7304
  -5440807.80547  -4216887.45344  22477798.4694                   22477799.4304
 -17063145.58648 -12980916.48045  21514629.1094                   21514627.4064
  16537445.12147  13037389.22343  23294333.3674                   23294334.6804
  11050429.76647   8626927.06644  23326700.5234                   23326697.2974
 -11326621.53548  -8794004.03547  20241670.9844                   20241668.5514
 -12647119.02747  -9832870.27045  22225209.7894                   22225207.9024
 11  8 22 18 18  0.0000000  0  9G17G08G26G24G11G13G19G07G28
   -727221.28947   -537382.11344  23165537.2114                   23165538.1024
 -20013360.57048 -15574590.47346  20536211.0704                   20536209.3794
   4575902.39847   3592271.83243  23563979.5474                   23563980.0234
  -5531510.21547  -4287564.60544  22460538.7584                   22460539.5474
 -17117474.21948 -13023250.48845  21504290.4384                   21504288.7584
  16609082.30147  13093210.22343  23307965.3364                   23307966.6174
  11112261.60947   8675107.68444  23338466.0704                   23338463.5594
 -11361308.14148  -8821032.58246  20235070.5004                   20235068.4884
 -12711681.76647  -9883178.87945  22212923.2424                   22212922.0944
 11  8 22 18 18 30.0000000  0  9G17G08G26G24G11G13G19G07G28
   -857280.42647   -638726.81644  23140787.8054                   23140788.8364
 -20102348.54348 -15643931.75046  20519277.1174                   20519275.5314
   4467678.89547   3507941.89543  23543386.0084                   23543385.9574
  -5621890.21147  -4357990.53945  22443339.9064                   22443340.9804
 -17171284.10248 -13065180.25845  21494050.9454                   21494049.0314
  16680770.61347  13149071.07444  23321607.2344                   23321608.5314
  11174240.32447   8723402.73044  23350261.0474                   23350257.7624
 -11395577.28148  -8847735.82446  20228549.4384                   20228547.3054
 -12776203.46148  -9933455.50845  22200644.8834                   22200643.6844
 11  8 22 18 19  0.0000000  0  9G17G08G26G24G11G13G19G07G28
   -987121.72747   -739901.75844  23116079.8984                   23116081.1094
 -20191051.06648 -15713050.59446  20502397.5164                   20502395.8874
   4359913.63346   3423969.11343  23522877.8914                   23522878.5904
  -5711944.49247  -4428162.68744  22426203.0004                   22426203.7934
 -17224573.18448 -13106704.22345  21483910.4384                   21483908.6604
  16752507.52347  13204969.74643  23335258.6174                   23335259.9924
  11236364.10547   8771810.79744  23362083.1094                   23362079.3094
 -11429427.31248  -8874112.48847  20222107.9224                   20222105.7854
 -12840684.14147  -9983700.16445  22188375.2424                   22188373.5664
 11  8 22 18 19 30.0000000  0  9G17G08G26G24G11G13G19G07G28
  -1116725.12547   -840891.34444  23091416.8674                   23091418.3244
 -20279447.14548 -15781930.65646  20485576.3594                   20485574.8134
   4252626.78146   3340369.01243  23502461.5704                   23502462.9064
  -5801651.82447  -4498064.48044  22409132.0864                   22409132.7384
 -17277322.04748 -13147807.23445  21473872.6884                   21473870.6374
  16824308.73047  13260918.55144  23348922.4774                   23348923.3554
  11298648.57847   8820344.10244  23373934.9454                   23373931.8134
 -11462838.34048  -8900147.07047  20215750.0004                   20215748.0824
 -12905106.44547 -10033899.34845  22176115.9694                   22176114.5824
 11  8 22 18 20  0.0000000  0  9G17G08G26G24G11G13G19G07G28
  -1246100.08647   -941702.91845  23066798.0474                   23066799.0594
 -20367545.07448 -15850578.39846  20468811.9384                   20468810.7544
   4145809.73046   3257134.94143  23482135.3594                   23482135.7664
  -5891020.78547  -4567702.60944  22392125.9924                   22392126.5084
 -17329540.37548 -13188496.84445  21463936.0704                   21463933.9224
  16896160.00047  13316906.36344  23362595.5704                   23362596.1174
  11361079.55547   8868991.55944  23385815.2274                   23385812.1764
 -11495820.25848  -8925847.28946  20209473.6724                   20209471.6684
 -12969481.98047 -10084062.10245  22163865.8674                   22163864.1374
 11  8 22 18 20 30.0000000  0  9G17G08G26G24G11G13G19G07G28
  -1375248.14847  -1042337.69945  23042221.5634                   23042222.8634
 -20455345.94548 -15918994.66846  20452103.7814                   20452102.6024
   4039461.37946   3174266.14143  23461897.5864                   23461898.2504
  -5980051.81647  -4637077.43044  22375184.2734                   22375184.4804
 -17381230.60248 -13228774.94946  21454099.5944                   21454097.6484
  16968054.98447  13372928.23043  23376276.5314                   23376277.9884
  11423651.39547   8917748.77744  23397722.0234                   23397719.1954
 -11528375.54348  -8951215.05947  20203278.6804                   20203276.7074
 -13033815.06647 -10134191.75445  22151623.6334                   22151622.0904
 11  8 22 18 21  0.0000000  0  9G17G08G26G24G11G13G19G07G28
  -1504155.32447  -1142784.76645  23017691.7734                   23017692.5204
 -20542835.14148 -15987168.06246  20435455.0864                   20435453.9534
   3933596.14846   3091773.80143  23441753.1564                   23441752.8634
  -6068729.77347  -4706177.10944  22358308.8054                   22358309.6414
 -17432379.03148 -13268630.85245  21444366.0634                   21444364.1254
  17040002.75447  13428991.22744  23389968.4144                   23389969.3484
  11486373.77347   8966623.28544  23409658.0314                   23409655.0164
 -11560490.70748  -8976239.87847  20197167.7734                   20197165.1484
 -13098094.21947 -10184279.38745  22139391.6484                   22139390.0314
 11  8 22 18 21 30.0000000  0  9G17G08G26G24G11G13G19G07G28
  -1632826.36347  -1243047.84845  22993206.3054                   22993207.2114
 -20630016.05948 -16055101.25046  20418865.2274                   20418863.9064
   3828209.98846   3009654.72343  23421697.9844                   23421698.3054
  -6157058.29747  -4775004.51244  22341500.7504                   22341501.0234
 -17482990.81248 -13308068.60546  21434735.3524                   21434733.4264
  17111994.43847  13485088.45744  23403668.4304                   23403669.1294
  11549237.50847   9015607.96544  23421620.7344                   23421617.7424
 -11592170.80548  -9000925.68446  20191138.5864                   20191136.8094
 -13162326.32048 -10234330.37945  22127169.0704                   22127166.9064
 11  8 22 18 22  0.0000000  0  9G17G08G26G24G11G13G19G07G28
  -1761262.79747  -1343128.11345  22968765.4924                   22968766.7114
 -20716889.64848 -16122794.96146  20402333.7664                   20402332.2584
   3723301.94546   2927908.21143  23401734.2974                   23401735.1524
  -6245038.04347  -4843560.15244  22324758.8364                   22324759.5084
 -17533067.96948 -13347089.75445  21425205.7194                   21425204.1644
  17184023.68447  13541214.96543  23417374.3834                   23417376.0234
  11612236.87947   9064698.32044  23433609.0314                   23433606.2894
 -11623417.83648  -9025274.03546  20185192.9454                   20185190.8164
 -13226515.64147 -10284348.01645  22114954.1724                   22114952.2704
 11  8 22 18 22 30.0000000  0  9G17G08G26G24G11G13G19G07G28
  -1889455.10547  -1443018.16845  22944371.4454                   22944372.2504
 -20803445.39848 -16190240.99246  20385862.7894                   20385861.2424
   3618881.89846   2846541.96943  23381864.0234                   23381864.2664
  -6332658.20347  -4911835.58245  22308085.3284                   22308085.5234
 -17582601.73848 -13385687.49245  21415779.7974                   21415777.9804
  17256095.25447  13597374.41843  23431089.7734                   23431090.6644
  11675377.19547   9113898.50444  23445624.3914                   23445621.7234
 -11654222.90248  -9049277.99246  20179330.7504                   20179328.4454
 -13290654.57048 -10334326.38745  22102748.6884                   22102746.9804
 11  8 22 18 23  0.0000000  0  9G17G08G26G24G11G13G19G07G28
   -441981.16847   -315116.33245  23219816.4144                   23219817.0124
 -19314262.07448 -15029838.40246  20669245.0164                   20669243.8284
   5090371.54747   3993157.31343  23661878.8444                   23661879.5824
  -4844497.18047  -3752229.55144  22591272.6334                   22591273.3164
 -16056173.11348 -12196262.57845  21706249.6094                   21706247.3284
  18903619.73047  14881159.54343  23744603.5704                   23744604.0904
  13314069.33247  10390801.37144  23757456.9064                   23757454.2624
 -10109167.78148  -7845338.94947  20473344.9694                   20473342.7034
 -11779326.09447  -9156667.82845  22390344.8834                   22390343.1844
 11  8 22 18 23 30.0000000  0  9G17G08G26G24G11G13G19G07G28
   -569704.87947   -414641.24245  23195511.1564                   23195511.8634
 -19400199.84448 -15096802.90246  20652891.8364                   20652890.2974
   4986909.23847   3912537.36743  23642191.5394                   23642191.2544
  -4931415.11347  -3819957.78545  22574732.5004                   22574733.4344
 -16104641.26648 -12234029.96945  21697026.0164                   21697024.5944
  18975742.31647  14937358.74643  23758328.1414                   23758329.2074
  13377458.00847  10440195.08644  23769519.6334                   23769517.2304
 -10139110.50048  -7868670.94946  20467647.3364                   20467645.2154
 -11843392.00048  -9206589.30145  22378153.5004                   22378152.0904
 11  8 22 18 24  0.0000000  0  9G17G08G26G24G11G13G19G07G28
   -697197.73447   -513986.26645  23171250.0394                   23171251.0204
 -19485830.49248 -15163528.07846  20636596.6724                   20636595.1644
   4883923.04747   3832288.39543  23622593.7664                   23622594.0664
  -5017984.00047  -3887414.02044  22558259.1174                   22558259.5004
 -16152581.11748 -12271385.69545  21687903.4614                   21687901.8014
  19047880.14147  14993569.85943  23772055.2664                   23772056.3714
  13440961.34046  10489678.13344  23781603.5634                   23781601.4104
 -10168626.39848  -7891670.36346  20462030.5944                   20462027.9804
 -11907428.36748  -9256487.75845  22365967.6414                   22365965.9494
 11  8 22 18 24 30.0000000  0  9G17G08G26G24G11G13G19G07G28
   -824456.65647   -613148.98044  23147033.2894                   23147034.5354
 -19571150.45748 -15230011.17246  20620360.4924                   20620359.2624
   4781416.29347   3752413.06643  23603086.9694                   23603086.9184
  -5104199.78147  -3954595.10244  22541852.8134                   22541853.4654
 -16199990.34848 -12308327.94545  21678881.9454                   21678880.4064
  19120031.63347  15049791.60943  23785784.9614                   23785786.2624
  13504577.81346  10539249.33644  23793709.5944                   23793707.3484
 -10197712.94948  -7914335.22346  20456495.5234                   20456493.4844
 -11971434.51647  -9306362.65645  22353787.5164                   22353785.6644
 11  8 22 18 25  0.0000000  0  9G17G08G26G24G11G13G19G07G28
   -951477.28147   -712126.02344  23122862.2274                   23122862.8244
 -19656153.98048 -15296247.68446  20604184.9694                   20604183.6094
   4679394.09847   3672915.25843  23583673.2814                   23583672.9774
  -5190056.57047  -4021496.44944  22525514.6804                   22525514.8444
 -16246864.83648 -12344853.51645  21669962.3594                   21669960.2624
  19192196.74646  15106023.97743  23799517.9224                   23799519.5824
  13568307.73046  10588908.95744  23805837.0234                   23805834.6454
 -10226366.12948  -7936662.39846  20451042.6884                   20451040.7034
 -12035408.19948  -9356212.27045  22341613.9774                   22341611.8954
 11  8 22 18 25 30.0000000  0  9G17G08G26G24G11G13G19G07G28
  -1078271.27347   -810926.46945  23098733.7814                   23098734.6054
 -19740851.63348 -15362245.85546  20588067.5944                   20588066.1804
   4577845.20347   3593786.27343  23564349.1094                   23564348.8404
  -5275565.10547  -4088126.44945  22509242.9454                   22509243.2974
 -16293216.97348 -12380972.06645  21661141.5394                   21661139.6294
  19264359.14846  15162254.19943  23813249.8054                   23813252.1914
  13632135.38746  10638644.72744  23817983.2194                   23817980.6484
 -10254598.22748  -7958661.44946  20445670.4304                   20445668.4224
 -12099363.77348  -9406047.76645  22329443.7814                   22329441.9184
 11  8 22 18 26  0.0000000  0  9G17G08G26G24G11G13G19G07G28
  -1204845.02747   -909555.29345  23074647.5864                   23074648.6214
 -19825249.00048 -15428010.03146  20572007.1484                   20572006.0234
   4476763.88747   3515021.62944  23545113.8364                   23545114.2734
  -5360730.50047  -4154489.07045  22493036.3134                   22493036.8204
 -16339053.85248 -12416689.11345  21652419.5944                   21652417.5434
  19336507.94947  15218473.82843  23826979.5474                   23826981.7974
  13696050.07447  10688448.32044  23830146.6484                   23830143.1684
 -10282416.32048  -7980337.89847  20440376.9614                   20440374.6214
 -12163309.55147  -9455875.64145  22317274.9844                   22317273.2274
 11  8 22 18 26 30.0000000  0  9G17G08G26G24G11G13G19G07G28
  -1331183.30547  -1008000.62145  23050606.2974                   23050606.7814
 -19909330.60248 -15493528.15646  20556007.1254                   20556005.6884
   4376165.37947   3436633.21544  23525969.8984                   23525970.9144
  -5445536.87147  -4220571.93044  22476898.4454                   22476898.8484
 -16384360.89548 -12451993.29345  21643797.4224                   21643795.7034
  19408653.84847  15274691.21143  23840709.1414                   23840710.4184
  13760062.83646  10738328.33244  23842326.5944                   23842324.3984
 -10309805.76248  -8001680.34046  20435164.8754                   20435162.9414
 -12227232.53948  -9505685.75445  22305111.3594                   22305109.1094
 11  8 22 18 27  0.0000000  0  9G17G08G26G24G11G13G19G07G28
  -1457276.40647  -1106254.90645  23026611.4454                   23026612.3554
 -19993085.78148 -15558791.92246  20540069.1644                   20540067.5514
   4276059.88347   3358628.94144  23506921.3754                   23506921.4414
  -5529973.30147  -4286366.51244  22460830.1484                   22460831.2274
 -16429129.22748 -12486877.69945  21635278.0554                   21635276.4774
  19480802.25447  15330910.53143  23854438.6564                   23854440.4104
  13824178.91446  10788288.85244  23854527.9924                   23854525.5594
 -10336757.36348  -8022681.60946  20430036.3594                   20430034.3054
 -12291125.66448  -9555472.59045  22292952.8914                   22292950.4304
 11  8 22 18 27 30.0000000  0  9G17G08G26G24G11G13G19G07G28
  -1583133.29347  -1204325.12545  23002661.7424                   23002662.5474
 -20076522.21948 -15623807.32446  20524191.6644                   20524189.9964
   4176438.60947   3281002.00444  23487963.6094                   23487964.3054
  -5614047.75847  -4351879.05144  22444832.1414                   22444832.5864
 -16473368.62148 -12521349.94945  21626859.5234                   21626857.2974
  19552939.07047  15387120.81343  23868166.0634                   23868168.0234
  13888385.27046  10838319.71944  23866745.8674                   23866744.0084
 -10363281.13748  -8043349.50446  20424988.9064                   20424987.0474
 -12355000.41448  -9605245.10945  22280797.9614                   22280796.1024
 11  8 22 18 28  0.0000000  0  9G17G08G26G24G11G13G19G07G28
  -1708755.10247  -1302212.16845  22978756.5004                   22978757.2074
 -20159639.93748 -15688574.38346  20508374.8984                   20508373.3484
   4077301.62947   3203752.43444  23469099.0864                   23469099.0824
  -5697760.37147  -4417109.63345  22428901.8284                   22428902.3954
 -16517080.57048 -12555411.19145  21618541.7974                   21618539.8244
  19625059.45347  15443318.28544  23881889.8364                   23881892.3794
  13952676.89847  10888417.02044  23878980.4774                   23878977.6484
 -10389378.45348  -8063685.10247  20420022.9774                   20420020.6484
 -12418859.59848  -9655005.50445  22268645.6174                   22268643.6334
 11  8 22 18 28 30.0000000  0  9G17G08G26G24G11G13G19G07G28
  -1834133.92247  -1399909.85545  22954898.1724                   22954898.1484
 -20242430.33248 -15753086.36746  20492620.3914                   20492618.6644
   3978656.40647   3126886.04344  23450327.5234                   23450327.5824
  -5781102.46147  -4482051.47745  22413042.4614                   22413043.1254
 -16560258.16048 -12589056.04745  21610324.8134                   21610323.1374
  19697166.71947  15499505.53143  23895612.3524                   23895614.1484
  14017057.46146  10938583.64544  23891231.6954                   23891229.2464
 -10415042.03948  -8083682.72346  20415139.2424                   20415136.9184
 -12482697.56248  -9704749.35245  22256498.0394                   22256495.5744
 11  8 22 18 29  0.0000000  0  9G17G08G26G24G11G13G19G07G28
  -1959274.01247  -1497421.53945  22931084.4614                   22931084.6174
 -20324896.70348 -15817345.88346  20476927.6414                   20476926.2664
   3880499.37947   3050400.05544  23431647.8914                   23431648.6254
  -5864077.02047  -4546706.95345  22397253.0704                   22397253.8484
 -16602906.32448 -12622288.35945  21602209.6334                   21602207.3524
  19769251.92647  15555675.59843  23909329.2424                   23909331.3364
  14081518.59446  10988813.04344  23903498.5554                   23903495.4144
 -10440276.78148  -8103346.18446  20410337.1174                   20410335.1174
 -12546521.07048  -9754481.93045  22244352.6334                   22244350.2194
 11  8 22 18 29 30.0000000  0  9G17G08G26G24G11G13G19G07G28
  -2084184.98847  -1594754.69145  22907314.9224                   22907314.9734
 -20407047.74648 -15881359.68046  20461294.8204                   20461293.2814
   3782821.19547   2974287.21544  23413061.2584                   23413060.9844
  -5946692.79347  -4611082.85545  22381531.2814                   22381532.4344
 -16645035.94948 -12655116.63346  21594192.4454                   21594190.9844
  19841300.79347  15611817.34843  23923040.3984                   23923041.9184
  14146046.25846  11039094.26244  23915777.3914                   23915775.1134
 -10465092.96948  -8122683.49246  20405615.0474                   20405612.7074
 -12610341.94948  -9804212.47345  22232207.7114                   22232205.6524
 11  8 22 18 30  0.0000000  0  9G17G08G26G24G11G13G19G07G28
  -2208850.47347  -1691896.55145  22883591.7114                   22883591.6724
 -20488865.94548 -15945114.12146  20445725.1884                   20445723.5004
   3685638.76646   2898560.65244  23394567.5634                   23394567.3284
  -6028932.15247  -4675165.44945  22365881.7504                   22365882.0004
 -16686630.37148 -12687527.85945  21586277.2274                   21586275.3594
  19913325.99246  15667940.62543  23936746.0164                   23936748.6954
  14210653.39847  11089437.44544  23928072.0084                   23928069.6724
 -10489474.79748  -8141682.34846  20400975.2034                   20400973.1604
 -12674145.77348  -9853929.72745  22220066.0164                   22220063.9614
 11  8 22 18 30 30.0000000  0  9G17G08G26G24G11G13G19G07G28
  -2333273.63747  -1788849.59845  22859914.9144                   22859914.5944
 -20570353.69948 -16008611.06646  20430218.3524                   20430217.0904
   3588949.27346   2823218.22344  23376168.0864                   23376168.2664
  -6110797.40647  -4738956.52745  22350302.9844                   22350304.0704
 -16727694.06647 -12719525.52345  21578463.1484                   21578461.3874
  19985319.70346  15724039.40643  23950446.2894                   23950448.6294
  14275332.50346  11139836.70044  23940380.0554                   23940377.8914
 -10513426.23448  -8160345.83646  20396417.5784                   20396415.3244
 -12737937.88748  -9903637.84445  22207926.7584                   22207924.6524
 11  8 22 18 31  0.0000000  0  9G17G08G26G24G11G13G19G07G28
  -2457451.02347  -1885611.11745  22836283.7734                   22836284.5784
 -20651506.68748 -16071847.16446  20414775.8524                   20414774.3094
   3492756.39147   2748262.74244  23357862.9844                   23357863.4654
  -6192284.06647  -4802452.59444  22334796.5554                   22334797.3054
 -16768224.53148 -12751107.69145  21570750.4224                   21570748.9024
  20057280.68846  15780112.68443  23964139.7344                   23964141.9964
  14340083.01247  11190291.57044  23952701.9224                   23952699.3204
 -10536944.46148  -8178671.74646  20391942.1334                   20391939.7194
 -12801717.18048  -9953335.97745  22195790.3834                   22195787.7154
 11  8 22 18 31 30.0000000  0  9G17G08G26G24G11G13G19G07G28
  -2581383.37547  -1982181.71145  22812701.2974                   22812701.0594
 -20732324.53548 -16134822.10546  20399396.4614                   20399395.0394
   3397059.63746   2673693.85544  23339652.7504                   23339652.6414
  -6273391.72747  -4865653.34445  22319362.3204                   22319362.9104
 -16808223.68748 -12782275.85945  21563139.0704                   21563136.6094
  20129203.88746  15836156.50843  23977826.9144                   23977829.0984
  14404899.82846  11240798.11744  23965036.2424                   23965034.1684
 -10560031.23448  -8196661.46146  20387548.6804                   20387546.6764
 -12865486.56248 -10003026.39145  22183655.2664                   22183653.0474
 11  8 22 18 32  0.0000000  0  9G17G08G26G24G11G13G19G07G28
  -2705056.43747  -2078550.26645  22789166.4384                   22789166.6174
 -20812792.08648 -16197524.09046  20384084.1954                   20384082.3014
   3301873.57446   2599522.91844  23321539.5004                   23321539.5354
  -6354105.35947  -4928547.06245  22304003.3284                   22304003.9494
 -16847677.61348 -12813019.18045  21555630.8204                   21555629.0354
  20201099.43446  15892178.75043  23991508.1724                   23991511.0274
  14469793.39146  11291364.48444  23977384.7034                   23977382.4494
 -10582672.55548  -8214304.07446  20383240.2424                   20383237.9574
 -12929233.55548 -10052699.36345  22171524.3524                   22171522.6844
 11  8 22 18 32 30.0000000  0  9G17G08G26G24G11G13G19G07G28
  -2828479.12147  -2174723.71545  22765679.5234                   22765680.1254
 -20892916.96148 -16259959.05146  20368837.0474                   20368835.5164
   3207189.89646   2525743.44944  23303521.1024                   23303521.7814
  -6434432.66047  -4991139.73045  22288717.2734                   22288717.8324
 -16886596.30148 -12843345.42245  21548225.0004                   21548223.0354
  20272954.28546  15948169.30143  24005182.4384                   24005184.4654
  14534751.13346  11341980.84444  23989745.9384                   23989743.8404
 -10604877.78148  -8231606.86746  20379014.8984                   20379012.8554
 -12992969.49648 -10102363.71545  22159395.4924                   22159393.5124
 11  8 22 18 33  0.0000000  0  9G17G08G26G24G11G13G19G07G28
  -2951636.87547  -2270690.73045  22742243.6094                   22742243.7194
 -20972683.84848 -16322115.07046  20353657.5784                   20353655.9774
   3113022.98446   2452366.66044  23285602.4534                   23285602.8444
  -6514358.31247  -5053419.43445  22273507.9384                   22273508.3794
 -16924966.18448 -12873244.03145  21540923.5234                   21540921.6564
  20344778.07046  16004135.64543  24018849.4454                   24018851.9884
  14599783.36346  11392655.23044  24002121.2584                   24002119.7114
 -10626633.28148  -8248559.23446  20374874.7194                   20374872.8444
 -13056681.80548 -10152009.66045  22147272.0474                   22147269.5634
 11  8 22 18 33 30.0000000  0  9G17G08G26G24G11G13G19G07G28
  -3074525.94547  -2366448.38345  22718858.5784                   22718858.8914
 -21052088.16848 -16383988.56246  20338547.5944                   20338546.3554
   3019377.16046   2379395.88744  23267781.9694                   23267781.8984
  -6593877.74247  -5115382.60945  22258376.4304                   22258376.6764
 -16962784.25447 -12902712.66045  21533726.9224                   21533725.1954
  20416570.49646  16060077.53943  24032512.1564                   24032514.4384
  14664889.98446  11443387.59844  24014510.6024                   24014508.4804
 -10647936.25048  -8265158.97346  20370821.0784                   20370818.8244
 -13120368.95748 -10201636.00045  22135152.6254                   22135150.5514
 11  8 22 18 34  0.0000000  0  9G17G08G26G24G11G13G19G07G28
  -3197140.25447  -2461991.93445  22695526.1804                   22695526.5514
 -21131122.55548 -16445573.80146  20323507.9304                   20323506.3554
   2926258.80946   2306836.16043  23250061.9144                   23250062.4414
  -6672983.59047  -5177023.49645  22243322.5314                   22243323.0744
 -17000045.20347 -12931747.16845  21526636.2504                   21526634.3324
  20488333.63346  16115996.61743  24046167.8524                   24046170.3674
  14730073.09446  11494179.57044  24026913.8444                   24026912.5274
 -10668781.00448  -8281401.66046  20366854.4144                   20366852.5044
 -13184026.62947 -10251239.36745  22123038.9924                   22123036.8164
 11  8 22 18 34 30.0000000  0  9G17G08G26G24G11G13G19G07G28
  -3319482.82447  -2557323.74245  22672244.7894                   22672244.8754
 -21209789.47748 -16506872.69946  20308538.1564                   20308536.8754
   2833664.92247   2234685.08643  23232441.5084                   23232442.0274
  -6751678.28547  -5238344.00845  22228347.2974                   22228348.2704
 -17036753.14548 -12960350.76645  21519651.0314                   21519649.1764
  20560059.98846  16171887.01643  24059817.1254                   24059820.0204
  14795325.53546  11545025.56644  24039331.2114                   24039329.4924
 -10689171.48047  -8297290.36746  20362974.4064                   20362972.1994
 -13247660.18048 -10300823.94945  22110930.0314                   22110927.8484
 11  8 22 18 35  0.0000000  0  9G17G08G26G24G11G13G19G07G28
  -3441541.63347  -2652434.43445  22649018.2114                   22649018.0354
 -21288075.33248 -16567874.66846  20293640.5394                   20293639.1334
   2741607.79747   2162952.26244  23214924.3674                   23214924.5984
  -6829948.52047  -5299333.76645  22213452.8524                   22213453.9774
 -17072897.01648 -12988514.83245  21512773.2584                   21512771.4344
  20631757.17647  16227754.68843  24073461.2344                   24073463.9804
  14860655.76247  11595932.16844  24051763.8284                   24051761.1954
 -10709096.25048  -8312816.19546  20359182.4844                   20359180.3984
 -13311259.43747 -10350381.80545  22098827.6254                   22098825.0514
 11  8 22 18 35 30.0000000  0  9G17G08G26G24G11G13G19G07G28
  -3563320.99647  -2747327.37145  22625843.6884                   22625844.2384
 -21365983.76648 -16628582.53546  20278815.1334                   20278813.7234
   2650083.42646   2091634.59043  23197507.8364                   23197507.5984
  -6907797.72747  -5359995.45745  22198639.0864                   22198639.4884
 -17108482.27748 -13016243.60945  21506001.6174                   21506000.0514
  20703416.83247  16283593.14143  24087097.9064                   24087099.8484
  14926055.40247  11646892.85544  24064208.5784                   24064206.9264
 -10728560.47348  -8327983.14546  20355478.6024                   20355476.5744
 -13374830.91047 -10399917.99645  22086730.1884                   22086728.3284
 11  8 22 18 36  0.0000000  0  9G17G08G26G24G11G13G19G07G28
  -3684818.16047  -2842000.41845  22602723.8444                   22602723.9454
 -21443510.92248 -16688993.30546  20264062.2664                   20264060.9104
   2559094.56346   2020734.16044  23180193.2424                   23180192.9344
  -6985222.44147  -5420326.37145  22183905.6564                   22183906.1764
 -17143507.09448 -13043535.67645  21499336.5474                   21499334.6844
  20775037.45346  16339401.16043  24100726.8834                   24100729.2734
  14991523.44547  11697906.85244  24076667.7274                   24076665.6054
 -10747562.22748  -8342789.73446  20351863.0864                   20351860.7344
 -13438373.86348 -10449431.98045  22074638.3364                   22074636.5234
 11  8 22 18 36 30.0000000  0  9G17G08G26G24G11G13G19G07G28
  -3806031.61347  -2936452.37945  22579657.3054                   22579657.8634
 -21520653.94948 -16749104.75446  20249382.5314                   20249380.7624
   2468643.28146   1950252.64844  23162980.5084                   23162980.9454
  -7062219.94147  -5480324.40645  22169253.2424                   22169253.9304
 -17177970.63348 -13070390.37945  21492778.4844                   21492776.5354
  20846616.54746  16395176.82043  24114348.3984                   24114350.5004
  15057057.67247  11748972.43844  24089138.0314                   24089135.5944
 -10766100.36348  -8357235.06246  20348335.3204                   20348333.3484
 -13501888.46548 -10498923.87945  22062551.6954                   22062549.8284
 11  8 22 18 37  0.0000000  0  9G17G08G26G24G11G13G19G07G28
  -3926959.28147  -3030681.65245  22556645.6024                   22556645.9264
 -21597410.29348 -16808914.88746  20234776.2504                   20234774.8484
   2378731.67247   1880191.64544  23145871.4694                   23145870.5904
  -7138787.28947  -5539987.25045  22154682.9304                   22154683.7034
 -17211872.03148 -13096807.04745  21486327.1414                   21486325.1564
  20918151.73046  16450918.25843  24127960.5004                   24127963.5164
  15122656.07047  11800088.01644  24101620.8984                   24101618.9534
 -10784173.75848  -8371318.25046  20344896.0234                   20344894.1764
 -13565374.88348 -10548393.80145  22050471.2344                   22050468.9064
 11  8 22 18 37 30.0000000  0  9G17G08G26G24G11G13G19G07G28
  -4047602.99247  -3124689.66445  22533688.0394                   22533688.2424
 -21673780.57048 -16868424.19946  20220243.4614                   20220241.8364
   2289358.04347   1810549.86344  23128864.0164                   23128864.0784
  -7214925.51647  -5599315.70345  22140195.0474                   22140194.6724
 -17245213.96548 -13122787.76645  21479981.7664                   21479980.0784
  20989637.00446  16506620.80143  24141563.5164                   24141566.9144
  15188313.24246  11851249.38344  24114114.8834                   24114113.2424
 -10801785.03148  -8385041.34846  20341544.7664                   20341543.0984
 -13628836.69548 -10597844.55145  22038394.2114                   22038392.6254
 11  8 22 18 38  0.0000000  0  9G17G08G26G24G11G13G19G07G28
  -4167973.35947  -3218484.67645  22510781.5004                   22510782.3404
 -21749773.91448 -16927639.79746  20205782.0864                   20205780.9964
   2200512.07847   1741319.25844  23111956.8984                   23111957.7544
  -7290644.16047  -5658317.20345  22125786.0474                   22125786.1134
 -17278008.23048 -13148341.73045  21473741.9454                   21473740.3324
  21061057.91046  16562273.16043  24155154.8364                   24155158.5784
  15254014.97746  11902445.47343  24126617.5864                   24126615.8874
 -10818945.49648  -8398413.16846  20338279.6254                   20338277.3674
 -13692286.12548 -10647285.64845  22026320.6174                   22026318.7304
 11  8 22 18 38 30.0000000  0  9G17G08G26G24G11G13G19G07G28
  -4288042.90647  -3312045.28945  22487933.1564                   22487933.7734
 -21825362.35548 -16986539.88346  20191398.3204                   20191396.5824
   2112221.33247   1672521.28544  23095155.9614                   23095155.9774
  -7365914.89147  -5716969.68745  22111461.8134                   22111462.6914
 -17310228.46948 -13173448.40245  21467610.4064                   21467608.7154
  21132437.93446  16617893.66843  24168738.3594                   24168741.8554
  15319784.58646  11953694.46544  24139133.5164                   24139131.6564
 -10835628.47748  -8411412.91846  20335104.6954                   20335102.6644
 -13755698.12948 -10696697.59445  22014253.4454                   22014252.0394
 11  8 22 18 39  0.0000000  0  9G17G08G26G24G11G13G19G07G28
  -4407825.03947  -3405381.92645  22465139.5004                   22465139.9614
 -21900558.09848 -17045133.96946  20177089.0864                   20177087.4184
   2024472.56347   1604145.61344  23078457.8444                   23078458.2154
  -7440750.03547  -5775282.75445  22097221.4454                   22097222.0634
 -17341889.18748 -13198119.07845  21461585.9614                   21461583.7704
  21203759.02046  16673468.20743  24182311.4694                   24182314.2114
  15385605.39146  12004983.32043  24151658.2664                   24151657.0554
 -10851848.15248  -8424051.65246  20332018.1564                   20332016.2154
 -13819087.78948 -10746092.12145  22002190.4064                   22002189.3164
 11  8 22 18 39 30.0000000  0  9G17G08G26G24G11G13G19G07G28
  -4527341.27347  -3498511.38345  22442396.6724                   22442396.8094
 -21975381.53548 -17103437.95346  20162850.6644                   20162849.4454
   1937244.61747   1536175.79744  23061858.6644                   23061858.7464
  -7515170.29347  -5833272.52745  22083059.4384                   22083060.0044
 -17373012.66048 -13222371.12945  21455662.8444                   21455660.8404
  21274996.02346  16728977.25043  24195866.8914                   24195870.5044
  15451452.01246  12056292.30944  24164188.8834                   24164187.2274
 -10867626.60248  -8436346.57046  20329015.6724                   20329013.6844
 -13882478.53948 -10795487.50045  21990127.7814                   21990125.7384
 11  8 22 18 40  0.0000000  0  9G17G08G26G24G11G13G19G07G28
  -4646566.85947  -3591414.35545  22419708.5554                   22419708.8054
 -22049806.77348 -17161431.64546  20148688.2664                   20148686.3754
   1850562.25447   1468631.10944  23045363.9844                   23045364.2504
  -7589150.07047  -5890919.07445  22068981.7194                   22068982.1604
 -17403575.35247 -13246186.19945  21449846.9774                   21449844.9614
  21346169.60946  16784436.89143  24209410.8914                   24209414.5594
  15517345.54746  12107637.84444  24176727.7114                   24176726.1134
 -10882940.32048  -8448279.36346  20326101.5554                   20326099.6914
 -13945847.00048 -10844865.50845  21978069.6024                   21978067.4654
 11  8 22 18 40 30.0000000  0  9G17G08G26G24G11G13G19G07G28
  -4765508.10947  -3684095.77345  22397074.3984                   22397074.5124
 -22123839.19148 -17219119.24646  20134600.5234                   20134598.7034
   1764419.07447   1401506.56344  23028971.4924                   23028971.2974
  -7662694.63747  -5948226.48845  22054986.6334                   22054987.1684
 -17433584.77048 -13269570.15245  21444136.7584                   21444134.6484
  21417269.59446  16839839.15643  24222941.1724                   24222944.9304
  15583275.95746  12159012.12543  24189274.7274                   24189272.5554
 -10897795.93448  -8459855.18046  20323274.7664                   20323272.9844
 -14009201.52348 -10894232.66045  21966013.6644                   21966011.5904
 11  8 22 18 41  0.0000000  0  9G17G08G26G24G11G13G19G07G28
  -4884162.20347  -3776553.43445  22374495.6174                   22374495.4884
 -22197475.11748 -17276497.89146  20120587.8054                   20120586.2274
   1678817.88747   1334804.34444  23012681.9774                   23012682.0124
  -7735800.39847  -6005191.99645  22041074.7424                   22041075.3954
 -17463039.39148 -13292521.79745  21438531.3444                   21438529.5434
  21488294.25846  16895182.75043  24236457.1254                   24236460.6094
  15649242.03146  12210414.20744  24201827.3594                   24201825.3054
 -10912191.70748  -8471072.68746  20320535.2274                   20320533.2624
 -14072541.45348 -10943588.43745  21953960.4224                   21953958.3364
 11  8 22 18 41 30.0000000  0  9G17G08G26G24G11G13G19G07G28
  -5002528.20747  -3868786.60945  22351971.1954                   22351970.9964
 -22270712.30548 -17333565.82446  20106651.1884                   20106649.5084
   1593760.18447   1268525.60944  22996496.2504                   22996495.6094
  -7808465.39847  -6061814.03545  22027247.4144                   22027247.9264
 -17491939.26248 -13315041.16845  21433031.9304                   21433029.8284
  21559240.73046  16950465.41843  24249957.3984                   24249961.6484
  15715241.28946  12261842.13744  24214385.9454                   24214384.0744
 -10926127.35948  -8481931.65646  20317883.3834                   20317881.4924
 -14135867.62948 -10992933.50045  21941909.9064                   21941907.8094
 11  8 22 18 42  0.0000000  0  9G17G08G26G24G11G13G19G07G28
  -5120593.83648  -3960785.72345  22329503.8984                   22329503.9064
 -22343537.45748 -17390312.69546  20092792.9694                   20092791.5354
   1509257.76647   1202679.56644  22980415.9844                   22980415.8094
  -7880676.68447  -6118082.54345  22013506.1644                   22013506.2704
 -17520273.26648 -13337119.62145  21427640.0554                   21427638.0084
  21630117.19146  17005693.50843  24263445.5314                   24263449.1764
  15781282.64146  12313302.87143  24226953.8914                   24226951.8714
 -10939591.71148  -8492423.37546  20315320.9924                   20315319.6374
 -14199169.38348 -11042259.53545  21929863.8754                   21929861.6954
 11  8 22 18 42 30.0000000  0  9G17G08G26G24G11G13G19G07G28
  -5238369.44147  -4052558.84045  22307091.8674                   22307091.5354
 -22415959.73048 -17446745.63746  20079011.3834                   20079009.6914
   1425300.66447   1137258.45344  22964439.7814                   22964439.5704
  -7952443.84847  -6174004.98845  21999849.2424                   21999849.4384
 -17548053.03948 -13358766.20345  21422353.9454                   21422352.2704
  21700909.52046  17060856.01242  24276917.0704                   24276921.4344
  15847352.03146  12364785.47344  24239526.7734                   24239524.1914
 -10952595.86348  -8502556.50046  20312846.5704                   20312844.7344
 -14262458.92648 -11091576.04745  21917820.1334                   21917818.1804
 11  8 22 18 43  0.0000000  0  9G17G08G26G24G11G13G19G07G28
  -5355855.29347  -4144106.18445  22284735.1954                   22284734.8714
 -22487978.57848 -17502864.22346  20065307.0554                   20065305.0594
   1341888.71147   1072262.12144  22948566.5944                   22948566.8204
  -8023766.03947  -6229580.70345  21986276.7424                   21986277.4654
 -17575279.92648 -13379981.96945  21417173.0004                   21417171.0044
  21771613.52046  17115949.72742  24290371.3914                   24290376.1094
  15913445.80546  12416287.06643  24252103.7664                   24252101.9654
 -10965140.92248  -8512331.88746  20310459.3134                   20310457.5784
 -14325737.78148 -11140884.24645  21905778.5784                   21905776.5784
 11  8 22 18 43 30.0000000  0  9G17G08G26G24G11G13G19G07G28
  -3897627.80148  -3007824.94545  22562226.4614                   22562226.0944
 -20984170.47348 -16331065.70346  20351471.5554                   20351470.5824
   2834444.19947   2235292.35944  23232590.5394                   23232590.8164
  -6519220.37947  -5057207.41845  22272582.1174                   22272582.6684
 -16026534.39848 -12173167.28545  21711888.8054                   21711887.1724
  23417642.56646  18398569.47342  24603600.9774                   24603604.7304
  17554977.82846  13695402.87943  24564476.9304                   24564475.1954
  -9401807.36348  -7294149.91846  20607951.8524                   20607950.2274
 -12813585.96148  -9962584.12545  22193531.5554                   22193529.3554
 11  8 22 18 44  0.0000000  0  9G17G08G26G24G11G13G19G07G28
  -4014510.24647  -3098902.10245  22539984.7664                   22539983.8484
 -21055355.03548 -16386534.19146  20337925.7274                   20337924.5514
   2752146.02047   2171163.91844  23216929.3914                   23216929.6644
  -6589626.35247  -5112069.19145  22259184.7034                   22259184.6214
 -16052635.25448 -12193505.60945  21706922.4614                   21706920.1454
  23488181.87946  18453534.87142  24617024.4614                   24617028.8914
  17621133.33246  13746952.56643  24577065.9064                   24577064.1214
  -9413412.52748  -7303192.92246  20605743.3984                   20605741.7934
 -12876825.40648 -10011861.60545  22181497.2504                   22181495.2304
 11  8 22 18 44 30.0000000  0  9G17G08G26G24G11G13G19G07G28
  -4131093.54347  -3189746.15645  22517799.0084                   22517798.8134
 -21126123.50448 -16441678.46146  20324459.2504                   20324457.6564
   2670402.75047   2107467.85944  23201374.2114                   23201374.0204
  -6659575.32847  -5166574.85545  22245873.3594                   22245873.6724
 -16078177.23448 -12213408.45745  21702061.9614                   21702059.9884
  23558630.39546  18508429.50042  24630430.6884                   24630434.6214
  17687311.96946  13798520.27343  24589659.0864                   24589657.4224
  -9424551.56648  -7311872.71146  20603623.8134                   20603622.4494
 -12940050.17248 -10061127.64845  22169466.1414                   22169463.7774
 11  8 22 18 45  0.0000000  0  9G17G08G26G24G11G13G19G07G28
  -4247391.73847  -3280368.05945  22495668.5314                   22495668.2934
 -21196489.02748 -16496508.74246  20311069.1484                   20311067.4454
   2589199.66447   2044192.72744  23185921.5234                   23185922.1294
  -6729080.62947  -5220734.80545  22232647.3054                   22232647.3714
 -16103175.83248 -12232887.88745  21697304.8524                   21697302.9734
  23628970.30146  18563239.50443  24643816.0004                   24643819.6524
  17753496.28546  13850092.44943  24602253.2974                   24602251.9104
  -9435239.70748  -7320201.15246  20601590.1564                   20601588.2584
 -13003275.63348 -10110394.23045  22157434.6174                   22157432.7464
 11  8 22 18 45 30.0000000  0  9G17G08G26G24G11G13G19G07G28
  -4363388.84447  -3370755.34045  22473594.9844                   22473594.6724
 -21266433.97348 -16551011.29746  20297759.1174                   20297757.1294
   2508552.87947   1981351.08644  23170575.3204                   23170575.1954
  -6798125.64847  -5274536.10545  22219508.6884                   22219508.7814
 -16127616.60948 -12251932.64845  21692654.1094                   21692652.4734
  23699213.42646  18617974.14143  24657183.0004                   24657186.8054
  17819698.47746  13901678.51643  24614851.7814                   24614850.2384
  -9445461.95748  -7328166.56646  20599644.7034                   20599643.2274
 -13066488.03148 -10159650.65645  22145405.7274                   22145403.8594
 11  8 22 18 46  0.0000000  0  9G17G08G26G24G11G13G19G07G28
  -4479072.68447  -3460898.52345  22451580.8444                   22451580.6414
 -21335945.12548 -16605175.82846  20284531.7584                   20284529.5234
   2428474.71147   1918952.52044  23155337.0784                   23155336.9414
  -6866696.98447  -5327968.28545  22206459.4694                   22206460.0234
 -16151488.31648 -12270533.98045  21688111.4304                   21688109.9454
  23769368.56646  18672640.13343  24670533.8594                   24670537.5434
  17885927.48846  13953285.46943  24627455.1174                   24627453.2194
  -9455206.11748  -7335759.44146  20597790.5084                   20597788.4694
 -13129676.52348 -10208888.43445  22133381.5164                   22133379.3834
 11  8 22 18 46 30.0000000  0  9G17G08G26G24G11G13G19G07G28
  -4594454.07848  -3550806.03945  22429624.1644                   22429624.2894
 -21405032.27048 -16659009.96946  20271384.3834                   20271382.7384
   2348954.43847   1856988.66444  23140204.7664                   23140204.9304
  -6934805.14847  -5381039.55545  22193499.3914                   22193499.5904
 -16174803.21548 -12288701.43445  21683674.5944                   21683673.0124
  23839421.06646  18727226.15643  24683864.5864                   24683868.7034
  17952168.98446  14004902.14843  24640059.9774                   24640058.5234
  -9464484.77348  -7342989.59446  20596024.9454                   20596023.2464
 -13192853.69148 -10258117.37145  22121359.0784                   22121356.7934
 11  8 22 18 47  0.0000000  0  9G17G08G26G24G11G13G19G07G28
  -4709527.74247  -3640473.76245  22407726.7344                   22407726.2194
 -21473689.48448 -16712509.10246  20258319.6884                   20258317.9494
   2269996.93847   1795463.34844  23125179.4924                   23125179.8134
  -7002443.82047  -5433744.98845  22180627.9924                   22180628.1564
 -16197557.22748 -12306431.82445  21679344.4534                   21679342.9024
  23909372.14546  18781733.14143  24697175.3444                   24697180.4104
  18018424.92646  14056530.10243  24652668.2274                   24652666.3874
  -9473293.34048  -7349853.43746  20594349.1564                   20594347.3244
 -13256015.18748 -10307334.11345  22109339.8134                   22109337.5044
 11  8 22 18 47 30.0000000  0  9G17G08G26G24G11G13G19G07G28
  -4824278.00048  -3729889.48845  22385890.3754                   22385890.0394
 -21541899.53148 -16765659.78946  20245339.4534                   20245337.8594
   2191617.96547   1734388.83244  23110264.4924                   23110264.9384
  -7069596.54747  -5486071.75845  22167849.1954                   22167849.8284
 -16219735.78548 -12323713.81645  21675124.3204                   21675122.8834
  23979233.77746  18836170.43043  24710470.9454                   24710475.1994
  18084707.79746  14108179.02344  24665281.4844                   24665279.8204
  -9481616.84848  -7356339.31246  20592764.8054                   20592762.9384
 -13319147.48848 -10356528.09845  22097326.0004                   22097324.2074
 11  8 22 18 48  0.0000000  0  9G17G08G26G24G11G13G19G07G28
  -4938698.48447  -3819048.25045  22364116.6094                   22364116.2584
 -21609655.01648 -16818456.28146  20232446.5314                   20232444.7194
   2113824.02347   1673770.19144  23095461.1564                   23095461.3714
  -7136256.14147  -5538014.26245  22155163.9614                   22155164.6844
 -16241334.06248 -12340543.63345  21671014.0634                   21671012.6024
  24049008.75446  18890540.15643  24723748.7194                   24723753.1334
  18151020.64546  14159851.31644  24677900.2504                   24677898.4884
  -9489449.69948  -7362442.86746  20591274.0634                   20591272.7034
 -13382245.64148 -10405695.48845  22085318.8444                   22085316.8404
 11  8 22 18 48 30.0000000  0  9G17G08G26G24G11G13G19G07G28
  -5052806.02047  -3907963.15245  22342402.3364                   22342401.9024
 -21676971.60948 -16870910.77746  20219636.4304                   20219634.4614
   2036598.06347   1613594.12144  23080765.3914                   23080765.6454
  -7202438.61347  -5589584.98845  22142570.2504                   22142570.3244
 -16262370.06248 -12356935.32045  21667011.4774                   21667009.3714
  24118676.69946  18944826.50043  24737006.2664                   24737010.6954
  18217343.32046  14211531.26244  24690521.5784                   24690519.7664
  -9496809.80548  -7368178.05146  20589873.6724                   20589871.9654
 -13445327.63348 -10454850.27045  22073314.9454                   22073312.8364
 11  8 22 18 49  0.0000000  0  8G17G08G26G24G11G19G07G28
  -5166604.39148  -3996637.15245  22320747.5474                   22320747.0274
 -21743852.49248 -16923025.75846  20206909.5004                   20206908.0744
   1959936.00847   1553857.45744  23066176.9224                   23066177.0664
  -7268147.12947  -5640786.39845  22130066.2424                   22130066.3014
 -16282849.20748 -12372893.09845  21663114.3984                   21663112.4654
  18283668.37947  14263213.07044  24703143.2034                   24703140.9304
  -9503702.02748  -7373548.65246  20588562.0164                   20588560.1564
 -13508399.11747 -10503996.86345  22061313.1644                   22061310.6724
 11  8 22 18 49 30.0000000  0  8G17G08G26G24G11G19G07G28
  -5280080.06248  -4085059.70745  22299153.9534                   22299153.5434
 -21810282.74648 -16974789.60246  20194268.0704                   20194266.4454
   1883851.45347   1494570.80944  23051698.5944                   23051698.8284
  -7333367.29747  -5691607.27345  22117655.1884                   22117655.7034
 -16302759.09448 -12388407.29345  21659325.4534                   21659323.7384
  18350006.23447  14314904.85944  24715766.3284                   24715764.9844
  -9510113.47348  -7378544.60946  20587341.7274                   20587340.7114
 -13571447.76648 -10553125.67245  22049315.0944                   22049312.6884
 11  8 22 18 50  0.0000000  0  8G17G08G26G24G11G19G07G28
  -5393240.01248  -4173236.23845  22277620.5004                   22277619.5514
 -21876268.07848 -17026206.75446  20181711.4774                   20181710.1214
   1808337.41447   1435728.70744  23037328.6884                   23037328.7544
  -7398105.42247  -5742052.54345  22105335.9614                   22105335.8834
 -16322108.21548 -12403484.53545  21655643.2664                   21655641.7274
  18416347.02347  14366598.91044  24728391.3284                   24728389.2704
  -9516052.05948  -7383172.10946  20586212.0704                   20586210.3484
 -13634482.30948 -10602243.47745  22037320.0554                   22037317.5784
 11  8 22 18 50 30.0000000  0  8G17G08G26G24G11G19G07G28
  -5506078.14147  -4261161.99245  22256147.6174                   22256147.6174
 -21941801.43748 -17077271.71946  20169240.9614                   20169239.4344
   1733399.49247   1377335.54344  23023068.3674                   23023068.5394
  -7462354.60547  -5792116.82045  22093109.5864                   22093109.9064
 -16340891.74248 -12418121.06245  21652068.6954                   21652067.1054
  18482693.19547  14418297.19143  24741016.0554                   24741014.7344
  -9521512.72748  -7387427.21546  20585173.1804                   20585171.3874
 -13697497.76248 -10651346.42245  22025328.3834                   22025326.1684
 11  8 22 18 51  0.0000000  0  8G17G08G26G24G11G19G07G28
  -5618585.85248  -4348830.28145  22234738.1804                   22234738.1994
 -22006873.55148 -17127977.27046  20156857.7274                   20156856.2814
   1659045.89147   1319397.69144  23008919.3984                   23008919.7704
  -7526105.62947  -5841792.92245  22080978.3284                   22080978.2504
 -16359102.75048 -12432311.46145  21648603.6024                   21648601.5164
  18549050.17246  14470003.86343  24753643.4924                   24753641.9304
  -9526488.22748  -7391304.26246  20584226.3914                   20584224.4494
 -13760487.38747 -10700429.22745  22013341.9614                   22013339.7624
 11  8 22 18 51 30.0000000  0  8G17G08G26G24G11G19G07G28
  -5730751.37948  -4436231.93745  22213394.0554                   22213393.8754
 -22071470.87148 -17178312.85246  20144565.5944                   20144564.0204
   1585288.44546   1261924.36944  22994883.5394                   22994884.1724
  -7589345.77347  -5891070.93045  22068943.7504                   22068943.8634
 -16376730.59448 -12446047.46545  21645249.4694                   21645247.7234
  18615426.53146  14521725.64143  24766274.2664                   24766272.9144
  -9530967.64848  -7394794.75846  20583373.6484                   20583372.0234
 -13823440.65247 -10749483.71945  22001362.3134                   22001360.2704
 11  8 22 18 52  0.0000000  0  8G17G08G26G24G11G19G07G28
  -5842607.53147  -4523392.51245  22192107.9064                   22192108.2464
 -22135625.46548 -17228303.46146  20132357.6564                   20132355.7464
   1512094.23046   1204889.92244  22980955.5314                   22980955.9534
  -7652107.32447  -5939976.02045  22057000.9774                   22057000.8284
 -16393809.82448 -12459355.96145  21641999.0234                   21641997.0594
  18681786.48046  14573434.62943  24778901.7194                   24778900.4144
  -9534984.67648  -7397924.94546  20582609.7424                   20582608.1994
 -13886391.52748 -10798536.32845  21989383.3524                   21989381.1724
 11  8 22 18 52 30.0000000  0  8G17G08G26G24G11G19G07G28
  -5954158.41048  -4610315.20745  22170880.8054                   22170880.7974
 -22199340.11748 -17277951.24646  20120233.1564                   20120231.1844
   1439459.21947   1148291.23044  22967133.2424                   22967133.7464
  -7714393.22347  -5988510.46945  22045148.4224                   22045148.6724
 -16410345.42648 -12472240.85545  21638852.4534                   21638850.7664
  18748122.97346  14625125.33242  24791525.4694                   24791524.4384
  -9538543.69548  -7400698.24646  20581932.4614                   20581930.6884
 -13949345.17648 -10847591.10545  21977403.1804                   21977401.2704
 11  8 22 18 53  0.0000000  0  8G17G08G26G24G11G19G07G28
  -6065406.97348  -4697002.35245  22149710.7664                   22149710.6684
 -22262616.44548 -17327257.48446  20108192.0234                   20108190.4024
   1367380.24646   1092125.80144  22953417.4844                   22953417.6334
  -7776205.93747  -6036676.20345  22033386.0084                   22033386.0004
 -16426341.94948 -12484705.69545  21635808.2894                   21635806.8324
  18814429.65645  14676792.79742  24804142.6414                   24804142.0474
  -9541649.09448  -7403118.07046  20581341.4924                   20581339.9804
 -14012306.10548 -10896651.55945  21965422.2734                   21965420.0824
 11  8 22 18 53 30.0000000  0  7G17G08G26G24G11G07G28
  -6176338.59448  -4783442.51245  22128600.9384                   22128600.6024
 -22325439.25048 -17376210.32446  20096237.1644                   20096235.3874
   1295871.17647   1036404.47344  22939809.4844                   22939810.1214
  -7837530.45747  -6084461.50845  22021716.1804                   22021716.2624
 -16441786.41048 -12496740.34045  21632869.1804                   21632867.5594
  -9544287.52748  -7405174.02746  20580839.2504                   20580837.7154
 -14075261.23048 -10945707.48445  21953442.3444                   21953440.4224
 11  8 22 18 54  0.0000000  0  7G17G08G26G24G11G07G28
  -6286968.38748  -4869647.49246  22107549.1094                   22107548.3554
 -22387822.70348 -17424820.82446  20084365.8444                   20084364.2344
   1224916.93447    981115.44144  22926307.2734                   22926307.5434
  -7898381.26247  -6131877.69945  22010136.7584                   22010136.9024
 -16456695.76648 -12508358.04345  21630031.8834                   21630030.5594
  -9546474.98448  -7406878.58246  20580422.9454                   20580421.4064
 -14138226.97748 -10994771.70345  21941460.8524                   21941458.0234
 11  8 22 18 54 30.0000000  0  7G17G08G26G24G11G07G28
  -6397284.33248  -4955607.91845  22086556.6254                   22086556.0124
 -22449753.37548 -17473078.50846  20072580.5234                   20072579.2344
   1154529.27747    926267.93044  22912913.0474                   22912913.4844
  -7958745.46147  -6178914.71945  21998649.6254                   21998649.7034
 -16471059.23848 -12519550.37945  21627298.9844                   21627297.5864
  -9548200.20748  -7408222.94546  20580094.9454                   20580093.2464
 -14201192.35547 -11043835.61345  21929478.6724                   21929476.1684
 11  8 22 18 55  0.0000000  0  7G17G08G26G24G11G07G28
  -6507276.75448  -5041316.24245  22065625.8444                   22065624.9144
 -22511220.35948 -17520974.87146  20060883.9304                   20060882.6454
   1084717.62547    871869.24244  22899628.5314                   22899628.8244
  -8018612.64147  -6225564.44145  21987257.7344                   21987257.2034
 -16484868.09048 -12530310.53545  21624671.2114                   21624669.5784
  -9549454.54348  -7409200.39146  20579856.1174                   20579854.5664
 -14264148.71948 -11092892.51246  21917498.2114                   21917496.3134
 11  8 22 18 55 30.0000000  0  7G17G08G26G24G11G07G28
  -6616957.03548  -5126781.34046  22044754.3594                   22044753.8284
 -22572234.32448 -17568518.21946  20049273.6254                   20049272.2234
   1015470.03147    817910.07844  22886450.8364                   22886450.9264
  -8077993.82047  -6271835.46145  21975957.3054                   21975957.9804
 -16498136.11347 -12540649.26645  21622146.6804                   21622144.8094
  -9550250.90248  -7409820.95746  20579704.3284                   20579703.1094
 -14327109.27747 -11141952.67645  21905517.1174                   21905515.1094
